
Distance (Route):
Temperature : 26.1°C
Humidity : 36.2%
Pressure : 0hPa| Receiver | Frames | First received | Last received |
|---|---|---|---|
| 9A1FER-3 | 399 | 2026-09-04 23:18:03 | 2026-09-05 01:12:15 |
| 9A1FER-10 | 255 | 2026-09-04 23:18:03 | 2026-09-05 01:12:34 |
| PETON7-10 | 226 | 2026-09-04 23:57:06 | 2026-09-05 00:58:55 |
| OE5DRO-10 | 140 | 2026-09-04 23:59:13 | 2026-09-05 00:58:14 |
| PG1ADW-2 | 105 | 2026-09-05 00:14:55 | 2026-09-05 00:55:52 |
| OE5DXL-15 | 73 | 2026-09-05 00:09:52 | 2026-09-05 00:55:42 |
| OE8JPQ-2 | 49 | 2026-09-05 00:35:05 | 2026-09-05 00:52:33 |
| OE3JTB-15 | 40 | 2026-09-04 23:46:49 | 2026-09-05 01:02:33 |
| OM5KV | 15 | 2026-09-04 23:36:50 | 2026-09-05 01:07:29 |
| LZ4TU-5 | 8 | 2026-09-05 00:43:20 | 2026-09-05 00:51:12 |
| Receiver | Date | Latitude | Longitude | Direction | Speed | Altitude | Climb | Temperature | Humidity | Pressure | Voltage | Killtimer | Uptime | BKT | XDATA |
|---|---|---|---|---|---|---|---|---|---|---|---|---|---|---|---|
| 9A1FER-10 | 2026-09-05 01:12:34 | 45.73354 | 16.81567 | 81° | 40km/h | 419m | -14.6m/s | 26.1°C | 36.2% | 0hPa | 2.6V | 00:00:00 | 02:09:57 | 00:00:00 | |
| 9A1FER-10 | 2026-09-05 01:12:31 | 45.73349 | 16.81539 | 75° | 40km/h | 447m | -14.7m/s | 26.2°C | 35.9% | 0hPa | 2.6V | 00:00:00 | 02:09:55 | 00:00:00 | |
| 9A1FER-10 | 2026-09-05 01:12:29 | 45.73346 | 16.81510 | 78° | 40km/h | 475m | -15.1m/s | 26.0°C | 35.7% | 0hPa | 2.6V | 08:08:00 | 02:09:53 | 00:00:00 | |
| 9A1FER-10 | 2026-09-05 01:12:27 | 45.73342 | 16.81482 | 81° | 40km/h | 503m | -14.9m/s | 25.9°C | 36.3% | 0hPa | 2.6V | 00:00:00 | 02:09:51 | 00:00:00 | |
| 9A1FER-10 | 2026-09-05 01:12:25 | 45.73338 | 16.81453 | 78° | 40km/h | 532m | -15.0m/s | 25.9°C | 35.8% | 0hPa | 2.6V | 00:00:00 | 02:09:49 | 00:00:00 | |
| 9A1FER-3 | 2026-09-05 01:12:15 | 45.73323 | 16.81306 | 88° | 42km/h | 672m | -14.8m/s | 25.5°C | 34.9% | 0hPa | 2.6V | 00:00:00 | 02:09:39 | 00:00:00 | |
| 9A1FER-3 | 2026-09-05 01:12:13 | 45.73321 | 16.81277 | 85° | 37km/h | 700m | -14.7m/s | 25.6°C | 33.3% | 0hPa | 2.5V | 00:00:00 | 02:09:37 | 00:00:00 | |
| 9A1FER-10 | 2026-09-05 01:12:13 | 45.73321 | 16.81277 | 85° | 37km/h | 700m | -14.7m/s | 25.6°C | 33.3% | 0hPa | 2.5V | 00:00:00 | 02:09:37 | 00:00:00 | |
| 9A1FER-3 | 2026-09-05 01:12:11 | 45.73320 | 16.81250 | 87° | 38km/h | 729m | -14.8m/s | 25.5°C | 34.4% | 0hPa | 2.6V | 00:00:00 | 02:09:35 | 00:00:00 | |
| 9A1FER-10 | 2026-09-05 01:12:10 | 45.73319 | 16.81236 | 83° | 38km/h | 743m | -14.9m/s | 25.4°C | 34.8% | 0hPa | 2.6V | 00:00:00 | 02:09:34 | 00:00:00 | |
| 9A1FER-3 | 2026-09-05 01:12:09 | 45.73319 | 16.81223 | 89° | 40km/h | 757m | -14.5m/s | 25.2°C | 35.0% | 0hPa | 2.6V | 00:00:00 | 02:09:33 | 00:00:00 | |
| 9A1FER-10 | 2026-09-05 01:12:08 | 45.73318 | 16.81208 | 85° | 40km/h | 771m | -14.1m/s | 25.1°C | 35.0% | 0hPa | 2.6V | 00:00:00 | 02:09:32 | 00:00:00 | |
| 9A1FER-3 | 2026-09-05 01:12:07 | 45.73317 | 16.81194 | 83° | 40km/h | 784m | -14.1m/s | 25.0°C | 35.2% | 0hPa | 2.6V | 00:00:00 | 02:09:31 | 00:00:00 | |
| 9A1FER-10 | 2026-09-05 01:12:06 | 45.73316 | 16.81179 | 90° | 38km/h | 798m | -14.8m/s | 24.8°C | 35.6% | 0hPa | 2.6V | 00:00:00 | 02:09:30 | 00:00:00 | |
| 9A1FER-3 | 2026-09-05 01:12:05 | 45.73316 | 16.81166 | 83° | 37km/h | 812m | -14.6m/s | 24.7°C | 35.6% | 0hPa | 2.5V | 00:00:00 | 02:09:29 | 00:00:00 | |
| 9A1FER-10 | 2026-09-05 01:12:04 | 45.73315 | 16.81152 | 91° | 38km/h | 825m | -15.2m/s | 24.6°C | 35.9% | 0hPa | 2.5V | 00:00:00 | 02:09:28 | 00:00:00 | |
| 9A1FER-3 | 2026-09-05 01:12:03 | 45.73315 | 16.81139 | 84° | 37km/h | 840m | -14.4m/s | 24.4°C | 36.2% | 0hPa | 2.5V | 08:08:00 | 02:09:27 | 00:00:00 | |
| 9A1FER-10 | 2026-09-05 01:12:02 | 45.73314 | 16.81126 | 88° | 37km/h | 853m | -14.5m/s | 24.3°C | 36.3% | 0hPa | 2.6V | 00:00:00 | 02:09:26 | 00:00:00 | |
| 9A1FER-3 | 2026-09-05 01:12:01 | 45.73314 | 16.81113 | 89° | 37km/h | 867m | -14.8m/s | 24.2°C | 36.3% | 0hPa | 2.6V | 00:00:00 | 02:09:25 | 00:00:00 | |
| 9A1FER-10 | 2026-09-05 01:12:00 | 45.73314 | 16.81099 | 86° | 37km/h | 881m | -13.9m/s | 24.1°C | 36.2% | 0hPa | 2.6V | 08:08:00 | 02:09:24 | 00:00:00 | |
| 9A1FER-3 | 2026-09-05 01:11:59 | 45.73314 | 16.81086 | 94° | 37km/h | 893m | -13.9m/s | 24.0°C | 37.6% | 0hPa | 2.6V | 00:00:00 | 02:09:23 | 00:00:00 | |
| 9A1FER-10 | 2026-09-05 01:11:58 | 45.73314 | 16.81073 | 88° | 38km/h | 906m | -14.2m/s | 23.8°C | 38.1% | 0hPa | 2.6V | 00:00:00 | 02:09:22 | 00:00:00 | |
| 9A1FER-3 | 2026-09-05 01:11:57 | 45.73314 | 16.81059 | 90° | 38km/h | 920m | -13.7m/s | 23.7°C | 38.6% | 0hPa | 2.6V | 00:00:00 | 02:09:21 | 00:00:00 | |
| 9A1FER-10 | 2026-09-05 01:11:56 | 45.73314 | 16.81045 | 96° | 37km/h | 933m | -14.0m/s | 23.6°C | 39.0% | 0hPa | 2.6V | 00:00:00 | 02:09:20 | 00:00:00 | |
| 9A1FER-3 | 2026-09-05 01:11:55 | 45.73315 | 16.81032 | 89° | 38km/h | 946m | -14.2m/s | 23.4°C | 39.0% | 0hPa | 2.6V | 00:00:00 | 02:09:19 | 00:00:00 | |
| 9A1FER-10 | 2026-09-05 01:11:54 | 45.73315 | 16.81018 | 93° | 38km/h | 960m | -13.7m/s | 23.3°C | 39.1% | 0hPa | 2.6V | 00:00:00 | 02:09:18 | 00:00:00 | |
| 9A1FER-3 | 2026-09-05 01:11:53 | 45.73315 | 16.81004 | 92° | 38km/h | 973m | -13.7m/s | 23.2°C | 39.8% | 0hPa | 2.6V | 00:00:00 | 02:09:17 | 00:00:00 | |
| 9A1FER-10 | 2026-09-05 01:11:52 | 45.73316 | 16.80990 | 90° | 40km/h | 986m | -13.3m/s | 23.0°C | 40.1% | 0hPa | 2.6V | 00:00:00 | 02:09:16 | 00:00:00 | |
| 9A1FER-3 | 2026-09-05 01:11:51 | 45.73316 | 16.80976 | 97° | 37km/h | 999m | -13.3m/s | 22.9°C | 40.4% | 0hPa | 2.6V | 00:00:00 | 02:09:15 | 00:00:00 | |
| 9A1FER-10 | 2026-09-05 01:11:50 | 45.73317 | 16.80962 | 88° | 38km/h | 1011m | -13.7m/s | 22.8°C | 40.5% | 0hPa | 2.6V | 00:00:00 | 02:09:14 | 00:00:00 | |
| 9A1FER-3 | 2026-09-05 01:11:49 | 45.73317 | 16.80948 | 91° | 40km/h | 1024m | -12.8m/s | 22.7°C | 40.5% | 0hPa | 2.6V | 00:00:00 | 02:09:13 | 00:00:00 | |
| 9A1FER-10 | 2026-09-05 01:11:45 | 45.73319 | 16.80891 | 97° | 42km/h | 1074m | -14.1m/s | 22.4°C | 41.8% | 0hPa | 2.6V | 00:00:00 | 02:09:09 | 00:00:00 | |
| 9A1FER-3 | 2026-09-05 01:11:44 | 45.73320 | 16.80876 | 91° | 42km/h | 1087m | -14.0m/s | 22.4°C | 41.8% | 0hPa | 2.6V | 00:00:00 | 02:09:08 | 00:00:00 | |
| 9A1FER-10 | 2026-09-05 01:11:40 | 45.73324 | 16.80814 | 94° | 44km/h | 1143m | -15.2m/s | 22.4°C | 41.5% | 0hPa | 2.6V | 00:00:00 | 02:09:04 | 00:00:00 | |
| 9A1FER-3 | 2026-09-05 01:11:39 | 45.73325 | 16.80799 | 101° | 44km/h | 1158m | -14.8m/s | 22.4°C | 42.5% | 0hPa | 2.6V | 08:09:00 | 02:09:03 | 00:00:00 | |
| 9A1FER-10 | 2026-09-05 01:11:35 | 45.73332 | 16.80736 | 102° | 44km/h | 1215m | -14.4m/s | 21.8°C | 50.9% | 0hPa | 2.6V | 00:00:00 | 02:08:59 | 00:00:00 | |
| 9A1FER-3 | 2026-09-05 01:11:34 | 45.73334 | 16.80720 | 97° | 42km/h | 1229m | -14.9m/s | 21.7°C | 52.9% | 0hPa | 2.6V | 00:00:00 | 02:08:58 | 00:00:00 | |
| 9A1FER-10 | 2026-09-05 01:11:30 | 45.73340 | 16.80659 | 101° | 38km/h | 1284m | -13.5m/s | 21.4°C | 50.8% | 0hPa | 2.6V | 08:09:00 | 02:08:54 | 00:00:00 | |
| 9A1FER-3 | 2026-09-05 01:11:29 | 45.73342 | 16.80644 | 96° | 37km/h | 1297m | -14.8m/s | 21.4°C | 49.8% | 0hPa | 2.6V | 00:00:00 | 02:08:53 | 00:00:00 | |
| 9A1FER-10 | 2026-09-05 01:11:25 | 45.73345 | 16.80592 | 89° | 33km/h | 1356m | -15.1m/s | 22.2°C | 34.9% | 0hPa | 2.6V | 00:00:00 | 02:08:49 | 00:00:00 | |
| 9A1FER-3 | 2026-09-05 01:11:24 | 45.73345 | 16.80580 | 94° | 33km/h | 1371m | -15.2m/s | 22.3°C | 31.3% | 0hPa | 2.6V | 00:00:00 | 02:08:48 | 00:00:00 | |
| 9A1FER-10 | 2026-09-05 01:11:20 | 45.73342 | 16.80534 | 81° | 29km/h | 1427m | -14.7m/s | 21.8°C | 29.6% | 0hPa | 2.6V | 00:00:00 | 02:08:44 | 00:00:00 | |
| 9A1FER-3 | 2026-09-05 01:11:19 | 45.73342 | 16.80523 | 86° | 29km/h | 1442m | -14.8m/s | 21.7°C | 29.9% | 0hPa | 2.6V | 00:00:00 | 02:08:43 | 00:00:00 | |
| 9A1FER-10 | 2026-09-05 01:11:15 | 45.73337 | 16.80481 | 78° | 31km/h | 1499m | -14.4m/s | 21.5°C | 27.8% | 0hPa | 2.6V | 00:00:00 | 02:08:39 | 00:00:00 | |
| 9A1FER-3 | 2026-09-05 01:11:14 | 45.73336 | 16.80470 | 86° | 31km/h | 1513m | -14.7m/s | 21.3°C | 28.0% | 0hPa | 2.6V | 00:00:00 | 02:08:38 | 00:00:00 | |
| 9A1FER-10 | 2026-09-05 01:11:10 | 45.73332 | 16.80425 | 84° | 33km/h | 1570m | -14.4m/s | 20.8°C | 28.5% | 0hPa | 2.6V | 00:00:00 | 02:08:34 | 00:00:00 | |
| 9A1FER-3 | 2026-09-05 01:11:09 | 45.73330 | 16.80414 | 81° | 33km/h | 1584m | -15.0m/s | 20.7°C | 28.7% | 0hPa | 2.6V | 00:00:00 | 02:08:33 | 00:00:00 | |
| 9A1FER-10 | 2026-09-05 01:11:05 | 45.73325 | 16.80367 | 79° | 31km/h | 1641m | -15.2m/s | 20.2°C | 28.9% | 0hPa | 2.5V | 00:00:00 | 02:08:29 | 00:00:00 | |
| 9A1FER-3 | 2026-09-05 01:11:04 | 45.73324 | 16.80356 | 81° | 33km/h | 1655m | -14.4m/s | 20.2°C | 27.7% | 0hPa | 2.5V | 00:00:00 | 02:08:28 | 00:00:00 | |
| 9A1FER-10 | 2026-09-05 01:11:00 | 45.73319 | 16.80310 | 86° | 33km/h | 1712m | -14.8m/s | 20.2°C | 24.1% | 0hPa | 2.5V | 00:00:00 | 02:08:24 | 00:00:00 | |
| 9A1FER-3 | 2026-09-05 01:10:59 | 45.73318 | 16.80298 | 76° | 35km/h | 1726m | -15.2m/s | 20.1°C | 24.2% | 0hPa | 2.6V | 00:00:00 | 02:08:23 | 00:00:00 | |
| 9A1FER-10 | 2026-09-05 01:10:55 | 45.73313 | 16.80249 | 80° | 35km/h | 1782m | -13.4m/s | 19.9°C | 23.6% | 0hPa | 2.6V | 00:00:00 | 02:08:19 | 00:00:00 | |
| 9A1FER-3 | 2026-09-05 01:10:54 | 45.73312 | 16.80237 | 81° | 35km/h | 1796m | -15.0m/s | 19.8°C | 23.5% | 0hPa | 2.6V | 08:09:00 | 02:08:18 | 00:00:00 | |
| 9A1FER-10 | 2026-09-05 01:10:50 | 45.73306 | 16.80189 | 84° | 27km/h | 1851m | -14.4m/s | 19.9°C | 21.5% | 0hPa | 2.6V | 00:00:00 | 02:08:14 | 00:00:00 | |
| 9A1FER-3 | 2026-09-05 01:10:49 | 45.73305 | 16.80178 | 74° | 24km/h | 1865m | -15.3m/s | 20.1°C | 20.7% | 0hPa | 2.6V | 00:00:00 | 02:08:13 | 00:00:00 | |
| 9A1FER-10 | 2026-09-05 01:10:45 | 45.73299 | 16.80144 | 64° | 20km/h | 1921m | -15.5m/s | 20.4°C | 19.1% | 0hPa | 2.6V | 08:10:00 | 02:08:09 | 00:00:00 | |
| 9A1FER-3 | 2026-09-05 01:10:44 | 45.73297 | 16.80137 | 68° | 20km/h | 1935m | -13.8m/s | 20.4°C | 18.9% | 0hPa | 2.5V | 00:00:00 | 02:08:08 | 00:00:00 | |
| 9A1FER-10 | 2026-09-05 01:10:40 | 45.73288 | 16.80112 | 55° | 16km/h | 1990m | -14.7m/s | 20.1°C | 19.7% | 0hPa | 2.5V | 00:00:00 | 02:08:04 | 00:00:00 | |
| 9A1FER-3 | 2026-09-05 01:10:39 | 45.73286 | 16.80106 | 65° | 16km/h | 2004m | -14.2m/s | 20.0°C | 20.0% | 0hPa | 2.5V | 00:00:00 | 02:08:03 | 00:00:00 | |
| 9A1FER-10 | 2026-09-05 01:10:34 | 45.73274 | 16.80084 | 35° | 16km/h | 2075m | -15.4m/s | 19.6°C | 20.8% | 0hPa | 2.6V | 00:00:00 | 02:07:58 | 00:00:00 | |
| 9A1FER-3 | 2026-09-05 01:10:29 | 45.73259 | 16.80065 | 44° | 15km/h | 2146m | -14.9m/s | 19.1°C | 21.4% | 0hPa | 2.6V | 00:00:00 | 02:07:53 | 00:00:00 | |
| 9A1FER-10 | 2026-09-05 01:10:24 | 45.73245 | 16.80048 | 50° | 13km/h | 2220m | -14.4m/s | 18.4°C | 22.3% | 0hPa | 2.6V | 00:00:00 | 02:07:48 | 00:00:00 | |
| 9A1FER-3 | 2026-09-05 01:10:19 | 45.73232 | 16.80032 | 57° | 11km/h | 2291m | -14.8m/s | 17.8°C | 22.9% | 0hPa | 2.5V | 00:00:00 | 02:07:43 | 00:00:00 | |
| 9A1FER-10 | 2026-09-05 01:10:14 | 45.73225 | 16.80017 | 63° | 9km/h | 2362m | -14.3m/s | 17.2°C | 23.7% | 0hPa | 2.5V | 00:00:00 | 02:07:38 | 00:00:00 | |
| 9A1FER-3 | 2026-09-05 01:10:09 | 45.73218 | 16.80003 | 57° | 9km/h | 2433m | -14.4m/s | 16.5°C | 24.5% | 0hPa | 2.5V | 00:00:00 | 02:07:33 | 00:00:00 | |
| 9A1FER-10 | 2026-09-05 01:10:04 | 45.73214 | 16.79990 | 102° | 9km/h | 2502m | -14.0m/s | 16.0°C | 24.9% | 0hPa | 2.6V | 00:00:00 | 02:07:28 | 00:00:00 | |
| 9A1FER-3 | 2026-09-05 01:09:59 | 45.73215 | 16.79976 | 102° | 9km/h | 2571m | -14.5m/s | 15.5°C | 25.8% | 0hPa | 2.6V | 00:00:00 | 02:07:23 | 00:00:00 | |
| 9A1FER-10 | 2026-09-05 01:09:54 | 45.73217 | 16.79961 | 105° | 9km/h | 2641m | -14.5m/s | 14.9°C | 27.4% | 0hPa | 2.6V | 00:00:00 | 02:07:18 | 00:00:00 | |
| 9A1FER-3 | 2026-09-05 01:09:49 | 45.73222 | 16.79947 | 112° | 9km/h | 2712m | -14.4m/s | 14.3°C | 29.8% | 0hPa | 2.6V | 00:00:00 | 02:07:13 | 00:00:00 | |
| 9A1FER-10 | 2026-09-05 01:09:44 | 45.73228 | 16.79934 | 112° | 11km/h | 2783m | -14.0m/s | 13.6°C | 30.9% | 0hPa | 2.6V | 00:00:00 | 02:07:08 | 00:00:00 | |
| 9A1FER-3 | 2026-09-05 01:09:39 | 45.73234 | 16.79919 | 104° | 11km/h | 2854m | -14.7m/s | 12.9°C | 32.3% | 0hPa | 2.6V | 08:11:00 | 02:07:03 | 00:00:00 | |
| 9A1FER-10 | 2026-09-05 01:09:34 | 45.73241 | 16.79902 | 121° | 11km/h | 2927m | -14.4m/s | 12.3°C | 33.9% | 0hPa | 2.5V | 00:00:00 | 02:06:58 | 00:00:00 | |
| 9A1FER-3 | 2026-09-05 01:09:29 | 45.73249 | 16.79886 | 135° | 13km/h | 2997m | -13.9m/s | 11.6°C | 35.6% | 0hPa | 2.5V | 00:00:00 | 02:06:53 | 00:00:00 | |
| 9A1FER-10 | 2026-09-05 01:09:24 | 45.73259 | 16.79868 | 129° | 13km/h | 3068m | -14.6m/s | 11.0°C | 38.0% | 0hPa | 2.5V | 08:11:00 | 02:06:48 | 00:00:00 | |
| 9A1FER-3 | 2026-09-05 01:09:16 | 45.73268 | 16.79832 | 112° | 13km/h | 3182m | -15.0m/s | 10.0°C | 37.0% | 0hPa | 2.5V | 00:00:00 | 02:06:40 | 00:00:00 | |
| 9A1FER-10 | 2026-09-05 01:09:09 | 45.73276 | 16.79801 | 118° | 15km/h | 3282m | -15.1m/s | 9.1°C | 36.6% | 0hPa | 2.5V | 00:00:00 | 02:06:33 | 00:00:00 | |
| 9A1FER-3 | 2026-09-05 01:09:01 | 45.73285 | 16.79765 | 109° | 18km/h | 3396m | -14.6m/s | 8.0°C | 45.4% | 0hPa | 2.5V | 00:00:00 | 02:06:25 | 00:00:00 | |
| 9A1FER-10 | 2026-09-05 01:08:54 | 45.73293 | 16.79726 | 102° | 20km/h | 3493m | -15.1m/s | 7.2°C | 45.4% | 0hPa | 2.5V | 00:00:00 | 02:06:18 | 00:00:00 | |
| 9A1FER-3 | 2026-09-05 01:08:46 | 45.73301 | 16.79669 | 99° | 20km/h | 3604m | -14.0m/s | 6.5°C | 37.1% | 0hPa | 2.5V | 00:00:00 | 02:06:10 | 00:00:00 | |
| 9A1FER-10 | 2026-09-05 01:08:39 | 45.73310 | 16.79617 | 100° | 20km/h | 3703m | -14.1m/s | 5.9°C | 34.6% | 0hPa | 2.5V | 00:00:00 | 02:06:03 | 00:00:00 | |
| 9A1FER-3 | 2026-09-05 01:08:31 | 45.73322 | 16.79561 | 115° | 22km/h | 3816m | -14.4m/s | 5.2°C | 40.8% | 0hPa | 2.6V | 00:00:00 | 02:05:55 | 00:00:00 | |
| 9A1FER-10 | 2026-09-05 01:08:24 | 45.73332 | 16.79510 | 105° | 24km/h | 3915m | -14.7m/s | 4.5°C | 47.1% | 0hPa | 2.6V | 00:00:00 | 02:05:48 | 00:00:00 | |
| 9A1FER-3 | 2026-09-05 01:08:16 | 45.73339 | 16.79445 | 95° | 27km/h | 4030m | -14.4m/s | 3.4°C | 51.6% | 0hPa | 2.6V | 00:00:00 | 02:05:40 | 00:00:00 | |
| 9A1FER-10 | 2026-09-05 01:08:09 | 45.73347 | 16.79378 | 98° | 27km/h | 4129m | -14.6m/s | 2.5°C | 61.4% | 0hPa | 2.6V | 00:00:00 | 02:05:33 | 00:00:00 | |
| 9A1FER-3 | 2026-09-05 01:08:01 | 45.73358 | 16.79302 | 103° | 29km/h | 4246m | -15.6m/s | 1.4°C | 66.3% | 0hPa | 2.6V | 00:00:00 | 02:05:25 | 00:00:00 | |
| 9A1FER-10 | 2026-09-05 01:07:54 | 45.73368 | 16.79232 | 97° | 33km/h | 4347m | -15.1m/s | 0.5°C | 68.3% | 0hPa | 2.6V | 00:00:00 | 02:05:18 | 00:00:00 | |
| 9A1FER-3 | 2026-09-05 01:07:46 | 45.73377 | 16.79140 | 103° | 37km/h | 4467m | -15.4m/s | -0.2°C | 61.7% | 0hPa | 2.6V | 00:00:00 | 02:05:10 | 00:00:00 | |
| 9A1FER-10 | 2026-09-05 01:07:39 | 45.73388 | 16.79054 | 96° | 40km/h | 4570m | -15.7m/s | -1.0°C | 60.5% | 0hPa | 2.6V | 00:00:00 | 02:05:03 | 00:00:00 | |
| 9A1FER-3 | 2026-09-05 01:07:31 | 45.73397 | 16.78945 | 93° | 42km/h | 4691m | -14.7m/s | -1.4°C | 51.1% | 0hPa | 2.6V | 08:13:00 | 02:04:55 | 00:00:00 | |
| OM5KV | 2026-09-05 01:07:29 | 45.73398 | 16.78930 | 96° | 40km/h | 4705m | -15.3m/s | -1.6°C | 49.4% | 0hPa | 2.5V | 08:14:00 | 00:00:00 | 00:00:00 | |
| 9A1FER-10 | 2026-09-05 01:07:24 | 45.73402 | 16.78838 | 96° | 42km/h | 4795m | -15.0m/s | -2.0°C | 49.0% | 0hPa | 2.5V | 00:00:00 | 02:04:48 | 00:00:00 | |
| 9A1FER-3 | 2026-09-05 01:07:16 | 45.73410 | 16.78719 | 95° | 38km/h | 4916m | -16.0m/s | -3.0°C | 47.6% | 0hPa | 2.5V | 00:00:00 | 02:04:40 | 00:00:00 | |
| OM5KV | 2026-09-05 01:07:14 | 45.73411 | 16.78704 | 92° | 42km/h | 4932m | -16.4m/s | 0°C | 0% | 0hPa | 2.5V | 00:00:00 | 00:00:00 | 00:00:00 | |
| 9A1FER-10 | 2026-09-05 01:07:09 | 45.73416 | 16.78617 | 92° | 37km/h | 5022m | -16.7m/s | -4.0°C | 48.4% | 0hPa | 2.5V | 08:13:00 | 02:04:33 | 00:00:00 | |
| OM5KV | 2026-09-05 01:07:08 | 45.73415 | 16.78617 | 92° | 37km/h | 5022m | -16.7m/s | 0°C | 0% | 0hPa | 2.6V | 00:00:00 | 00:00:00 | 00:00:00 | |
| OM5KV | 2026-09-05 01:07:03 | 45.73417 | 16.78550 | 89° | 40km/h | 5100m | -16.2m/s | 0°C | 0% | 0hPa | 2.6V | 00:00:00 | 00:00:00 | 00:00:00 | |
| 9A1FER-3 | 2026-09-05 01:07:01 | 45.73418 | 16.78511 | 86° | 38km/h | 5146m | -16.5m/s | -4.9°C | 44.9% | 0hPa | 2.6V | 00:00:00 | 02:04:25 | 00:00:00 | |
| OM5KV | 2026-09-05 01:06:59 | 45.73417 | 16.78498 | 89° | 40km/h | 5161m | -15.8m/s | -5.1°C | 43.7% | 0hPa | 2.6V | 08:14:00 | 00:00:00 | 00:00:00 | |
| OM5KV | 2026-09-05 01:06:57 | 45.73418 | 16.78472 | 89° | 35km/h | 5192m | -16.9m/s | 0°C | 0% | 0hPa | 2.6V | 00:00:00 | 00:00:00 | 00:00:00 | |
| 9A1FER-10 | 2026-09-05 01:06:54 | 45.73419 | 16.78419 | 89° | 40km/h | 5255m | -16.1m/s | -5.9°C | 47.2% | 0hPa | 2.6V | 00:00:00 | 02:04:18 | 00:00:00 | |
| OM5KV | 2026-09-05 01:06:53 | 45.73419 | 16.78419 | 89° | 37km/h | 5255m | -16.1m/s | -5.9°C | 45.8% | 0hPa | 2.6V | 08:14:00 | 00:00:00 | 00:00:00 | |
| OM5KV | 2026-09-05 01:06:51 | 45.73420 | 16.78391 | 97° | 38km/h | 5286m | -16.2m/s | 0°C | 0% | 0hPa | 2.6V | 00:00:00 | 00:00:00 | 00:00:00 | |
| 9A1FER-3 | 2026-09-05 01:06:46 | 45.73425 | 16.78309 | 92° | 42km/h | 5379m | -15.9m/s | -6.9°C | 51.5% | 0hPa | 2.6V | 00:00:00 | 02:04:10 | 00:00:00 | |
| OM5KV | 2026-09-05 01:06:42 | 45.73428 | 16.78264 | 94° | 38km/h | 5425m | -17.4m/s | 0°C | 0% | 0hPa | 2.6V | 08:14:00 | 00:00:00 | 00:00:00 | |
| 9A1FER-10 | 2026-09-05 01:06:39 | 45.73430 | 16.78203 | 89° | 44km/h | 5488m | -17.2m/s | -7.2°C | 40.3% | 0hPa | 2.6V | 00:00:00 | 02:04:03 | 00:00:00 | |
| OM5KV | 2026-09-05 01:06:36 | 45.73431 | 16.78171 | 96° | 46km/h | 5519m | -15.2m/s | 0°C | 0% | 0hPa | 2.6V | 00:00:00 | 00:00:00 | 00:00:00 | |
| 9A1FER-3 | 2026-09-05 01:06:31 | 45.73433 | 16.78079 | 88° | 44km/h | 5615m | -17.0m/s | -8.0°C | 45.0% | 0hPa | 2.6V | 00:00:00 | 02:03:55 | 00:00:00 | |
| OM5KV | 2026-09-05 01:06:30 | 45.73433 | 16.78079 | 89° | 42km/h | 5615m | -17.0m/s | 0°C | 0% | 0hPa | 2.6V | 00:00:00 | 00:00:00 | 00:00:00 | |
| 9A1FER-10 | 2026-09-05 01:06:24 | 45.73433 | 16.77966 | 93° | 46km/h | 5721m | -15.7m/s | -8.8°C | 41.4% | 0hPa | 2.6V | 00:00:00 | 02:03:48 | 00:00:00 | |
| OM5KV | 2026-09-05 01:06:18 | 45.73434 | 16.77888 | 90° | 40km/h | 5798m | -16.2m/s | 0°C | 0% | 0hPa | 2.5V | 00:00:00 | 00:00:00 | 00:00:00 | |
| 9A1FER-3 | 2026-09-05 01:06:16 | 45.73434 | 16.77839 | 91° | 47km/h | 5844m | -15.5m/s | -9.8°C | 49.0% | 0hPa | 2.5V | 00:00:00 | 02:03:40 | 00:00:00 | |
| OM5KV | 2026-09-05 01:06:12 | 45.73434 | 16.77790 | 91° | 49km/h | 5891m | -16.0m/s | 0°C | 0% | 0hPa | 2.5V | 00:00:00 | 00:00:00 | 00:00:00 | |
| 9A1FER-10 | 2026-09-05 01:06:09 | 45.73436 | 16.77723 | 90° | 47km/h | 5954m | -16.3m/s | -10.4°C | 40.2% | 0hPa | 2.5V | 00:00:00 | 02:03:33 | 00:00:00 | |
| 9A1FER-3 | 2026-09-05 01:06:01 | 45.73440 | 16.77587 | 96° | 47km/h | 6076m | -15.6m/s | -11.3°C | 42.2% | 0hPa | 2.5V | 00:00:00 | 02:03:25 | 00:00:00 | |
| 9A1FER-10 | 2026-09-05 01:05:54 | 45.73444 | 16.77467 | 93° | 49km/h | 6180m | -16.1m/s | -12.0°C | 39.9% | 0hPa | 2.4V | 00:00:00 | 02:03:18 | 00:00:00 | |
| 9A1FER-3 | 2026-09-05 01:05:46 | 45.73451 | 16.77325 | 95° | 51km/h | 6305m | -15.8m/s | -12.7°C | 37.0% | 0hPa | 2.4V | 00:00:00 | 02:03:10 | 00:00:00 | |
| 9A1FER-10 | 2026-09-05 01:05:39 | 45.73457 | 16.77199 | 97° | 53km/h | 6411m | -16.0m/s | -13.6°C | 39.1% | 0hPa | 2.4V | 00:00:00 | 02:03:03 | 00:00:00 | |
| 9A1FER-3 | 2026-09-05 01:05:31 | 45.73470 | 16.77047 | 103° | 55km/h | 6536m | -17.4m/s | -14.2°C | 33.2% | 0hPa | 2.5V | 00:00:00 | 02:02:55 | 00:00:00 | |
| 9A1FER-10 | 2026-09-05 01:05:24 | 45.73489 | 16.76914 | 100° | 57km/h | 6652m | -17.0m/s | -15.0°C | 31.1% | 0hPa | 2.5V | 00:00:00 | 02:02:48 | 00:00:00 | |
| 9A1FER-3 | 2026-09-05 01:05:16 | 45.73509 | 16.76757 | 102° | 58km/h | 6778m | -16.6m/s | -15.8°C | 28.1% | 0hPa | 2.5V | 08:15:00 | 02:02:40 | 00:00:00 | |
| 9A1FER-10 | 2026-09-05 01:05:09 | 45.73532 | 16.76618 | 105° | 57km/h | 6890m | -16.0m/s | -16.6°C | 26.6% | 0hPa | 2.4V | 00:00:00 | 02:02:33 | 00:00:00 | |
| 9A1FER-3 | 2026-09-05 01:05:01 | 45.73565 | 16.76458 | 108° | 55km/h | 7015m | -16.0m/s | -17.2°C | 22.2% | 0hPa | 2.4V | 00:00:00 | 02:02:25 | 00:00:00 | |
| 9A1FER-10 | 2026-09-05 01:04:54 | 45.73589 | 16.76328 | 102° | 57km/h | 7125m | -16.8m/s | -18.1°C | 24.0% | 0hPa | 2.4V | 08:15:00 | 02:02:18 | 00:00:00 | |
| 9A1FER-3 | 2026-09-05 01:04:46 | 45.73615 | 16.76172 | 104° | 58km/h | 7255m | -16.1m/s | -18.4°C | 20.1% | 0hPa | 2.5V | 00:00:00 | 02:02:10 | 00:00:00 | |
| 9A1FER-10 | 2026-09-05 01:04:39 | 45.73637 | 16.76030 | 101° | 60km/h | 7368m | -17.3m/s | -18.9°C | 19.0% | 0hPa | 2.5V | 00:00:00 | 02:02:03 | 00:00:00 | |
| 9A1FER-3 | 2026-09-05 01:04:31 | 45.73667 | 16.75864 | 105° | 60km/h | 7501m | -17.2m/s | -20.0°C | 19.3% | 0hPa | 2.5V | 00:00:00 | 02:01:55 | 00:00:00 | |
| 9A1FER-10 | 2026-09-05 01:04:24 | 45.73696 | 16.75718 | 105° | 62km/h | 7620m | -17.5m/s | -21.0°C | 20.2% | 0hPa | 2.4V | 00:00:00 | 02:01:48 | 00:00:00 | |
| 9A1FER-3 | 2026-09-05 01:04:16 | 45.73730 | 16.75547 | 109° | 62km/h | 7752m | -16.7m/s | -22.2°C | 21.6% | 0hPa | 2.4V | 00:00:00 | 02:01:40 | 00:00:00 | |
| 9A1FER-10 | 2026-09-05 01:04:09 | 45.73762 | 16.75399 | 107° | 64km/h | 7870m | -17.6m/s | -23.3°C | 22.5% | 0hPa | 2.4V | 00:00:00 | 02:01:33 | 00:00:00 | |
| 9A1FER-3 | 2026-09-05 01:04:01 | 45.73795 | 16.75224 | 103° | 66km/h | 8006m | -16.9m/s | -24.1°C | 15.7% | 0hPa | 2.5V | 00:00:00 | 02:01:25 | 00:00:00 | |
| 9A1FER-10 | 2026-09-05 01:03:54 | 45.73819 | 16.75059 | 102° | 66km/h | 8124m | -17.2m/s | -24.8°C | 15.3% | 0hPa | 2.5V | 00:00:00 | 02:01:18 | 00:00:00 | |
| 9A1FER-3 | 2026-09-05 01:03:46 | 45.73842 | 16.74873 | 98° | 68km/h | 8262m | -18.4m/s | -25.6°C | 14.6% | 0hPa | 2.5V | 00:00:00 | 02:01:10 | 00:00:00 | |
| 9A1FER-10 | 2026-09-05 01:03:39 | 45.73858 | 16.74705 | 96° | 68km/h | 8388m | -17.3m/s | -26.6°C | 14.5% | 0hPa | 2.4V | 00:00:00 | 02:01:03 | 00:00:00 | |
| 9A1FER-3 | 2026-09-05 01:03:31 | 45.73875 | 16.74511 | 99° | 69km/h | 8527m | -17.9m/s | -27.5°C | 14.3% | 0hPa | 2.4V | 00:00:00 | 02:00:55 | 00:00:00 | |
| 9A1FER-10 | 2026-09-05 01:03:24 | 45.73891 | 16.74338 | 102° | 66km/h | 8648m | -16.8m/s | -28.5°C | 15.0% | 0hPa | 2.4V | 00:00:00 | 02:00:48 | 00:00:00 | |
| 9A1FER-3 | 2026-09-05 01:03:16 | 45.73913 | 16.74142 | 99° | 64km/h | 8789m | -17.8m/s | -29.2°C | 12.0% | 0hPa | 2.5V | 00:00:00 | 02:00:40 | 00:00:00 | |
| 9A1FER-10 | 2026-09-05 01:03:09 | 45.73930 | 16.73982 | 102° | 64km/h | 8913m | -17.1m/s | -29.5°C | 9.9% | 0hPa | 2.5V | 00:00:00 | 02:00:33 | 00:00:00 | |
| 9A1FER-3 | 2026-09-05 01:03:01 | 45.73957 | 16.73797 | 103° | 64km/h | 9053m | -17.2m/s | -30.5°C | 10.3% | 0hPa | 2.5V | 08:17:00 | 02:00:25 | 00:00:00 | |
| 9A1FER-10 | 2026-09-05 01:02:54 | 45.73979 | 16.73637 | 99° | 64km/h | 9176m | -17.1m/s | -31.5°C | 11.1% | 0hPa | 2.5V | 00:00:00 | 02:00:18 | 00:00:00 | |
| 9A1FER-3 | 2026-09-05 01:02:46 | 45.74000 | 16.73454 | 96° | 64km/h | 9315m | -18.3m/s | -32.7°C | 12.2% | 0hPa | 2.5V | 00:00:00 | 02:00:10 | 00:00:00 | |
| 9A1FER-10 | 2026-09-05 01:02:39 | 45.74018 | 16.73292 | 103° | 66km/h | 9438m | -18.0m/s | -33.7°C | 13.4% | 0hPa | 2.5V | 08:18:00 | 02:00:03 | 00:00:00 | |
| OE3JTB-15 | 2026-09-05 01:02:33 | 45.74036 | 16.73156 | 101° | 71km/h | 9543m | -17.4m/s | -34.6°C | 13.8% | 0hPa | 2.4V | 00:00:00 | 01:59:57 | 00:00:00 | |
| 9A1FER-3 | 2026-09-05 01:02:31 | 45.74044 | 16.73108 | 105° | 69km/h | 9577m | -17.2m/s | -35.0°C | 13.5% | 0hPa | 2.4V | 00:00:00 | 01:59:55 | 00:00:00 | |
| 9A1FER-10 | 2026-09-05 01:02:24 | 45.74079 | 16.72942 | 109° | 71km/h | 9696m | -17.8m/s | -35.3°C | 11.4% | 0hPa | 2.4V | 00:00:00 | 01:59:48 | 00:00:00 | |
| 9A1FER-3 | 2026-09-05 01:02:16 | 45.74123 | 16.72744 | 110° | 71km/h | 9839m | -18.0m/s | -36.6°C | 13.5% | 0hPa | 2.4V | 00:00:00 | 01:59:40 | 00:00:00 | |
| 9A1FER-10 | 2026-09-05 01:02:09 | 45.74168 | 16.72573 | 110° | 71km/h | 9961m | -18.5m/s | -37.7°C | 15.3% | 0hPa | 2.5V | 00:00:00 | 01:59:33 | 00:00:00 | |
| OE3JTB-15 | 2026-09-05 01:02:04 | 45.74195 | 16.72452 | 105° | 68km/h | 10051m | -17.7m/s | -38.5°C | 16.4% | 0hPa | 2.5V | 00:00:00 | 00:00:00 | 00:00:00 | |
| 9A1FER-3 | 2026-09-05 01:02:01 | 45.74208 | 16.72376 | 105° | 69km/h | 10104m | -17.4m/s | -38.9°C | 16.5% | 0hPa | 2.4V | 00:00:00 | 01:59:25 | 00:00:00 | |
| 9A1FER-10 | 2026-09-05 01:01:54 | 45.74239 | 16.72201 | 103° | 66km/h | 10223m | -17.5m/s | -39.8°C | 16.8% | 0hPa | 2.4V | 00:00:00 | 01:59:18 | 00:00:00 | |
| 9A1FER-3 | 2026-09-05 01:01:46 | 45.74268 | 16.72008 | 103° | 64km/h | 10360m | -16.7m/s | -40.9°C | 19.2% | 0hPa | 2.5V | 00:00:00 | 01:59:10 | 00:00:00 | |
| 9A1FER-10 | 2026-09-05 01:01:39 | 45.74295 | 16.71844 | 105° | 66km/h | 10479m | -17.5m/s | -42.0°C | 21.5% | 0hPa | 2.5V | 00:00:00 | 01:59:03 | 00:00:00 | |
| OE3JTB-15 | 2026-09-05 01:01:35 | 45.74311 | 16.71751 | 104° | 64km/h | 10546m | -16.6m/s | -42.6°C | 22.8% | 0hPa | 2.5V | 00:00:00 | 00:00:00 | 00:00:00 | |
| 9A1FER-3 | 2026-09-05 01:01:31 | 45.74329 | 16.71657 | 105° | 66km/h | 10614m | -17.4m/s | -43.3°C | 23.6% | 0hPa | 2.5V | 00:00:00 | 01:58:55 | 00:00:00 | |
| 9A1FER-10 | 2026-09-05 01:01:24 | 45.74360 | 16.71492 | 103° | 66km/h | 10733m | -17.5m/s | -44.4°C | 24.3% | 0hPa | 2.5V | 00:00:00 | 01:58:48 | 00:00:00 | |
| 9A1FER-3 | 2026-09-05 01:01:16 | 45.74388 | 16.71302 | 99° | 64km/h | 10870m | -17.3m/s | -45.3°C | 23.6% | 0hPa | 2.5V | 00:00:00 | 01:58:40 | 00:00:00 | |
| 9A1FER-10 | 2026-09-05 01:01:09 | 45.74406 | 16.71135 | 98° | 64km/h | 10992m | -17.7m/s | -45.9°C | 23.0% | 0hPa | 2.5V | 00:00:00 | 01:58:33 | 00:00:00 | |
| 9A1FER-3 | 2026-09-05 01:01:01 | 45.74423 | 16.70950 | 95° | 66km/h | 11134m | -18.4m/s | -47.0°C | 24.4% | 0hPa | 2.5V | 00:00:00 | 01:58:25 | 00:00:00 | |
| 9A1FER-10 | 2026-09-05 01:00:54 | 45.74433 | 16.70790 | 94° | 68km/h | 11264m | -18.6m/s | -48.1°C | 26.5% | 0hPa | 2.5V | 00:00:00 | 01:58:18 | 00:00:00 | |
| 9A1FER-3 | 2026-09-05 01:00:47 | 45.74446 | 16.70598 | 100° | 68km/h | 11409m | -17.9m/s | -49.3°C | 29.1% | 0hPa | 2.5V | 08:20:00 | 01:58:10 | 00:00:00 | |
| 9A1FER-10 | 2026-09-05 01:00:39 | 45.74469 | 16.70427 | 102° | 66km/h | 11533m | -18.4m/s | -50.4°C | 31.8% | 0hPa | 2.5V | 00:00:00 | 01:58:03 | 00:00:00 | |
| 9A1FER-3 | 2026-09-05 01:00:31 | 45.74496 | 16.70232 | 99° | 62km/h | 11677m | -18.5m/s | -51.7°C | 35.3% | 0hPa | 2.5V | 00:00:00 | 01:57:55 | 00:00:00 | |
| OE3JTB-15 | 2026-09-05 01:00:30 | 45.74499 | 16.70209 | 100° | 62km/h | 11695m | -18.4m/s | -51.9°C | 35.8% | 0hPa | 2.5V | 00:00:00 | 00:00:00 | 00:00:00 | |
| 9A1FER-10 | 2026-09-05 01:00:24 | 45.74512 | 16.70073 | 95° | 62km/h | 11806m | -19.4m/s | -53.0°C | 37.8% | 0hPa | 2.6V | 08:20:00 | 01:57:48 | 00:00:00 | |
| 9A1FER-3 | 2026-09-05 01:00:17 | 45.74517 | 16.69895 | 89° | 62km/h | 11962m | -18.8m/s | -54.4°C | 39.3% | 0hPa | 2.6V | 00:00:00 | 01:57:40 | 00:00:00 | |
| 9A1FER-10 | 2026-09-05 01:00:09 | 45.74512 | 16.69740 | 86° | 62km/h | 12092m | -19.0m/s | -55.2°C | 39.1% | 0hPa | 2.6V | 00:00:00 | 01:57:33 | 00:00:00 | |
| 9A1FER-3 | 2026-09-05 01:00:01 | 45.74502 | 16.69559 | 87° | 66km/h | 12244m | -19.0m/s | -56.2°C | 39.1% | 0hPa | 2.6V | 00:00:00 | 01:57:25 | 00:00:00 | |
| 9A1FER-10 | 2026-09-05 00:59:54 | 45.74499 | 16.69399 | 89° | 69km/h | 12377m | -19.4m/s | -57.0°C | 38.9% | 0hPa | 2.5V | 00:00:00 | 01:57:18 | 00:00:00 | |
| 9A1FER-3 | 2026-09-05 00:59:46 | 45.74509 | 16.69197 | 99° | 71km/h | 12531m | -19.6m/s | -58.0°C | 38.4% | 0hPa | 2.5V | 00:00:00 | 01:57:10 | 00:00:00 | |
| 9A1FER-10 | 2026-09-05 00:59:39 | 45.74529 | 16.69018 | 98° | 71km/h | 12667m | -20.4m/s | -59.2°C | 38.4% | 0hPa | 2.5V | 00:00:00 | 01:57:03 | 00:00:00 | |
| 9A1FER-3 | 2026-09-05 00:59:31 | 45.74546 | 16.68821 | 97° | 75km/h | 12830m | -19.9m/s | -60.4°C | 37.1% | 0hPa | 2.5V | 00:00:00 | 01:56:55 | 00:00:00 | |
| 9A1FER-10 | 2026-09-05 00:59:24 | 45.74566 | 16.68637 | 102° | 73km/h | 12970m | -20.1m/s | -61.4°C | 35.4% | 0hPa | 2.5V | 00:00:00 | 01:56:48 | 00:00:00 | |
| 9A1FER-3 | 2026-09-05 00:59:16 | 45.74600 | 16.68425 | 104° | 73km/h | 13131m | -20.8m/s | -62.7°C | 32.9% | 0hPa | 2.5V | 00:00:00 | 01:56:40 | 00:00:00 | |
| 9A1FER-10 | 2026-09-05 00:59:09 | 45.74631 | 16.68247 | 104° | 73km/h | 13277m | -21.1m/s | -63.8°C | 30.5% | 0hPa | 2.5V | 00:00:00 | 01:56:33 | 00:00:00 | |
| OE3JTB-15 | 2026-09-05 00:59:02 | 45.74659 | 16.68068 | 101° | 71km/h | 13426m | -20.5m/s | -65.1°C | 29.0% | 0hPa | 2.5V | 00:00:00 | 00:00:00 | 08:30:00 | |
| 9A1FER-3 | 2026-09-05 00:59:01 | 45.74662 | 16.68042 | 101° | 69km/h | 13447m | -20.0m/s | -65.3°C | 28.8% | 0hPa | 2.4V | 00:00:00 | 01:56:25 | 00:00:00 | |
| PETON7-10 | 2026-09-05 00:58:55 | 45.74678 | 16.67889 | 98° | 69km/h | 13568m | -21.0m/s | -66.3°C | 27.3% | 0hPa | 2.4V | 00:00:00 | 01:56:19 | 00:00:00 | |
| 9A1FER-10 | 2026-09-05 00:58:54 | 45.74680 | 16.67864 | 97° | 69km/h | 13589m | -21.4m/s | -66.5°C | 27.0% | 0hPa | 2.4V | 00:00:00 | 01:56:18 | 00:00:00 | |
| 9A1FER-3 | 2026-09-05 00:58:46 | 45.74695 | 16.67670 | 97° | 71km/h | 13763m | -22.5m/s | -66.6°C | 23.0% | 0hPa | 2.5V | 00:00:00 | 01:56:10 | 00:00:00 | |
| 9A1FER-10 | 2026-09-05 00:58:39 | 45.74709 | 16.67495 | 99° | 68km/h | 13920m | -21.9m/s | -67.0°C | 21.5% | 0hPa | 2.5V | 00:00:00 | 01:56:03 | 00:00:00 | |
| PETON7-10 | 2026-09-05 00:58:37 | 45.74716 | 16.67443 | 103° | 62km/h | 13964m | -21.7m/s | -67.1°C | 20.8% | 0hPa | 2.5V | 00:00:00 | 00:00:00 | 00:00:00 | |
| OE3JTB-15 | 2026-09-05 00:58:33 | 45.74732 | 16.67341 | 104° | 62km/h | 14051m | -22.5m/s | -66.9°C | 18.8% | 0hPa | 2.5V | 00:00:00 | 00:00:00 | 00:00:00 | |
| 9A1FER-3 | 2026-09-05 00:58:31 | 45.74741 | 16.67292 | 105° | 60km/h | 14096m | -22.9m/s | -66.8°C | 18.3% | 0hPa | 2.5V | 08:22:00 | 01:55:55 | 00:00:00 | |
| 9A1FER-10 | 2026-09-05 00:58:24 | 45.74770 | 16.67142 | 100° | 60km/h | 14255m | -23.4m/s | -65.2°C | 14.5% | 0hPa | 2.6V | 00:00:00 | 01:55:48 | 00:00:00 | |
| 9A1FER-3 | 2026-09-05 00:58:16 | 45.74776 | 16.66974 | 88° | 60km/h | 14436m | -23.5m/s | -63.9°C | 11.9% | 0hPa | 2.6V | 00:00:00 | 01:55:40 | 00:00:00 | |
| OE5DRO-10 | 2026-09-05 00:58:14 | 45.74775 | 16.66930 | 90° | 60km/h | 14483m | -23.6m/s | -64.0°C | 11.7% | 0hPa | 2.6V | 00:00:00 | 00:00:00 | 00:00:00 | |
| PETON7-10 | 2026-09-05 00:58:11 | 45.74776 | 16.66864 | 92° | 58km/h | 14554m | -24.0m/s | -64.0°C | 11.2% | 0hPa | 2.6V | 00:00:00 | 00:00:00 | 00:00:00 | |
| 9A1FER-10 | 2026-09-05 00:58:09 | 45.74777 | 16.66819 | 94° | 58km/h | 14602m | -24.2m/s | -63.7°C | 10.9% | 0hPa | 2.6V | 08:22:00 | 01:55:33 | 00:00:00 | |
| 9A1FER-3 | 2026-09-05 00:58:01 | 45.74789 | 16.66650 | 98° | 57km/h | 14789m | -22.9m/s | -62.9°C | 9.3% | 0hPa | 2.5V | 00:00:00 | 01:55:25 | 00:00:00 | |
| OE3JTB-15 | 2026-09-05 00:57:58 | 45.74793 | 16.66589 | 98° | 51km/h | 14861m | -23.5m/s | -62.5°C | 8.6% | 0hPa | 2.5V | 00:00:00 | 01:55:22 | 00:00:00 | |
| OE5DRO-10 | 2026-09-05 00:57:55 | 45.74800 | 16.66529 | 98° | 51km/h | 14932m | -23.8m/s | -62.4°C | 8.2% | 0hPa | 2.5V | 00:00:00 | 00:00:00 | 00:00:00 | |
| 9A1FER-10 | 2026-09-05 00:57:54 | 45.74802 | 16.66508 | 98° | 51km/h | 14955m | -23.7m/s | -62.3°C | 8.1% | 0hPa | 2.5V | 00:00:00 | 01:55:18 | 00:00:00 | |
| PETON7-10 | 2026-09-05 00:57:50 | 45.74811 | 16.66425 | 101° | 47km/h | 15048m | -24.1m/s | -62.4°C | 8.0% | 0hPa | 2.5V | 00:00:00 | 01:55:14 | 00:00:00 | |
| 9A1FER-3 | 2026-09-05 00:57:46 | 45.74823 | 16.66350 | 105° | 47km/h | 15142m | -24.0m/s | -62.0°C | 7.5% | 0hPa | 2.5V | 00:00:00 | 01:55:10 | 00:00:00 | |
| 9A1FER-10 | 2026-09-05 00:57:39 | 45.74843 | 16.66235 | 100° | 51km/h | 15311m | -25.5m/s | -61.9°C | 7.3% | 0hPa | 2.5V | 00:00:00 | 01:55:03 | 00:00:00 | |
| OE5DRO-10 | 2026-09-05 00:57:36 | 45.74850 | 16.66188 | 98° | 55km/h | 15385m | -25.1m/s | -62.0°C | 7.4% | 0hPa | 2.5V | 00:00:00 | 00:00:00 | 00:00:00 | |
| PETON7-10 | 2026-09-05 00:57:35 | 45.74851 | 16.66170 | 99° | 55km/h | 15410m | -24.3m/s | -62.1°C | 7.5% | 0hPa | 2.5V | 08:23:00 | 00:00:00 | 00:00:00 | |
| 9A1FER-3 | 2026-09-05 00:57:31 | 45.74860 | 16.66095 | 98° | 55km/h | 15508m | -25.5m/s | -62.4°C | 7.7% | 0hPa | 2.5V | 00:00:00 | 01:54:55 | 00:00:00 | |
| OE3JTB-15 | 2026-09-05 00:57:29 | 45.74864 | 16.66057 | 99° | 42km/h | 15558m | -25.7m/s | -62.3°C | 7.5% | 0hPa | 2.5V | 00:00:00 | 00:00:00 | 00:00:00 | |
| 9A1FER-10 | 2026-09-05 00:57:24 | 45.74876 | 16.65958 | 102° | 49km/h | 15684m | -25.7m/s | -62.4°C | 7.5% | 0hPa | 2.5V | 00:00:00 | 01:54:48 | 00:00:00 | |
| PETON7-10 | 2026-09-05 00:57:20 | 45.74889 | 16.65882 | 109° | 42km/h | 15785m | -24.4m/s | -60.8°C | 6.4% | 0hPa | 2.5V | 00:00:00 | 00:00:00 | 00:00:00 | |
| 9A1FER-3 | 2026-09-05 00:57:17 | 45.74908 | 16.65810 | 116° | 33km/h | 15886m | -24.7m/s | -60.4°C | 6.1% | 0hPa | 2.5V | 00:00:00 | 01:54:40 | 00:00:00 | |
| 9A1FER-10 | 2026-09-05 00:57:09 | 45.74941 | 16.65718 | 122° | 24km/h | 16061m | -24.9m/s | -58.8°C | 5.3% | 0hPa | 2.5V | 00:00:00 | 01:54:33 | 00:00:00 | |
| PETON7-10 | 2026-09-05 00:57:05 | 45.74955 | 16.65681 | 115° | 24km/h | 16161m | -26.0m/s | -59.3°C | 5.5% | 0hPa | 2.5V | 00:00:00 | 01:54:29 | 00:00:00 | |
| 9A1FER-3 | 2026-09-05 00:57:01 | 45.74962 | 16.65649 | 100° | 29km/h | 16264m | -25.7m/s | -60.0°C | 5.6% | 0hPa | 2.5V | 00:00:00 | 01:54:25 | 00:00:00 | |
| OE3JTB-15 | 2026-09-05 00:57:00 | 45.74963 | 16.65641 | 99° | 22km/h | 16289m | -25.6m/s | -60.2°C | 5.7% | 0hPa | 2.6V | 00:00:00 | 00:00:00 | 00:00:00 | |
| OE5DRO-10 | 2026-09-05 00:56:58 | 45.74964 | 16.65625 | 94° | 33km/h | 16340m | -26.6m/s | -60.6°C | 5.9% | 0hPa | 2.6V | 00:00:00 | 00:00:00 | 00:00:00 | |
| 9A1FER-10 | 2026-09-05 00:56:54 | 45.74962 | 16.65588 | 77° | 35km/h | 16444m | -26.4m/s | -59.6°C | 5.4% | 0hPa | 2.6V | 00:00:00 | 01:54:18 | 00:00:00 | |
| PETON7-10 | 2026-09-05 00:56:50 | 45.74956 | 16.65542 | 76° | 35km/h | 16548m | -26.9m/s | -59.3°C | 5.2% | 0hPa | 2.6V | 00:00:00 | 00:00:00 | 00:00:00 | |
| 9A1FER-3 | 2026-09-05 00:56:46 | 45.74951 | 16.65494 | 87° | 35km/h | 16656m | -26.2m/s | -59.7°C | 5.3% | 0hPa | 2.6V | 00:00:00 | 01:54:10 | 00:00:00 | |
| 9A1FER-10 | 2026-09-05 00:56:39 | 45.74960 | 16.65410 | 103° | 37km/h | 16841m | -26.9m/s | -60.4°C | 5.6% | 0hPa | 2.6V | 00:00:00 | 01:54:03 | 00:00:00 | |
| PETON7-10 | 2026-09-05 00:56:35 | 45.74969 | 16.65364 | 105° | 38km/h | 16948m | -26.7m/s | -60.6°C | 6.0% | 0hPa | 2.5V | 00:00:00 | 00:00:00 | 00:00:00 | |
| 9A1FER-3 | 2026-09-05 00:56:31 | 45.74975 | 16.65313 | 96° | 42km/h | 17057m | -27.9m/s | -60.4°C | 5.9% | 0hPa | 2.5V | 00:00:00 | 01:53:55 | 00:00:00 | |
| 9A1FER-10 | 2026-09-05 00:56:24 | 45.74983 | 16.65214 | 96° | 38km/h | 17252m | -28.1m/s | -60.4°C | 6.0% | 0hPa | 2.5V | 00:00:00 | 01:53:48 | 00:00:00 | |
| PETON7-10 | 2026-09-05 00:56:20 | 45.74989 | 16.65151 | 98° | 38km/h | 17362m | -28.6m/s | -59.6°C | 5.7% | 0hPa | 2.5V | 00:00:00 | 01:53:44 | 00:00:00 | |
| 9A1FER-3 | 2026-09-05 00:56:16 | 45.74998 | 16.65090 | 106° | 31km/h | 17473m | -28.2m/s | -58.6°C | 5.3% | 0hPa | 2.5V | 08:24:00 | 01:53:40 | 00:00:00 | |
| 9A1FER-10 | 2026-09-05 00:56:09 | 45.75013 | 16.65009 | 98° | 27km/h | 17671m | -28.4m/s | -57.3°C | 4.6% | 0hPa | 2.5V | 00:00:00 | 01:53:33 | 00:00:00 | |
| PETON7-10 | 2026-09-05 00:56:05 | 45.75015 | 16.64968 | 90° | 31km/h | 17781m | -27.5m/s | -57.3°C | 4.6% | 0hPa | 2.5V | 00:00:00 | 00:00:00 | 00:00:00 | |
| 9A1FER-3 | 2026-09-05 00:56:01 | 45.75015 | 16.64924 | 89° | 24km/h | 17887m | -26.2m/s | -56.8°C | 4.3% | 0hPa | 2.5V | 00:00:00 | 01:53:25 | 00:00:00 | |
| 9A1FER-10 | 2026-09-05 00:55:54 | 45.75012 | 16.64862 | 68° | 22km/h | 18066m | -26.1m/s | -56.5°C | 4.1% | 0hPa | 2.5V | 08:24:00 | 01:53:18 | 00:00:00 | |
| PG1ADW-2 | 2026-09-05 00:55:52 | 45.75007 | 16.64850 | 54° | 33km/h | 18118m | -26.3m/s | -56.8°C | 4.2% | 0hPa | 2.5V | 08:24:00 | 00:00:00 | 00:00:00 | |
| 9A1FER-3 | 2026-09-05 00:55:46 | 45.74987 | 16.64818 | 42° | 33km/h | 18277m | -27.1m/s | -57.3°C | 4.4% | 0hPa | 2.6V | 00:00:00 | 01:53:10 | 00:00:00 | |
| OE5DXL-15 | 2026-09-05 00:55:42 | 45.74965 | 16.64792 | 41° | 37km/h | 18385m | -26.1m/s | -58.2°C | 4.8% | 0hPa | 2.6V | 00:00:00 | 00:00:00 | 00:00:00 | |
| 9A1FER-10 | 2026-09-05 00:55:39 | 45.74949 | 16.64766 | 58° | 35km/h | 18464m | -25.7m/s | -58.6°C | 5.0% | 0hPa | 2.6V | 00:00:00 | 01:53:03 | 00:00:00 | |
| PETON7-10 | 2026-09-05 00:55:37 | 45.74940 | 16.64743 | 62° | 18km/h | 18515m | -26.1m/s | -58.5°C | 4.9% | 0hPa | 2.6V | 00:00:00 | 00:00:00 | 00:00:00 | |
| 9A1FER-3 | 2026-09-05 00:55:31 | 45.74923 | 16.64667 | 84° | 35km/h | 18674m | -26.7m/s | -58.5°C | 4.9% | 0hPa | 2.6V | 00:00:00 | 01:52:55 | 00:00:00 | |
| PG1ADW-2 | 2026-09-05 00:55:24 | 45.74923 | 16.64582 | 90° | 37km/h | 18864m | -28.2m/s | -58.4°C | 5.0% | 0hPa | 2.5V | 00:00:00 | 00:00:00 | 00:00:00 | |
| OE5DRO-10 | 2026-09-05 00:55:23 | 45.74923 | 16.64571 | 90° | 37km/h | 18892m | -28.8m/s | -58.1°C | 4.9% | 0hPa | 2.5V | 00:00:00 | 00:00:00 | 00:00:00 | |
| 9A1FER-10 | 2026-09-05 00:55:17 | 45.74921 | 16.64494 | 92° | 38km/h | 19070m | -28.9m/s | -57.4°C | 4.7% | 0hPa | 2.5V | 00:00:00 | 01:52:41 | 00:00:00 | |
| 9A1FER-3 | 2026-09-05 00:55:16 | 45.74921 | 16.64481 | 96° | 38km/h | 19098m | -28.6m/s | -57.4°C | 4.7% | 0hPa | 2.5V | 00:00:00 | 01:52:40 | 00:00:00 | |
| OE5DXL-15 | 2026-09-05 00:55:10 | 45.74932 | 16.64398 | 101° | 24km/h | 19271m | -29.8m/s | -57.7°C | 4.9% | 0hPa | 2.5V | 00:00:00 | 00:00:00 | 00:00:00 | |
| PG1ADW-2 | 2026-09-05 00:55:04 | 45.74948 | 16.64322 | 112° | 18km/h | 19445m | -28.4m/s | -57.7°C | 5.0% | 0hPa | 2.6V | 00:00:00 | 00:00:00 | 00:00:00 | |
| 9A1FER-10 | 2026-09-05 00:55:02 | 45.74956 | 16.64297 | 113° | 20km/h | 19502m | -29.4m/s | -57.6°C | 4.9% | 0hPa | 2.6V | 00:00:00 | 01:52:26 | 00:00:00 | |
| 9A1FER-3 | 2026-09-05 00:55:01 | 45.74959 | 16.64286 | 115° | 18km/h | 19531m | -29.4m/s | -57.5°C | 5.0% | 0hPa | 2.5V | 00:00:00 | 01:52:25 | 00:00:00 | |
| 9A1FER-10 | 2026-09-05 00:54:47 | 45.74994 | 16.64206 | 136° | 11km/h | 19949m | -30.6m/s | -55.3°C | 4.0% | 0hPa | 2.5V | 00:00:00 | 01:52:11 | 00:00:00 | |
| 9A1FER-3 | 2026-09-05 00:54:46 | 45.74996 | 16.64203 | 129° | 11km/h | 19980m | -30.7m/s | -55.6°C | 4.1% | 0hPa | 2.5V | 00:00:00 | 01:52:10 | 00:00:00 | |
| OE5DRO-10 | 2026-09-05 00:54:45 | 45.74998 | 16.64199 | 127° | 11km/h | 20011m | -30.6m/s | -55.8°C | 4.2% | 0hPa | 2.5V | 00:00:00 | 00:00:00 | 00:00:00 | |
| PG1ADW-2 | 2026-09-05 00:54:42 | 45.75004 | 16.64189 | 127° | 13km/h | 20103m | -31.6m/s | -56.2°C | 4.3% | 0hPa | 2.5V | 00:00:00 | 01:52:06 | 00:00:00 | |
| OE5DXL-15 | 2026-09-05 00:54:40 | 45.75007 | 16.64184 | 128° | 16km/h | 20166m | -31.1m/s | -56.1°C | 4.3% | 0hPa | 2.5V | 00:00:00 | 00:00:00 | 00:00:00 | |
| 9A1FER-10 | 2026-09-05 00:54:32 | 45.75008 | 16.64159 | 69° | 18km/h | 20416m | -33.0m/s | -55.2°C | 3.9% | 0hPa | 2.5V | 00:00:00 | 01:51:56 | 00:00:00 | |
| 9A1FER-3 | 2026-09-05 00:54:31 | 45.75006 | 16.64154 | 65° | 18km/h | 20448m | -32.9m/s | -55.2°C | 3.9% | 0hPa | 2.5V | 00:00:00 | 01:51:55 | 00:00:00 | |
| OE5DRO-10 | 2026-09-05 00:54:26 | 45.74998 | 16.64129 | 71° | 20km/h | 20612m | -32.4m/s | -56.4°C | 4.3% | 0hPa | 2.5V | 00:00:00 | 00:00:00 | 00:00:00 | |
| PG1ADW-2 | 2026-09-05 00:54:22 | 45.74991 | 16.64101 | 78° | 18km/h | 20747m | -36.5m/s | -56.3°C | 4.3% | 0hPa | 2.5V | 00:00:00 | 00:00:00 | 00:00:00 | |
| 9A1FER-10 | 2026-09-05 00:54:17 | 45.74993 | 16.64066 | 115° | 18km/h | 20931m | -35.3m/s | -56.8°C | 4.6% | 0hPa | 2.5V | 00:00:00 | 01:51:41 | 00:00:00 | |
| 9A1FER-3 | 2026-09-05 00:54:16 | 45.74995 | 16.64058 | 113° | 18km/h | 20967m | -35.9m/s | -57.0°C | 4.7% | 0hPa | 2.5V | 00:00:00 | 01:51:40 | 00:00:00 | |
| OE5DXL-15 | 2026-09-05 00:54:10 | 45.75013 | 16.64020 | 140° | 13km/h | 21183m | -35.7m/s | -57.1°C | 4.9% | 0hPa | 2.5V | 00:00:00 | 00:00:00 | 00:00:00 | |
| OE5DRO-10 | 2026-09-05 00:54:07 | 45.75023 | 16.64008 | 148° | 11km/h | 21288m | -34.9m/s | -57.2°C | 5.0% | 0hPa | 2.5V | 00:00:00 | 00:00:00 | 00:00:00 | |
| PG1ADW-2 | 2026-09-05 00:54:02 | 45.75040 | 16.64001 | 182° | 11km/h | 21455m | -32.1m/s | -56.0°C | 4.6% | 0hPa | 2.5V | 00:00:00 | 00:00:00 | 00:00:00 | |
| 9A1FER-3 | 2026-09-05 00:54:01 | 45.75042 | 16.64001 | 178° | 9km/h | 21487m | -32.3m/s | -55.6°C | 4.5% | 0hPa | 2.5V | 08:26:00 | 01:51:25 | 00:00:00 | |
| PETON7-10 | 2026-09-05 00:53:56 | 45.75049 | 16.64007 | 226° | 15km/h | 21648m | -32.1m/s | -54.4°C | 4.0% | 0hPa | 2.5V | 00:00:00 | 01:51:20 | 00:00:00 | |
| OE5DRO-10 | 2026-09-05 00:53:48 | 45.75063 | 16.64031 | 247° | 18km/h | 21911m | -34.3m/s | -53.9°C | 3.8% | 0hPa | 2.5V | 00:00:00 | 00:00:00 | 00:00:00 | |
| 9A1FER-3 | 2026-09-05 00:53:46 | 45.75066 | 16.64043 | 251° | 18km/h | 21978m | -34.2m/s | -53.7°C | 3.7% | 0hPa | 2.5V | 00:00:00 | 01:51:10 | 00:00:00 | |
| PG1ADW-2 | 2026-09-05 00:53:42 | 45.75066 | 16.64070 | 282° | 18km/h | 22113m | -33.5m/s | -54.0°C | 3.9% | 0hPa | 2.5V | 00:00:00 | 00:00:00 | 00:00:00 | |
| PETON7-10 | 2026-09-05 00:53:41 | 45.75064 | 16.64077 | 288° | 18km/h | 22146m | -33.4m/s | -54.1°C | 4.0% | 0hPa | 2.5V | 08:27:00 | 00:00:00 | 00:00:00 | |
| OE5DXL-15 | 2026-09-05 00:53:40 | 45.75063 | 16.64083 | 303° | 20km/h | 22180m | -33.6m/s | -54.1°C | 4.0% | 0hPa | 2.6V | 00:00:00 | 00:00:00 | 00:00:00 | |
| 9A1FER-10 | 2026-09-05 00:53:31 | 45.75029 | 16.64113 | 344° | 22km/h | 22483m | -33.8m/s | -54.6°C | 4.1% | 0hPa | 2.5V | 08:27:00 | 01:50:55 | 00:00:00 | |
| OE5DRO-10 | 2026-09-05 00:53:29 | 45.75021 | 16.64115 | 355° | 20km/h | 22551m | -35.2m/s | -54.1°C | 4.0% | 0hPa | 2.5V | 00:00:00 | 00:00:00 | 00:00:00 | |
| PG1ADW-2 | 2026-09-05 00:53:22 | 45.74985 | 16.64104 | 31° | 15km/h | 22796m | -34.3m/s | -53.5°C | 3.8% | 0hPa | 2.5V | 00:00:00 | 01:50:46 | 00:00:00 | |
| 9A1FER-3 | 2026-09-05 00:53:16 | 45.74962 | 16.64069 | 64° | 9km/h | 23000m | -33.9m/s | -54.1°C | 4.1% | 0hPa | 2.5V | 00:00:00 | 01:50:40 | 00:00:00 | |
| PETON7-10 | 2026-09-05 00:53:11 | 45.74958 | 16.64044 | 120° | 5km/h | 23171m | -34.6m/s | -53.9°C | 4.0% | 0hPa | 2.5V | 00:00:00 | 01:50:35 | 00:00:00 | |
| OE5DXL-15 | 2026-09-05 00:53:10 | 45.74960 | 16.64042 | 128° | 5km/h | 23205m | -33.9m/s | -53.8°C | 4.0% | 0hPa | 2.5V | 00:00:00 | 00:00:00 | 00:00:00 | |
| PG1ADW-2 | 2026-09-05 00:53:02 | 45.74970 | 16.64036 | 134° | 5km/h | 23487m | -37.5m/s | -53.5°C | 4.0% | 0hPa | 2.5V | 00:00:00 | 00:00:00 | 00:00:00 | |
| 9A1FER-3 | 2026-09-05 00:53:01 | 45.74971 | 16.64035 | 140° | 5km/h | 23524m | -37.4m/s | -53.0°C | 3.8% | 0hPa | 2.5V | 00:00:00 | 01:50:25 | 00:00:00 | |
| 9A1FER-10 | 2026-09-05 00:53:00 | 45.74972 | 16.64034 | 182° | 5km/h | 23561m | -37.5m/s | -52.8°C | 3.7% | 0hPa | 2.5V | 00:00:00 | 01:50:24 | 00:00:00 | |
| PETON7-10 | 2026-09-05 00:52:56 | 45.74973 | 16.64030 | 51° | 5km/h | 23709m | -37.8m/s | -52.7°C | 3.7% | 0hPa | 2.5V | 00:00:00 | 00:00:00 | 00:00:00 | |
| OE5DRO-10 | 2026-09-05 00:52:51 | 45.74968 | 16.64021 | 30° | 7km/h | 23896m | -39.0m/s | -52.7°C | 3.8% | 0hPa | 2.6V | 00:00:00 | 00:00:00 | 00:00:00 | |
| 9A1FER-3 | 2026-09-05 00:52:46 | 45.74961 | 16.64017 | 4° | 9km/h | 24089m | -38.9m/s | -52.3°C | 3.7% | 0hPa | 2.6V | 00:00:00 | 01:50:10 | 00:00:00 | |
| 9A1FER-10 | 2026-09-05 00:52:45 | 45.74960 | 16.64017 | 349° | 11km/h | 24127m | -39.9m/s | -52.2°C | 3.7% | 0hPa | 2.6V | 00:00:00 | 01:50:09 | 00:00:00 | |
| PG1ADW-2 | 2026-09-05 00:52:42 | 45.74956 | 16.64020 | 326° | 13km/h | 24253m | -42.9m/s | -52.3°C | 3.7% | 0hPa | 2.5V | 08:28:00 | 00:00:00 | 00:00:00 | |
| OE5DXL-15 | 2026-09-05 00:52:40 | 45.74952 | 16.64023 | 326° | 15km/h | 24337m | -41.0m/s | -52.3°C | 3.7% | 0hPa | 2.5V | 00:00:00 | 00:00:00 | 00:00:00 | |
| OE8JPQ-2 | 2026-09-05 00:52:33 | 45.74933 | 16.64012 | 56° | 16km/h | 24642m | -36.4m/s | -52.1°C | 3.7% | 0hPa | 2.5V | 00:00:00 | 00:00:00 | 00:00:00 | |
| 9A1FER-3 | 2026-09-05 00:52:31 | 45.74931 | 16.64007 | 56° | 15km/h | 24678m | -36.6m/s | -52.0°C | 3.7% | 0hPa | 2.5V | 00:00:00 | 01:49:55 | 00:00:00 | |
| 9A1FER-10 | 2026-09-05 00:52:29 | 45.74927 | 16.63996 | 74° | 16km/h | 24751m | -35.5m/s | 0°C | 0% | 0hPa | 2.5V | 00:00:00 | 01:49:53 | 00:00:00 | |
| PETON7-10 | 2026-09-05 00:52:25 | 45.74925 | 16.63972 | 100° | 15km/h | 24892m | -34.9m/s | -51.1°C | 3.6% | 0hPa | 2.5V | 00:00:00 | 01:49:49 | 00:00:00 | |
| PG1ADW-2 | 2026-09-05 00:52:22 | 45.74925 | 16.63958 | 93° | 15km/h | 24999m | -35.6m/s | -50.8°C | 3.6% | 0hPa | 2.5V | 00:00:00 | 00:00:00 | 00:00:00 | |
| 9A1FER-3 | 2026-09-05 00:52:16 | 45.74920 | 16.63932 | 84° | 15km/h | 25219m | -39.5m/s | -50.8°C | 3.7% | 0hPa | 2.5V | 00:00:00 | 01:49:40 | 00:00:00 | |
| 9A1FER-10 | 2026-09-05 00:52:14 | 45.74920 | 16.63920 | 85° | 15km/h | 25304m | -43.6m/s | -50.7°C | 3.7% | 0hPa | 2.5V | 00:00:00 | 01:49:38 | 00:00:00 | |
| OE5DRO-10 | 2026-09-05 00:52:13 | 45.74920 | 16.63913 | 94° | 15km/h | 25347m | -44.6m/s | -50.5°C | 3.6% | 0hPa | 2.5V | 00:00:00 | 00:00:00 | 00:00:00 | |
| OE8JPQ-2 | 2026-09-05 00:52:10 | 45.74921 | 16.63893 | 92° | 13km/h | 25488m | -49.9m/s | -49.2°C | 3.1% | 0hPa | 2.6V | 00:00:00 | 00:00:00 | 00:00:00 | |
| PG1ADW-2 | 2026-09-05 00:52:02 | 45.74917 | 16.63858 | 50° | 13km/h | 25893m | -51.7m/s | -48.3°C | 3.0% | 0hPa | 2.6V | 00:00:00 | 01:49:26 | 00:00:00 | |
| 9A1FER-3 | 2026-09-05 00:52:01 | 45.74916 | 16.63855 | 70° | 13km/h | 25945m | -51.3m/s | -48.1°C | 3.0% | 0hPa | 2.6V | 00:00:00 | 01:49:25 | 00:00:00 | |
| 9A1FER-10 | 2026-09-05 00:51:59 | 45.74914 | 16.63848 | 86° | 13km/h | 26047m | -51.2m/s | -48.2°C | 3.0% | 0hPa | 2.6V | 00:00:00 | 01:49:23 | 00:00:00 | |
| PETON7-10 | 2026-09-05 00:51:54 | 45.74912 | 16.63822 | 75° | 15km/h | 26305m | -52.8m/s | -48.3°C | 3.1% | 0hPa | 2.5V | 00:00:00 | 00:00:00 | 00:00:00 | |
| 9A1FER-3 | 2026-09-05 00:51:46 | 45.74900 | 16.63794 | 79° | 13km/h | 26735m | -54.8m/s | -48.4°C | 3.2% | 0hPa | 2.5V | 08:29:00 | 01:49:10 | 00:00:00 | |
| 9A1FER-10 | 2026-09-05 00:51:44 | 45.74899 | 16.63782 | 93° | 13km/h | 26844m | -54.8m/s | -48.6°C | 3.3% | 0hPa | 2.5V | 00:00:00 | 01:49:08 | 00:00:00 | |
| PG1ADW-2 | 2026-09-05 00:51:42 | 45.74901 | 16.63770 | 106° | 11km/h | 26953m | -55.3m/s | -48.6°C | 3.4% | 0hPa | 2.5V | 00:00:00 | 00:00:00 | 00:00:00 | |
| OE5DXL-15 | 2026-09-05 00:51:40 | 45.74904 | 16.63760 | 119° | 11km/h | 27062m | -55.0m/s | -48.2°C | 3.2% | 0hPa | 2.6V | 00:00:00 | 00:00:00 | 00:00:00 | |
| PETON7-10 | 2026-09-05 00:51:39 | 45.74906 | 16.63754 | 123° | 13km/h | 27116m | -54.7m/s | -48.1°C | 3.2% | 0hPa | 2.6V | 00:00:00 | 01:49:03 | 00:00:00 | |
| OE5DRO-10 | 2026-09-05 00:51:35 | 45.74914 | 16.63739 | 162° | 9km/h | 27339m | -57.3m/s | -47.2°C | 3.1% | 0hPa | 2.6V | 00:00:00 | 00:00:00 | 00:00:00 | |
| 9A1FER-3 | 2026-09-05 00:51:31 | 45.74924 | 16.63742 | 216° | 9km/h | 27568m | -57.6m/s | -46.6°C | 3.0% | 0hPa | 2.6V | 00:00:00 | 01:48:55 | 00:00:00 | |
| 9A1FER-10 | 2026-09-05 00:51:29 | 45.74928 | 16.63747 | 232° | 9km/h | 27685m | -58.7m/s | -46.2°C | 2.9% | 0hPa | 2.6V | 00:00:00 | 01:48:53 | 00:00:00 | |
| OE8JPQ-2 | 2026-09-05 00:51:25 | 45.74935 | 16.63761 | 229° | 7km/h | 27922m | -59.8m/s | -45.7°C | 2.8% | 0hPa | 2.6V | 00:00:00 | 00:00:00 | 00:00:00 | |
| PETON7-10 | 2026-09-05 00:51:24 | 45.74937 | 16.63764 | 219° | 9km/h | 27982m | -60.6m/s | -45.7°C | 2.8% | 0hPa | 2.6V | 08:29:00 | 00:00:00 | 00:00:00 | |
| PG1ADW-2 | 2026-09-05 00:51:22 | 45.74942 | 16.63766 | 168° | 9km/h | 28291m | -60.9m/s | -45.5°C | 2.9% | 0hPa | 2.6V | 00:00:00 | 00:00:00 | 00:00:00 | |
| 9A1FER-3 | 2026-09-05 00:51:16 | 45.74947 | 16.63761 | 144° | 9km/h | 28475m | -62.7m/s | -45.2°C | 2.9% | 0hPa | 2.6V | 00:00:00 | 01:48:40 | 00:00:00 | |
| 9A1FER-10 | 2026-09-05 00:51:14 | 45.74951 | 16.63758 | 160° | 9km/h | 28600m | -62.5m/s | -44.4°C | 2.7% | 0hPa | 2.6V | 00:00:00 | 01:48:38 | 08:30:00 | |
| LZ4TU-5 | 2026-09-05 00:51:12 | 45.74954 | 16.63756 | 153° | 11km/h | 28662m | -63.2m/s | 0°C | 0% | 0hPa | 2.6V | 00:00:00 | 00:00:00 | 00:00:00 | |
| OE5DXL-15 | 2026-09-05 00:51:10 | 45.74962 | 16.63752 | 182° | 16km/h | 28848m | -63.3m/s | -42.6°C | 2.3% | 0hPa | 2.6V | 00:00:00 | 00:00:00 | 00:00:00 | |
| PETON7-10 | 2026-09-05 00:51:09 | 45.74964 | 16.63753 | 208° | 13km/h | 28911m | -63.4m/s | -42.2°C | 2.2% | 0hPa | 2.6V | 00:00:00 | 00:00:00 | 00:00:00 | |
| LZ4TU-5 | 2026-09-05 00:51:07 | 45.74966 | 16.63754 | 220° | 9km/h | 28974m | -63.5m/s | 0°C | 0% | 0hPa | 2.6V | 00:00:00 | 00:00:00 | 00:00:00 | |
| OE8JPQ-2 | 2026-09-05 00:51:05 | 45.74970 | 16.63760 | 232° | 16km/h | 29158m | -59.9m/s | -42.7°C | 2.3% | 0hPa | 2.6V | 00:00:00 | 00:00:00 | 00:00:00 | |
| PG1ADW-2 | 2026-09-05 00:51:02 | 45.74972 | 16.63770 | 267° | 18km/h | 29329m | -56.3m/s | -42.5°C | 2.3% | 0hPa | 2.6V | 00:00:00 | 00:00:00 | 00:00:00 | |
| 9A1FER-3 | 2026-09-05 00:50:59 | 45.74970 | 16.63779 | 323° | 20km/h | 29494m | -55.3m/s | -42.8°C | 2.4% | 0hPa | 2.6V | 00:00:00 | 01:48:23 | 00:00:00 | |
| OE5DRO-10 | 2026-09-05 00:50:57 | 45.74964 | 16.63783 | 343° | 20km/h | 29602m | -54.3m/s | -42.7°C | 2.4% | 0hPa | 2.5V | 00:00:00 | 00:00:00 | 00:00:00 | |
| PETON7-10 | 2026-09-05 00:50:54 | 45.74949 | 16.63787 | 3° | 20km/h | 29755m | -47.4m/s | -42.5°C | 2.3% | 0hPa | 2.5V | 00:00:00 | 01:48:18 | 00:00:00 | |
| OE8JPQ-2 | 2026-09-05 00:50:45 | 45.74916 | 16.63741 | 106° | 13km/h | 30189m | -49.6m/s | -42.1°C | 2.3% | 0hPa | 2.5V | 00:00:00 | 01:48:09 | 00:00:00 | |
| 9A1FER-3 | 2026-09-05 00:50:44 | 45.74918 | 16.63734 | 113° | 13km/h | 30239m | -48.9m/s | -41.9°C | 2.2% | 0hPa | 2.5V | 00:00:00 | 01:48:08 | 00:00:00 | |
| PG1ADW-2 | 2026-09-05 00:50:42 | 45.74922 | 16.63723 | 117° | 13km/h | 30335m | -47.5m/s | -41.5°C | 2.1% | 0hPa | 2.5V | 00:00:00 | 01:48:06 | 00:00:00 | |
| OE5DXL-15 | 2026-09-05 00:50:40 | 45.74925 | 16.63713 | 102° | 16km/h | 30425m | -42.5m/s | -41.4°C | 2.2% | 0hPa | 2.6V | 00:00:00 | 00:00:00 | 00:00:00 | |
| PETON7-10 | 2026-09-05 00:50:39 | 45.74925 | 16.63710 | 104° | 13km/h | 30466m | -39.2m/s | -41.4°C | 2.1% | 0hPa | 2.6V | 00:00:00 | 00:00:00 | 00:00:00 | |
| OE5DRO-10 | 2026-09-05 00:50:38 | 45.74925 | 16.63708 | 51° | 16km/h | 30504m | -37.3m/s | -41.4°C | 2.1% | 0hPa | 2.6V | 00:00:00 | 00:00:00 | 00:00:00 | |
| 9A1FER-3 | 2026-09-05 00:50:29 | 45.74906 | 16.63701 | 145° | 24km/h | 30820m | -30.7m/s | -41.1°C | 2.1% | 0hPa | 2.6V | 00:00:00 | 01:47:53 | 00:00:00 | |
| PETON7-10 | 2026-09-05 00:50:24 | 45.74920 | 16.63683 | 102° | 18km/h | 30943m | -23.9m/s | -41.6°C | 2.1% | 0hPa | 2.6V | 00:00:00 | 00:00:00 | 00:00:00 | |
| PG1ADW-2 | 2026-09-05 00:50:22 | 45.74914 | 16.63674 | 21° | 18km/h | 30994m | -29.5m/s | -41.9°C | 2.2% | 0hPa | 2.6V | 00:00:00 | 00:00:00 | 00:00:00 | |
| OE5DRO-10 | 2026-09-05 00:50:19 | 45.74890 | 16.63662 | 20° | 16km/h | 31044m | -2.4m/s | -42.1°C | 2.3% | 0hPa | 2.6V | 00:00:00 | 00:00:00 | 08:30:00 | |
| 9A1FER-3 | 2026-09-05 00:50:14 | 45.74859 | 16.63634 | 56° | 15km/h | 31017m | 5.2m/s | -42.0°C | 2.3% | 0hPa | 2.6V | 00:00:00 | 01:47:38 | 00:00:00 | |
| OE5DXL-15 | 2026-09-05 00:50:10 | 45.74854 | 16.63635 | 301° | 9km/h | 30989m | 6.1m/s | -41.9°C | 2.3% | 0hPa | 2.6V | 00:00:00 | 00:00:00 | 00:00:00 | |
| PETON7-10 | 2026-09-05 00:50:09 | 45.74852 | 16.63638 | 303° | 13km/h | 30982m | 6.6m/s | -41.9°C | 2.2% | 0hPa | 2.6V | 00:00:00 | 01:47:33 | 00:00:00 | |
| OE8JPQ-2 | 2026-09-05 00:50:05 | 45.74843 | 16.63643 | 18° | 11km/h | 30957m | 6.0m/s | -41.7°C | 2.2% | 0hPa | 2.6V | 00:00:00 | 00:00:00 | 00:00:00 | |
| PG1ADW-2 | 2026-09-05 00:50:02 | 45.74823 | 16.63631 | 33° | 7km/h | 30930m | 7.2m/s | -41.6°C | 2.2% | 0hPa | 2.6V | 00:00:00 | 00:00:00 | 00:00:00 | |
| 9A1FER-3 | 2026-09-05 00:49:59 | 45.74817 | 16.63623 | 61° | 7km/h | 30918m | 5.0m/s | -41.5°C | 2.2% | 0hPa | 2.6V | 00:00:00 | 01:47:23 | 00:00:00 | |
| PETON7-10 | 2026-09-05 00:49:54 | 45.74811 | 16.63618 | 350° | 5km/h | 30888m | 6.1m/s | -41.3°C | 2.2% | 0hPa | 2.6V | 00:00:00 | 00:00:00 | 00:00:00 | |
| OE8JPQ-2 | 2026-09-05 00:49:45 | 45.74797 | 16.63613 | 48° | 7km/h | 30830m | 5.8m/s | -41.3°C | 2.2% | 0hPa | 2.6V | 00:00:00 | 01:47:09 | 00:00:00 | |
| 9A1FER-10 | 2026-09-05 00:49:44 | 45.74796 | 16.63612 | 46° | 7km/h | 30824m | 6.1m/s | -41.2°C | 2.2% | 0hPa | 2.6V | 00:00:00 | 01:47:08 | 00:00:00 | |
| PG1ADW-2 | 2026-09-05 00:49:42 | 45.74794 | 16.63611 | 344° | 7km/h | 30810m | 6.4m/s | -41.1°C | 2.1% | 0hPa | 2.5V | 00:00:00 | 00:00:00 | 08:30:00 | |
| OE5DXL-15 | 2026-09-05 00:49:40 | 45.74792 | 16.63612 | 341° | 5km/h | 30797m | 7.2m/s | -41.1°C | 2.1% | 0hPa | 2.6V | 00:00:00 | 00:00:00 | 00:00:00 | |
| PETON7-10 | 2026-09-05 00:49:39 | 45.74791 | 16.63612 | 67° | 7km/h | 30790m | 7.0m/s | -41.1°C | 2.1% | 0hPa | 2.6V | 00:00:00 | 00:00:00 | 00:00:00 | |
| 9A1FER-3 | 2026-09-05 00:49:29 | 45.74780 | 16.63593 | 41° | 5km/h | 30730m | 6.6m/s | -41.2°C | 2.1% | 0hPa | 2.6V | 00:00:00 | 01:46:53 | 08:30:00 | |
| OE8JPQ-2 | 2026-09-05 00:49:25 | 45.74774 | 16.63599 | 305° | 7km/h | 30705m | 7.4m/s | -41.2°C | 2.1% | 0hPa | 2.6V | 00:00:00 | 00:00:00 | 00:00:00 | |
| PETON7-10 | 2026-09-05 00:49:24 | 45.74773 | 16.63601 | 257° | 5km/h | 30698m | 6.2m/s | -41.3°C | 2.1% | 0hPa | 2.5V | 00:00:00 | 01:46:48 | 00:00:00 | |
| PG1ADW-2 | 2026-09-05 00:49:22 | 45.74775 | 16.63602 | 192° | 7km/h | 30686m | 6.4m/s | -41.4°C | 2.1% | 0hPa | 2.5V | 00:00:00 | 01:46:46 | 00:00:00 | |
| OE5DRO-10 | 2026-09-05 00:49:21 | 45.74776 | 16.63603 | 198° | 9km/h | 30679m | 7.0m/s | -41.4°C | 2.1% | 0hPa | 2.5V | 00:00:00 | 00:00:00 | 00:00:00 | |
| 9A1FER-3 | 2026-09-05 00:49:14 | 45.74784 | 16.63598 | 65° | 9km/h | 30634m | 6.5m/s | -41.7°C | 2.2% | 0hPa | 2.6V | 00:00:00 | 01:46:38 | 00:00:00 | |
| OE5DXL-15 | 2026-09-05 00:49:10 | 45.74783 | 16.63595 | 122° | 16km/h | 30612m | 6.5m/s | -41.8°C | 2.2% | 0hPa | 2.6V | 00:00:00 | 00:00:00 | 00:00:00 | |
| PETON7-10 | 2026-09-05 00:49:09 | 45.74785 | 16.63592 | 126° | 15km/h | 30606m | 5.9m/s | -41.8°C | 2.2% | 0hPa | 2.6V | 00:00:00 | 00:00:00 | 08:30:00 | |
| OE8JPQ-2 | 2026-09-05 00:49:05 | 45.74792 | 16.63570 | 104° | 15km/h | 30582m | 5.9m/s | -41.9°C | 2.2% | 0hPa | 2.6V | 00:00:00 | 00:00:00 | 00:00:00 | |
| PG1ADW-2 | 2026-09-05 00:49:02 | 45.74795 | 16.63561 | 142° | 16km/h | 30563m | 5.7m/s | -41.9°C | 2.2% | 0hPa | 2.6V | 00:00:00 | 00:00:00 | 00:00:00 | |
| 9A1FER-3 | 2026-09-05 00:48:59 | 45.74797 | 16.63554 | 76° | 18km/h | 30545m | 6.4m/s | -41.9°C | 2.2% | 0hPa | 2.6V | 00:00:00 | 01:46:23 | 00:00:00 | |
| PETON7-10 | 2026-09-05 00:48:54 | 45.74796 | 16.63516 | 104° | 18km/h | 30514m | 6.0m/s | -41.9°C | 2.2% | 0hPa | 2.6V | 00:00:00 | 00:00:00 | 00:00:00 | |
| OE8JPQ-2 | 2026-09-05 00:48:45 | 45.74808 | 16.63467 | 94° | 24km/h | 30458m | 5.5m/s | -42.1°C | 2.2% | 0hPa | 2.6V | 00:00:00 | 01:46:09 | 00:00:00 | |
| 9A1FER-3 | 2026-09-05 00:48:44 | 45.74808 | 16.63461 | 90° | 24km/h | 30453m | 4.9m/s | -42.2°C | 2.2% | 0hPa | 2.6V | 00:00:00 | 01:46:08 | 00:00:00 | |
| OE5DRO-10 | 2026-09-05 00:48:43 | 45.74808 | 16.63454 | 95° | 26km/h | 30447m | 6.1m/s | -42.2°C | 2.2% | 0hPa | 2.5V | 00:00:00 | 00:00:00 | 00:00:00 | |
| PG1ADW-2 | 2026-09-05 00:48:42 | 45.74809 | 16.63446 | 103° | 26km/h | 30441m | 6.9m/s | -42.2°C | 2.2% | 0hPa | 2.5V | 00:00:00 | 00:00:00 | 00:00:00 | |
| OE5DXL-15 | 2026-09-05 00:48:40 | 45.74814 | 16.63428 | 110° | 26km/h | 30429m | 5.3m/s | -42.2°C | 2.2% | 0hPa | 2.6V | 00:00:00 | 00:00:00 | 00:00:00 | |
| PETON7-10 | 2026-09-05 00:48:39 | 45.74816 | 16.63418 | 105° | 26km/h | 30423m | 7.1m/s | -42.3°C | 2.2% | 0hPa | 2.6V | 00:00:00 | 01:46:03 | 00:00:00 | |
| 9A1FER-10 | 2026-09-05 00:48:29 | 45.74821 | 16.63339 | 90° | 27km/h | 30362m | 6.8m/s | -42.6°C | 2.3% | 0hPa | 2.6V | 00:00:00 | 01:45:53 | 00:00:00 | |
| LZ4TU-5 | 2026-09-05 00:48:26 | 45.74823 | 16.63319 | 103° | 31km/h | 30350m | 4.8m/s | 0°C | 0% | 0hPa | 2.6V | 00:00:00 | 00:00:00 | 00:00:00 | |
| OE8JPQ-2 | 2026-09-05 00:48:25 | 45.74826 | 16.63295 | 95° | 27km/h | 30338m | 7.1m/s | -42.7°C | 2.3% | 0hPa | 2.6V | 00:00:00 | 00:00:00 | 00:00:00 | |
| PETON7-10 | 2026-09-05 00:48:24 | 45.74826 | 16.63282 | 88° | 26km/h | 30332m | 5.6m/s | -42.7°C | 2.3% | 0hPa | 2.6V | 00:00:00 | 00:00:00 | 00:00:00 | |
| PG1ADW-2 | 2026-09-05 00:48:22 | 45.74825 | 16.63259 | 84° | 26km/h | 30320m | 6.3m/s | -42.8°C | 2.3% | 0hPa | 2.5V | 00:00:00 | 00:00:00 | 00:00:00 | |
| LZ4TU-5 | 2026-09-05 00:48:21 | 45.74825 | 16.63259 | 85° | 27km/h | 30320m | 6.3m/s | 0°C | 0% | 0hPa | 2.5V | 00:00:00 | 00:00:00 | 00:00:00 | |
| 9A1FER-3 | 2026-09-05 00:48:14 | 45.74801 | 16.63200 | 51° | 29km/h | 30272m | 6.2m/s | -43.0°C | 2.3% | 0hPa | 2.5V | 00:00:00 | 01:45:38 | 00:00:00 | |
| OE5DXL-15 | 2026-09-05 00:48:10 | 45.74786 | 16.63168 | 57° | 29km/h | 30248m | 6.4m/s | -43.1°C | 2.3% | 0hPa | 2.5V | 00:00:00 | 00:00:00 | 00:00:00 | |
| PETON7-10 | 2026-09-05 00:48:09 | 45.74782 | 16.63160 | 56° | 29km/h | 30242m | 5.7m/s | -43.2°C | 2.4% | 0hPa | 2.5V | 00:00:00 | 00:00:00 | 00:00:00 | |
| LZ4TU-5 | 2026-09-05 00:48:08 | 45.74782 | 16.63160 | 57° | 29km/h | 30242m | 5.7m/s | 0°C | 0% | 0hPa | 2.5V | 00:00:00 | 00:00:00 | 00:00:00 | |
| OE8JPQ-2 | 2026-09-05 00:48:05 | 45.74766 | 16.63133 | 32° | 33km/h | 30219m | 6.5m/s | -43.3°C | 2.4% | 0hPa | 2.5V | 00:00:00 | 00:00:00 | 00:00:00 | |
| LZ4TU-5 | 2026-09-05 00:48:04 | 45.74759 | 16.63128 | 24° | 33km/h | 30212m | 6.7m/s | 0°C | 0% | 0hPa | 2.5V | 00:00:00 | 00:00:00 | 00:00:00 | |
| PG1ADW-2 | 2026-09-05 00:48:02 | 45.74742 | 16.63120 | 17° | 31km/h | 30201m | 5.4m/s | -43.3°C | 2.4% | 0hPa | 2.5V | 00:00:00 | 01:45:26 | 00:00:00 | |
| 9A1FER-3 | 2026-09-05 00:47:59 | 45.74721 | 16.63109 | 31° | 33km/h | 30183m | 5.0m/s | -43.2°C | 2.3% | 0hPa | 2.5V | 00:00:00 | 01:45:23 | 00:00:00 | |
| PETON7-10 | 2026-09-05 00:47:54 | 45.74691 | 16.63072 | 44° | 27km/h | 30152m | 6.8m/s | -43.2°C | 2.3% | 0hPa | 2.5V | 00:00:00 | 01:45:18 | 00:00:00 | |
| OE5DRO-10 | 2026-09-05 00:47:46 | 45.74628 | 16.63036 | 3° | 22km/h | 30105m | 5.6m/s | -43.3°C | 2.4% | 0hPa | 2.5V | 00:00:00 | 00:00:00 | 00:00:00 | |
| OE8JPQ-2 | 2026-09-05 00:47:45 | 45.74622 | 16.63036 | 2° | 20km/h | 30100m | 6.2m/s | -43.3°C | 2.4% | 0hPa | 2.5V | 00:00:00 | 01:45:09 | 00:00:00 | |
| 9A1FER-10 | 2026-09-05 00:47:44 | 45.74617 | 16.63036 | 5° | 24km/h | 30093m | 6.5m/s | -43.3°C | 2.3% | 0hPa | 2.5V | 00:00:00 | 01:45:08 | 00:00:00 | |
| PG1ADW-2 | 2026-09-05 00:47:42 | 45.74607 | 16.63034 | 13° | 18km/h | 30082m | 5.9m/s | -43.3°C | 2.3% | 0hPa | 2.5V | 00:00:00 | 00:00:00 | 00:00:00 | |
| OE5DXL-15 | 2026-09-05 00:47:40 | 45.74599 | 16.63030 | 19° | 18km/h | 30069m | 5.4m/s | -43.3°C | 2.3% | 0hPa | 2.6V | 00:00:00 | 00:00:00 | 08:30:00 | |
| PETON7-10 | 2026-09-05 00:47:39 | 45.74595 | 16.63029 | 18° | 20km/h | 30063m | 4.9m/s | -43.3°C | 2.3% | 0hPa | 2.6V | 00:00:00 | 00:00:00 | 00:00:00 | |
| 9A1FER-3 | 2026-09-05 00:47:29 | 45.74533 | 16.63027 | 331° | 15km/h | 30004m | 4.6m/s | -43.9°C | 2.4% | 0hPa | 2.5V | 00:00:00 | 01:44:53 | 00:00:00 | |
| OE5DRO-10 | 2026-09-05 00:47:27 | 45.74529 | 16.63033 | 301° | 15km/h | 29991m | 6.6m/s | -44.0°C | 2.5% | 0hPa | 2.5V | 00:00:00 | 00:00:00 | 08:30:00 | |
| OE8JPQ-2 | 2026-09-05 00:47:25 | 45.74527 | 16.63036 | 349° | 16km/h | 29980m | 5.5m/s | -44.0°C | 2.5% | 0hPa | 2.5V | 00:00:00 | 00:00:00 | 08:30:00 | |
| PETON7-10 | 2026-09-05 00:47:24 | 45.74525 | 16.63036 | 4° | 16km/h | 29974m | 7.1m/s | -44.1°C | 2.5% | 0hPa | 2.5V | 00:00:00 | 00:00:00 | 00:00:00 | |
| PG1ADW-2 | 2026-09-05 00:47:22 | 45.74516 | 16.63035 | 2° | 18km/h | 29962m | 5.1m/s | -44.1°C | 2.5% | 0hPa | 2.5V | 00:00:00 | 00:00:00 | 00:00:00 | |
| 9A1FER-3 | 2026-09-05 00:47:14 | 45.74484 | 16.63051 | 318° | 18km/h | 29917m | 4.7m/s | -44.0°C | 2.5% | 0hPa | 2.5V | 00:00:00 | 01:44:38 | 08:30:00 | |
| OE5DXL-15 | 2026-09-05 00:47:10 | 45.74478 | 16.63068 | 295° | 20km/h | 29894m | 5.1m/s | -43.9°C | 2.5% | 0hPa | 2.5V | 00:00:00 | 00:00:00 | 00:00:00 | |
| PETON7-10 | 2026-09-05 00:47:09 | 45.74476 | 16.63071 | 323° | 16km/h | 29888m | 6.3m/s | -43.8°C | 2.5% | 0hPa | 2.5V | 00:00:00 | 01:44:33 | 00:00:00 | |
| OE5DRO-10 | 2026-09-05 00:47:08 | 45.74473 | 16.63073 | 344° | 18km/h | 29881m | 7.0m/s | -43.8°C | 2.5% | 0hPa | 2.5V | 00:00:00 | 00:00:00 | 00:00:00 | |
| OE8JPQ-2 | 2026-09-05 00:47:05 | 45.74455 | 16.63079 | 343° | 20km/h | 29863m | 6.7m/s | -43.7°C | 2.4% | 0hPa | 2.5V | 00:00:00 | 00:00:00 | 00:00:00 | |
| PG1ADW-2 | 2026-09-05 00:47:02 | 45.74439 | 16.63091 | 326° | 18km/h | 29845m | 6.9m/s | -43.6°C | 2.4% | 0hPa | 2.5V | 00:00:00 | 00:00:00 | 00:00:00 | |
| 9A1FER-3 | 2026-09-05 00:46:59 | 45.74430 | 16.63102 | 295° | 20km/h | 29827m | 6.0m/s | -43.5°C | 2.4% | 0hPa | 2.5V | 00:00:00 | 01:44:23 | 00:00:00 | |
| PETON7-10 | 2026-09-05 00:46:54 | 45.74429 | 16.63119 | 330° | 22km/h | 29797m | 5.8m/s | -43.6°C | 2.4% | 0hPa | 2.5V | 00:00:00 | 00:00:00 | 08:30:00 | |
| OE5DRO-10 | 2026-09-05 00:46:49 | 45.74403 | 16.63141 | 320° | 18km/h | 29767m | 4.8m/s | -43.8°C | 2.4% | 0hPa | 2.5V | 00:00:00 | 00:00:00 | 00:00:00 | |
| OE8JPQ-2 | 2026-09-05 00:46:45 | 45.74384 | 16.63165 | 305° | 18km/h | 29745m | 4.7m/s | -44.1°C | 2.4% | 0hPa | 2.5V | 00:00:00 | 01:44:09 | 00:00:00 | |
| PG1ADW-2 | 2026-09-05 00:46:42 | 45.74383 | 16.63184 | 249° | 16km/h | 29726m | 5.6m/s | -44.2°C | 2.5% | 0hPa | 2.5V | 00:00:00 | 01:44:06 | 08:30:00 | |
| OE5DXL-15 | 2026-09-05 00:46:40 | 45.74388 | 16.63197 | 246° | 15km/h | 29713m | 6.4m/s | -44.3°C | 2.5% | 0hPa | 2.5V | 00:00:00 | 00:00:00 | 00:00:00 | |
| PETON7-10 | 2026-09-05 00:46:38 | 45.74389 | 16.63206 | 273° | 16km/h | 29702m | 5.4m/s | -44.3°C | 2.5% | 0hPa | 2.5V | 00:00:00 | 00:00:00 | 00:00:00 | |
| OE5DRO-10 | 2026-09-05 00:46:30 | 45.74373 | 16.63246 | 299° | 13km/h | 29653m | 5.8m/s | -44.2°C | 2.4% | 0hPa | 2.5V | 00:00:00 | 00:00:00 | 00:00:00 | |
| 9A1FER-10 | 2026-09-05 00:46:29 | 45.74372 | 16.63251 | 267° | 15km/h | 29647m | 7.1m/s | -44.2°C | 2.5% | 0hPa | 2.5V | 00:00:00 | 01:43:53 | 00:00:00 | |
| OE8JPQ-2 | 2026-09-05 00:46:25 | 45.74384 | 16.63273 | 219° | 11km/h | 29622m | 6.9m/s | -44.3°C | 2.5% | 0hPa | 2.5V | 00:00:00 | 00:00:00 | 00:00:00 | |
| PETON7-10 | 2026-09-05 00:46:23 | 45.74389 | 16.63279 | 235° | 11km/h | 29611m | 5.0m/s | -44.3°C | 2.5% | 0hPa | 2.6V | 00:00:00 | 01:43:47 | 00:00:00 | |
| PG1ADW-2 | 2026-09-05 00:46:22 | 45.74390 | 16.63282 | 251° | 11km/h | 29605m | 5.9m/s | -44.3°C | 2.5% | 0hPa | 2.6V | 00:00:00 | 00:00:00 | 00:00:00 | |
| 9A1FER-3 | 2026-09-05 00:46:14 | 45.74381 | 16.63310 | 283° | 11km/h | 29553m | 6.8m/s | -44.4°C | 2.5% | 0hPa | 2.6V | 00:00:00 | 01:43:38 | 00:00:00 | |
| OE5DRO-10 | 2026-09-05 00:46:11 | 45.74386 | 16.63318 | 213° | 11km/h | 29535m | 6.9m/s | -44.3°C | 2.5% | 0hPa | 2.6V | 00:00:00 | 00:00:00 | 00:00:00 | |
| OE5DXL-15 | 2026-09-05 00:46:10 | 45.74388 | 16.63320 | 216° | 11km/h | 29528m | 6.9m/s | -44.2°C | 2.5% | 0hPa | 2.6V | 00:00:00 | 00:00:00 | 00:00:00 | |
| PETON7-10 | 2026-09-05 00:46:08 | 45.74390 | 16.63324 | 259° | 11km/h | 29516m | 5.5m/s | -44.2°C | 2.5% | 0hPa | 2.5V | 00:00:00 | 00:00:00 | 00:00:00 | |
| OE8JPQ-2 | 2026-09-05 00:46:05 | 45.74390 | 16.63337 | 277° | 15km/h | 29496m | 5.6m/s | -44.1°C | 2.5% | 0hPa | 2.5V | 00:00:00 | 00:00:00 | 00:00:00 | |
| PG1ADW-2 | 2026-09-05 00:46:02 | 45.74385 | 16.63352 | 316° | 13km/h | 29476m | 5.8m/s | -44.0°C | 2.5% | 0hPa | 2.5V | 00:00:00 | 00:00:00 | 00:00:00 | |
| 9A1FER-3 | 2026-09-05 00:45:59 | 45.74381 | 16.63360 | 238° | 13km/h | 29456m | 6.8m/s | -43.9°C | 2.4% | 0hPa | 2.5V | 00:00:00 | 01:43:23 | 00:00:00 | |
| PETON7-10 | 2026-09-05 00:45:53 | 45.74395 | 16.63372 | 229° | 13km/h | 29417m | 7.6m/s | -44.0°C | 2.5% | 0hPa | 2.5V | 00:00:00 | 00:00:00 | 00:00:00 | |
| OE5DRO-10 | 2026-09-05 00:45:52 | 45.74397 | 16.63376 | 240° | 15km/h | 29410m | 6.9m/s | -44.0°C | 2.5% | 0hPa | 2.5V | 00:00:00 | 00:00:00 | 00:00:00 | |
| OE8JPQ-2 | 2026-09-05 00:45:45 | 45.74389 | 16.63409 | 319° | 13km/h | 29363m | 6.5m/s | -43.9°C | 2.5% | 0hPa | 2.5V | 00:00:00 | 01:43:09 | 00:00:00 | |
| 9A1FER-10 | 2026-09-05 00:45:44 | 45.74387 | 16.63412 | 306° | 15km/h | 29357m | 5.9m/s | -43.9°C | 2.4% | 0hPa | 2.5V | 00:00:00 | 01:43:08 | 00:00:00 | |
| PG1ADW-2 | 2026-09-05 00:45:42 | 45.74387 | 16.63414 | 210° | 15km/h | 29343m | 6.7m/s | -44.0°C | 2.5% | 0hPa | 2.5V | 00:00:00 | 00:00:00 | 00:00:00 | |
| OE5DXL-15 | 2026-09-05 00:45:40 | 45.74392 | 16.63417 | 208° | 13km/h | 29330m | 7.6m/s | -44.0°C | 2.5% | 0hPa | 2.6V | 00:00:00 | 00:00:00 | 00:00:00 | |
| PETON7-10 | 2026-09-05 00:45:38 | 45.74401 | 16.63426 | 219° | 13km/h | 29317m | 5.0m/s | -44.1°C | 2.5% | 0hPa | 2.6V | 00:00:00 | 01:43:02 | 00:00:00 | |
| OE5DRO-10 | 2026-09-05 00:45:33 | 45.74410 | 16.63451 | 295° | 13km/h | 29286m | 7.3m/s | -44.2°C | 2.5% | 0hPa | 2.6V | 00:00:00 | 00:00:00 | 00:00:00 | |
| 9A1FER-3 | 2026-09-05 00:45:29 | 45.74403 | 16.63465 | 340° | 13km/h | 29260m | 7.6m/s | -44.1°C | 2.5% | 0hPa | 2.5V | 00:00:00 | 01:42:53 | 00:00:00 | |
| OE8JPQ-2 | 2026-09-05 00:45:25 | 45.74402 | 16.63464 | 184° | 13km/h | 29233m | 7.5m/s | -44.1°C | 2.4% | 0hPa | 2.5V | 00:00:00 | 00:00:00 | 00:00:00 | |
| PETON7-10 | 2026-09-05 00:45:23 | 45.74411 | 16.63466 | 193° | 13km/h | 29220m | 6.4m/s | -44.1°C | 2.4% | 0hPa | 2.6V | 00:00:00 | 00:00:00 | 00:00:00 | |
| PG1ADW-2 | 2026-09-05 00:45:22 | 45.74416 | 16.63467 | 197° | 13km/h | 29213m | 7.3m/s | -44.2°C | 2.4% | 0hPa | 2.5V | 00:00:00 | 01:42:46 | 00:00:00 | |
| 9A1FER-3 | 2026-09-05 00:45:14 | 45.74421 | 16.63497 | 329° | 11km/h | 29160m | 4.6m/s | -44.3°C | 2.5% | 0hPa | 2.5V | 00:00:00 | 01:42:38 | 00:00:00 | |
| OE5DXL-15 | 2026-09-05 00:45:10 | 45.74426 | 16.63503 | 201° | 11km/h | 29134m | 6.0m/s | -44.2°C | 2.5% | 0hPa | 2.5V | 00:00:00 | 00:00:00 | 00:00:00 | |
| PETON7-10 | 2026-09-05 00:45:08 | 45.74434 | 16.63507 | 197° | 13km/h | 29121m | 6.7m/s | -44.2°C | 2.6% | 0hPa | 2.5V | 00:00:00 | 00:00:00 | 00:00:00 | |
| OE8JPQ-2 | 2026-09-05 00:45:05 | 45.74441 | 16.63514 | 234° | 11km/h | 29102m | 7.4m/s | -44.2°C | 2.5% | 0hPa | 2.5V | 00:00:00 | 00:00:00 | 00:00:00 | |
| PG1ADW-2 | 2026-09-05 00:45:02 | 45.74445 | 16.63527 | 264° | 9km/h | 29082m | 7.2m/s | -44.1°C | 2.5% | 0hPa | 2.5V | 00:00:00 | 00:00:00 | 00:00:00 | |
| 9A1FER-3 | 2026-09-05 00:44:59 | 45.74446 | 16.63532 | 183° | 9km/h | 29062m | 6.4m/s | -43.9°C | 2.5% | 0hPa | 2.5V | 00:00:00 | 01:42:23 | 08:30:00 | |
| OE5DRO-10 | 2026-09-05 00:44:55 | 45.74459 | 16.63531 | 164° | 11km/h | 29035m | 7.3m/s | -43.9°C | 2.4% | 0hPa | 2.5V | 00:00:00 | 00:00:00 | 00:00:00 | |
| PETON7-10 | 2026-09-05 00:44:53 | 45.74467 | 16.63527 | 171° | 11km/h | 29022m | 7.1m/s | -43.9°C | 2.4% | 0hPa | 2.5V | 00:00:00 | 01:42:17 | 00:00:00 | |
| OE8JPQ-2 | 2026-09-05 00:44:45 | 45.74477 | 16.63533 | 60° | 11km/h | 28969m | 5.3m/s | -43.9°C | 2.4% | 0hPa | 2.5V | 00:00:00 | 01:42:09 | 00:00:00 | |
| 9A1FER-3 | 2026-09-05 00:44:44 | 45.74476 | 16.63531 | 81° | 11km/h | 28963m | 7.1m/s | -43.9°C | 2.4% | 0hPa | 2.5V | 00:00:00 | 01:42:08 | 00:00:00 | |
| PG1ADW-2 | 2026-09-05 00:44:42 | 45.74477 | 16.63523 | 112° | 13km/h | 28950m | 5.7m/s | -43.8°C | 2.4% | 0hPa | 2.5V | 00:00:00 | 00:00:00 | 00:00:00 | |
| OE5DXL-15 | 2026-09-05 00:44:40 | 45.74482 | 16.63514 | 145° | 9km/h | 28937m | 6.6m/s | -43.9°C | 2.4% | 0hPa | 2.6V | 00:00:00 | 00:00:00 | 00:00:00 | |
| PETON7-10 | 2026-09-05 00:44:38 | 45.74489 | 16.63509 | 161° | 11km/h | 28926m | 5.5m/s | -44.1°C | 2.4% | 0hPa | 2.5V | 00:00:00 | 00:00:00 | 08:30:00 | |
| OE5DRO-10 | 2026-09-05 00:44:36 | 45.74495 | 16.63505 | 142° | 11km/h | 28912m | 6.1m/s | -44.2°C | 2.4% | 0hPa | 2.5V | 00:00:00 | 00:00:00 | 08:30:00 | |
| 9A1FER-10 | 2026-09-05 00:44:29 | 45.74505 | 16.63507 | 163° | 11km/h | 28868m | 5.9m/s | -44.8°C | 2.4% | 0hPa | 2.6V | 00:00:00 | 01:41:53 | 08:30:00 | |
| PETON7-10 | 2026-09-05 00:44:23 | 45.74531 | 16.63500 | 158° | 7km/h | 28830m | 6.8m/s | -45.2°C | 2.6% | 0hPa | 2.5V | 00:00:00 | 00:00:00 | 00:00:00 | |
| PG1ADW-2 | 2026-09-05 00:44:22 | 45.74534 | 16.63498 | 135° | 7km/h | 28824m | 6.0m/s | -45.2°C | 2.6% | 0hPa | 2.5V | 00:00:00 | 00:00:00 | 00:00:00 | |
| OE5DRO-10 | 2026-09-05 00:44:17 | 45.74536 | 16.63495 | 320° | 7km/h | 28791m | 7.1m/s | -45.4°C | 2.6% | 0hPa | 2.5V | 00:00:00 | 00:00:00 | 00:00:00 | |
| 9A1FER-3 | 2026-09-05 00:44:14 | 45.74534 | 16.63495 | 174° | 7km/h | 28774m | 5.5m/s | -45.6°C | 2.6% | 0hPa | 2.5V | 00:00:00 | 01:41:38 | 00:00:00 | |
| OE5DXL-15 | 2026-09-05 00:44:10 | 45.74543 | 16.63494 | 162° | 7km/h | 28750m | 7.4m/s | -45.7°C | 2.6% | 0hPa | 2.5V | 00:00:00 | 00:00:00 | 00:00:00 | |
| PETON7-10 | 2026-09-05 00:44:08 | 45.74548 | 16.63490 | 132° | 5km/h | 28737m | 5.4m/s | -45.8°C | 2.6% | 0hPa | 2.5V | 00:00:00 | 01:41:32 | 00:00:00 | |
| OE8JPQ-2 | 2026-09-05 00:44:05 | 45.74553 | 16.63485 | 186° | 5km/h | 28718m | 5.3m/s | -46.0°C | 2.7% | 0hPa | 2.5V | 00:00:00 | 00:00:00 | 00:00:00 | |
| PG1ADW-2 | 2026-09-05 00:44:02 | 45.74554 | 16.63488 | 311° | 5km/h | 28700m | 6.2m/s | -46.1°C | 2.7% | 0hPa | 2.5V | 00:00:00 | 01:41:26 | 00:00:00 | |
| 9A1FER-3 | 2026-09-05 00:43:59 | 45.74552 | 16.63495 | 266° | 5km/h | 28681m | 5.5m/s | -46.2°C | 2.7% | 0hPa | 2.5V | 00:00:00 | 01:41:23 | 00:00:00 | |
| OE5DRO-10 | 2026-09-05 00:43:58 | 45.74552 | 16.63497 | 265° | 7km/h | 28676m | 4.8m/s | -46.3°C | 2.7% | 0hPa | 2.5V | 00:00:00 | 00:00:00 | 00:00:00 | |
| PETON7-10 | 2026-09-05 00:43:53 | 45.74549 | 16.63494 | 72° | 7km/h | 28644m | 6.4m/s | -46.3°C | 2.7% | 0hPa | 2.5V | 00:00:00 | 00:00:00 | 00:00:00 | |
| OE8JPQ-2 | 2026-09-05 00:43:45 | 45.74540 | 16.63497 | 267° | 9km/h | 28595m | 6.3m/s | -46.3°C | 2.7% | 0hPa | 2.5V | 00:00:00 | 01:41:09 | 00:00:00 | |
| 9A1FER-10 | 2026-09-05 00:43:44 | 45.74540 | 16.63499 | 275° | 9km/h | 28588m | 6.3m/s | -46.4°C | 2.7% | 0hPa | 2.5V | 00:00:00 | 01:41:08 | 00:00:00 | |
| PG1ADW-2 | 2026-09-05 00:43:42 | 45.74540 | 16.63505 | 251° | 11km/h | 28577m | 5.4m/s | -46.5°C | 2.7% | 0hPa | 2.5V | 00:00:00 | 00:00:00 | 08:30:00 | |
| OE5DXL-15 | 2026-09-05 00:43:40 | 45.74543 | 16.63508 | 191° | 11km/h | 28565m | 5.2m/s | -46.7°C | 2.7% | 0hPa | 2.6V | 00:00:00 | 00:00:00 | 00:00:00 | |
| PETON7-10 | 2026-09-05 00:43:38 | 45.74546 | 16.63507 | 100° | 11km/h | 28553m | 6.7m/s | -46.9°C | 2.8% | 0hPa | 2.6V | 00:00:00 | 00:00:00 | 00:00:00 | |
| 9A1FER-3 | 2026-09-05 00:43:29 | 45.74528 | 16.63500 | 325° | 11km/h | 28500m | 6.0m/s | -47.3°C | 2.9% | 0hPa | 2.6V | 00:00:00 | 01:40:53 | 00:00:00 | |
| OE8JPQ-2 | 2026-09-05 00:43:25 | 45.74519 | 16.63510 | 340° | 9km/h | 28477m | 6.7m/s | -47.2°C | 2.8% | 0hPa | 2.6V | 00:00:00 | 00:00:00 | 00:00:00 | |
| LZ4TU-5 | 2026-09-05 00:43:24 | 45.74519 | 16.63510 | 341° | 11km/h | 28477m | 6.7m/s | 0°C | 0% | 0hPa | 2.5V | 00:00:00 | 00:00:00 | 00:00:00 | |
| PETON7-10 | 2026-09-05 00:43:23 | 45.74514 | 16.63511 | 2° | 9km/h | 28466m | 4.8m/s | -47.2°C | 2.9% | 0hPa | 2.5V | 00:00:00 | 01:40:47 | 00:00:00 | |
| PG1ADW-2 | 2026-09-05 00:43:22 | 45.74512 | 16.63511 | 1° | 9km/h | 28461m | 6.6m/s | -47.2°C | 2.8% | 0hPa | 2.5V | 00:00:00 | 00:00:00 | 00:00:00 | |
| LZ4TU-5 | 2026-09-05 00:43:20 | 45.74510 | 16.63512 | 336° | 5km/h | 28455m | 5.6m/s | 0°C | 0% | 0hPa | 2.5V | 00:00:00 | 00:00:00 | 00:00:00 | |
| OE5DRO-10 | 2026-09-05 00:43:18 | 45.74506 | 16.63519 | 316° | 9km/h | 28437m | 6.9m/s | -47.2°C | 2.8% | 0hPa | 2.5V | 00:00:00 | 00:00:00 | 00:00:00 | |
| 9A1FER-3 | 2026-09-05 00:43:14 | 45.74496 | 16.63534 | 294° | 9km/h | 28415m | 6.0m/s | -47.1°C | 2.9% | 0hPa | 2.5V | 00:00:00 | 01:40:38 | 00:00:00 | |
| OE5DXL-15 | 2026-09-05 00:43:10 | 45.74493 | 16.63543 | 1° | 11km/h | 28391m | 4.6m/s | -47.0°C | 2.8% | 0hPa | 2.5V | 00:00:00 | 00:00:00 | 08:30:00 | |
| PETON7-10 | 2026-09-05 00:43:07 | 45.74495 | 16.63542 | 172° | 13km/h | 28375m | 5.7m/s | -47.0°C | 2.8% | 0hPa | 2.5V | 00:00:00 | 00:00:00 | 00:00:00 | |
| OE8JPQ-2 | 2026-09-05 00:43:05 | 45.74498 | 16.63543 | 219° | 13km/h | 28364m | 6.2m/s | -47.1°C | 2.8% | 0hPa | 2.6V | 00:00:00 | 00:00:00 | 00:00:00 | |
| PG1ADW-2 | 2026-09-05 00:43:02 | 45.74500 | 16.63558 | 253° | 13km/h | 28340m | 6.9m/s | -47.3°C | 2.9% | 0hPa | 2.6V | 00:00:00 | 00:00:00 | 00:00:00 | |
| 9A1FER-10 | 2026-09-05 00:42:59 | 45.74503 | 16.63568 | 246° | 13km/h | 28328m | 6.8m/s | -47.5°C | 2.9% | 0hPa | 2.6V | 00:00:00 | 01:40:23 | 00:00:00 | |
| OE5DRO-10 | 2026-09-05 00:42:55 | 45.74512 | 16.63577 | 193° | 13km/h | 28305m | 6.3m/s | -47.6°C | 2.9% | 0hPa | 2.5V | 00:00:00 | 00:00:00 | 00:00:00 | |
| PETON7-10 | 2026-09-05 00:42:52 | 45.74524 | 16.63581 | 206° | 11km/h | 28290m | 5.4m/s | -47.5°C | 2.9% | 0hPa | 2.5V | 00:00:00 | 00:00:00 | 00:00:00 | |
| OE8JPQ-2 | 2026-09-05 00:42:45 | 45.74529 | 16.63610 | 259° | 11km/h | 28248m | 6.2m/s | -47.5°C | 2.9% | 0hPa | 2.5V | 00:00:00 | 01:40:09 | 00:00:00 | |
| 9A1FER-3 | 2026-09-05 00:42:44 | 45.74529 | 16.63613 | 232° | 9km/h | 28242m | 4.3m/s | -47.5°C | 2.9% | 0hPa | 2.5V | 00:00:00 | 01:40:08 | 08:30:00 | |
| PG1ADW-2 | 2026-09-05 00:42:42 | 45.74533 | 16.63614 | 181° | 9km/h | 28231m | 6.8m/s | -47.4°C | 2.9% | 0hPa | 2.5V | 00:00:00 | 01:40:06 | 00:00:00 | |
| OE5DXL-15 | 2026-09-05 00:42:40 | 45.74540 | 16.63614 | 174° | 9km/h | 28221m | 4.3m/s | -47.4°C | 2.9% | 0hPa | 2.5V | 00:00:00 | 00:00:00 | 00:00:00 | |
| PETON7-10 | 2026-09-05 00:42:37 | 45.74545 | 16.63614 | 301° | 9km/h | 28203m | 5.4m/s | -47.4°C | 2.9% | 0hPa | 2.5V | 00:00:00 | 01:40:01 | 00:00:00 | |
| OE5DRO-10 | 2026-09-05 00:42:36 | 45.74544 | 16.63616 | 300° | 9km/h | 28197m | 6.6m/s | -47.4°C | 2.9% | 0hPa | 2.5V | 00:00:00 | 00:00:00 | 00:00:00 | |
| 9A1FER-10 | 2026-09-05 00:42:29 | 45.74535 | 16.63633 | 144° | 9km/h | 28160m | 6.4m/s | -47.5°C | 2.9% | 0hPa | 2.6V | 00:00:00 | 01:39:53 | 00:00:00 | |
| OE8JPQ-2 | 2026-09-05 00:42:25 | 45.74548 | 16.63631 | 189° | 11km/h | 28138m | 5.4m/s | -47.5°C | 2.9% | 0hPa | 2.6V | 00:00:00 | 00:00:00 | 00:00:00 | |
| PG1ADW-2 | 2026-09-05 00:42:22 | 45.74550 | 16.63633 | 282° | 13km/h | 28121m | 5.4m/s | -47.4°C | 2.9% | 0hPa | 2.6V | 00:00:00 | 00:00:00 | 00:00:00 | |
| PETON7-10 | 2026-09-05 00:42:20 | 45.74549 | 16.63638 | 302° | 11km/h | 28110m | 6.0m/s | -47.4°C | 2.9% | 0hPa | 2.6V | 00:00:00 | 00:00:00 | 08:30:00 | |
| OE5DRO-10 | 2026-09-05 00:42:16 | 45.74543 | 16.63646 | 135° | 13km/h | 28089m | 5.6m/s | -47.4°C | 2.9% | 0hPa | 2.5V | 00:00:00 | 00:00:00 | 00:00:00 | |
| 9A1FER-3 | 2026-09-05 00:42:14 | 45.74547 | 16.63645 | 180° | 15km/h | 28078m | 6.1m/s | -47.4°C | 2.9% | 0hPa | 2.5V | 00:00:00 | 01:39:38 | 00:00:00 | |
| OE5DXL-15 | 2026-09-05 00:42:10 | 45.74560 | 16.63650 | 212° | 13km/h | 28056m | 5.5m/s | -47.4°C | 2.9% | 0hPa | 2.5V | 00:00:00 | 00:00:00 | 00:00:00 | |
| OE8JPQ-2 | 2026-09-05 00:42:05 | 45.74557 | 16.63672 | 315° | 11km/h | 28027m | 6.0m/s | -47.4°C | 2.9% | 0hPa | 2.5V | 00:00:00 | 00:00:00 | 00:00:00 | |
| PG1ADW-2 | 2026-09-05 00:42:02 | 45.74545 | 16.63681 | 340° | 11km/h | 28009m | 4.7m/s | -47.4°C | 2.9% | 0hPa | 2.5V | 00:00:00 | 00:00:00 | 00:00:00 | |
| OE3JTB-15 | 2026-09-05 00:41:57 | 45.74547 | 16.63691 | 192° | 18km/h | 27977m | 5.8m/s | -47.4°C | 2.9% | 0hPa | 2.5V | 00:00:00 | 01:39:21 | 00:00:00 | |
| PETON7-10 | 2026-09-05 00:41:50 | 45.74559 | 16.63707 | 347° | 16km/h | 27935m | 5.4m/s | -47.3°C | 2.8% | 0hPa | 2.5V | 00:00:00 | 01:39:14 | 00:00:00 | |
| OE8JPQ-2 | 2026-09-05 00:41:45 | 45.74553 | 16.63712 | 175° | 18km/h | 27904m | 6.5m/s | -47.4°C | 2.9% | 0hPa | 2.5V | 00:00:00 | 01:39:09 | 00:00:00 | |
| 9A1FER-10 | 2026-09-05 00:41:44 | 45.74556 | 16.63712 | 172° | 16km/h | 27898m | 4.6m/s | -47.4°C | 2.9% | 0hPa | 2.5V | 00:00:00 | 01:39:08 | 00:00:00 | |
| PG1ADW-2 | 2026-09-05 00:41:42 | 45.74566 | 16.63712 | 186° | 20km/h | 27887m | 7.4m/s | -47.4°C | 2.8% | 0hPa | 2.5V | 00:00:00 | 00:00:00 | 00:00:00 | |
| OE5DXL-15 | 2026-09-05 00:41:40 | 45.74579 | 16.63716 | 194° | 18km/h | 27875m | 4.3m/s | -47.3°C | 2.8% | 0hPa | 2.6V | 00:00:00 | 00:00:00 | 00:00:00 | |
| OE5DRO-10 | 2026-09-05 00:41:37 | 45.74597 | 16.63718 | 170° | 18km/h | 27857m | 5.7m/s | -47.4°C | 2.8% | 0hPa | 2.5V | 00:00:00 | 00:00:00 | 08:30:00 | |
| PETON7-10 | 2026-09-05 00:41:34 | 45.74606 | 16.63716 | 164° | 18km/h | 27838m | 5.0m/s | -47.5°C | 2.9% | 0hPa | 2.5V | 00:00:00 | 00:00:00 | 00:00:00 | |
| 9A1FER-10 | 2026-09-05 00:41:29 | 45.74618 | 16.63706 | 171° | 20km/h | 27810m | 6.8m/s | -47.5°C | 2.9% | 0hPa | 2.5V | 00:00:00 | 01:38:53 | 00:00:00 | |
| OE3JTB-15 | 2026-09-05 00:41:27 | 45.74630 | 16.63706 | 186° | 26km/h | 27797m | 5.7m/s | -47.6°C | 2.9% | 0hPa | 2.5V | 00:00:00 | 00:00:00 | 00:00:00 | |
| OE8JPQ-2 | 2026-09-05 00:41:25 | 45.74644 | 16.63706 | 175° | 18km/h | 27785m | 6.9m/s | -47.7°C | 2.9% | 0hPa | 2.6V | 00:00:00 | 00:00:00 | 08:30:00 | |
| PG1ADW-2 | 2026-09-05 00:41:22 | 45.74662 | 16.63700 | 164° | 18km/h | 27768m | 6.6m/s | -47.9°C | 2.9% | 0hPa | 2.5V | 00:00:00 | 01:38:46 | 00:00:00 | |
| PETON7-10 | 2026-09-05 00:41:19 | 45.74674 | 16.63694 | 147° | 18km/h | 27749m | 7.7m/s | -48.0°C | 3.0% | 0hPa | 2.5V | 00:00:00 | 00:00:00 | 00:00:00 | |
| OE5DRO-10 | 2026-09-05 00:41:18 | 45.74677 | 16.63691 | 138° | 20km/h | 27742m | 6.1m/s | -48.0°C | 3.0% | 0hPa | 2.5V | 00:00:00 | 00:00:00 | 00:00:00 | |
| 9A1FER-10 | 2026-09-05 00:41:14 | 45.74689 | 16.63685 | 186° | 22km/h | 27717m | 5.9m/s | -48.0°C | 3.0% | 0hPa | 2.5V | 00:00:00 | 01:38:38 | 00:00:00 | |
| OE5DXL-15 | 2026-09-05 00:41:10 | 45.74708 | 16.63682 | 170° | 24km/h | 27690m | 7.4m/s | -48.0°C | 3.0% | 0hPa | 2.5V | 00:00:00 | 00:00:00 | 00:00:00 | |
| OE8JPQ-2 | 2026-09-05 00:41:05 | 45.74729 | 16.63661 | 127° | 26km/h | 27658m | 6.2m/s | -47.9°C | 2.9% | 0hPa | 2.5V | 00:00:00 | 00:00:00 | 00:00:00 | |
| PETON7-10 | 2026-09-05 00:41:04 | 45.74732 | 16.63654 | 129° | 24km/h | 27651m | 6.8m/s | -47.9°C | 2.9% | 0hPa | 2.5V | 00:00:00 | 01:38:28 | 00:00:00 | |
| 9A1FER-3 | 2026-09-05 00:41:02 | 45.74740 | 16.63642 | 139° | 26km/h | 27640m | 5.7m/s | -47.9°C | 2.9% | 0hPa | 2.5V | 00:00:00 | 01:38:26 | 00:00:00 | |
| 9A1FER-10 | 2026-09-05 00:40:59 | 45.74757 | 16.63627 | 159° | 26km/h | 27620m | 6.2m/s | -47.9°C | 2.9% | 0hPa | 2.5V | 00:00:00 | 01:38:23 | 00:00:00 | |
| OE5DRO-10 | 2026-09-05 00:40:58 | 45.74763 | 16.63624 | 168° | 24km/h | 27614m | 7.2m/s | -48.0°C | 2.9% | 0hPa | 2.5V | 00:00:00 | 00:00:00 | 00:00:00 | |
| PETON7-10 | 2026-09-05 00:40:49 | 45.74809 | 16.63590 | 142° | 26km/h | 27558m | 7.5m/s | -48.2°C | 3.0% | 0hPa | 2.5V | 00:00:00 | 00:00:00 | 00:00:00 | |
| 9A1FER-3 | 2026-09-05 00:40:47 | 45.74822 | 16.63577 | 149° | 24km/h | 27546m | 5.3m/s | -48.2°C | 3.0% | 0hPa | 2.5V | 00:00:00 | 01:38:11 | 00:00:00 | |
| OE8JPQ-2 | 2026-09-05 00:40:44 | 45.74842 | 16.63567 | 171° | 24km/h | 27527m | 5.0m/s | -48.4°C | 3.1% | 0hPa | 2.5V | 00:00:00 | 01:38:08 | 00:00:00 | |
| PG1ADW-2 | 2026-09-05 00:40:42 | 45.74853 | 16.63562 | 157° | 24km/h | 27514m | 7.0m/s | -48.5°C | 3.1% | 0hPa | 2.5V | 00:00:00 | 00:00:00 | 08:30:00 | |
| OE5DXL-15 | 2026-09-05 00:40:40 | 45.74864 | 16.63554 | 145° | 24km/h | 27501m | 6.2m/s | -48.5°C | 3.1% | 0hPa | 2.5V | 00:00:00 | 00:00:00 | 00:00:00 | |
| OE5DRO-10 | 2026-09-05 00:40:38 | 45.74872 | 16.63545 | 137° | 24km/h | 27489m | 4.9m/s | -48.5°C | 3.0% | 0hPa | 2.5V | 00:00:00 | 00:00:00 | 00:00:00 | |
| PETON7-10 | 2026-09-05 00:40:34 | 45.74885 | 16.63517 | 125° | 24km/h | 27464m | 5.7m/s | -48.5°C | 3.1% | 0hPa | 2.6V | 00:00:00 | 00:00:00 | 00:00:00 | |
| 9A1FER-3 | 2026-09-05 00:40:32 | 45.74893 | 16.63504 | 144° | 26km/h | 27450m | 6.4m/s | -48.4°C | 3.0% | 0hPa | 2.6V | 00:00:00 | 01:37:56 | 00:00:00 | |
| 9A1FER-10 | 2026-09-05 00:40:29 | 45.74908 | 16.63493 | 149° | 26km/h | 27432m | 6.9m/s | -48.4°C | 3.0% | 0hPa | 2.6V | 00:00:00 | 01:37:53 | 00:00:00 | |
| OE8JPQ-2 | 2026-09-05 00:40:24 | 45.74928 | 16.63466 | 119° | 27km/h | 27399m | 7.5m/s | -48.3°C | 3.0% | 0hPa | 2.6V | 00:00:00 | 00:00:00 | 00:00:00 | |
| PG1ADW-2 | 2026-09-05 00:40:22 | 45.74935 | 16.63447 | 116° | 27km/h | 27387m | 6.0m/s | -48.2°C | 3.0% | 0hPa | 2.5V | 00:00:00 | 00:00:00 | 00:00:00 | |
| PETON7-10 | 2026-09-05 00:40:19 | 45.74946 | 16.63421 | 130° | 27km/h | 27368m | 5.7m/s | -48.2°C | 3.0% | 0hPa | 2.5V | 00:00:00 | 01:37:43 | 00:00:00 | |
| 9A1FER-3 | 2026-09-05 00:40:17 | 45.74955 | 16.63406 | 132° | 27km/h | 27355m | 6.1m/s | -48.3°C | 2.9% | 0hPa | 2.5V | 00:00:00 | 01:37:41 | 00:00:00 | |
| OE5DXL-15 | 2026-09-05 00:40:10 | 45.74980 | 16.63361 | 105° | 24km/h | 27310m | 6.5m/s | -48.5°C | 3.0% | 0hPa | 2.5V | 00:00:00 | 00:00:00 | 00:00:00 | |
| OE8JPQ-2 | 2026-09-05 00:40:04 | 45.74994 | 16.63298 | 116° | 24km/h | 27273m | 5.9m/s | -48.6°C | 3.0% | 0hPa | 2.5V | 00:00:00 | 00:00:00 | 00:00:00 | |
| PG1ADW-2 | 2026-09-05 00:40:02 | 45.75003 | 16.63272 | 114° | 22km/h | 27254m | 5.4m/s | -48.7°C | 3.1% | 0hPa | 2.5V | 00:00:00 | 01:37:25 | 00:00:00 | |
| 9A1FER-10 | 2026-09-05 00:39:59 | 45.75006 | 16.63258 | 99° | 24km/h | 27241m | 6.7m/s | -48.7°C | 3.1% | 0hPa | 2.5V | 00:00:00 | 01:37:23 | 08:30:00 | |
| OE5DRO-10 | 2026-09-05 00:39:58 | 45.75007 | 16.63250 | 93° | 22km/h | 27235m | 5.3m/s | -48.7°C | 3.1% | 0hPa | 2.6V | 00:00:00 | 00:00:00 | 00:00:00 | |
| PETON7-10 | 2026-09-05 00:39:49 | 45.75013 | 16.63169 | 108° | 20km/h | 27178m | 5.6m/s | -48.8°C | 3.1% | 0hPa | 2.6V | 00:00:00 | 00:00:00 | 00:00:00 | |
| 9A1FER-3 | 2026-09-05 00:39:47 | 45.75017 | 16.63153 | 110° | 20km/h | 27165m | 7.1m/s | -48.8°C | 3.1% | 0hPa | 2.6V | 00:00:00 | 01:37:11 | 00:00:00 | |
| OE8JPQ-2 | 2026-09-05 00:39:44 | 45.75021 | 16.63132 | 99° | 18km/h | 27145m | 6.4m/s | -48.9°C | 3.1% | 0hPa | 2.6V | 00:00:00 | 01:37:08 | 00:00:00 | |
| PG1ADW-2 | 2026-09-05 00:39:42 | 45.75022 | 16.63123 | 97° | 20km/h | 27135m | 6.1m/s | -48.9°C | 3.1% | 0hPa | 2.6V | 00:00:00 | 00:00:00 | 00:00:00 | |
| OE5DXL-15 | 2026-09-05 00:39:40 | 45.75024 | 16.63110 | 110° | 20km/h | 27121m | 5.8m/s | -48.9°C | 3.1% | 0hPa | 2.5V | 00:00:00 | 00:00:00 | 00:00:00 | |
| OE5DRO-10 | 2026-09-05 00:39:38 | 45.75028 | 16.63094 | 112° | 18km/h | 27110m | 6.6m/s | -48.9°C | 3.1% | 0hPa | 2.5V | 00:00:00 | 00:00:00 | 00:00:00 | |
| PETON7-10 | 2026-09-05 00:39:34 | 45.75034 | 16.63065 | 107° | 18km/h | 27084m | 7.3m/s | -48.8°C | 3.1% | 0hPa | 2.5V | 00:00:00 | 01:36:58 | 00:00:00 | |
| 9A1FER-3 | 2026-09-05 00:39:32 | 45.75038 | 16.63051 | 110° | 18km/h | 27072m | 5.9m/s | -48.8°C | 3.1% | 0hPa | 2.5V | 00:00:00 | 01:36:56 | 00:00:00 | |
| 9A1FER-10 | 2026-09-05 00:39:29 | 45.75041 | 16.63036 | 107° | 18km/h | 27053m | 5.0m/s | -48.8°C | 3.0% | 0hPa | 2.5V | 00:00:00 | 01:36:53 | 00:00:00 | |
| OE8JPQ-2 | 2026-09-05 00:39:24 | 45.75048 | 16.63003 | 101° | 20km/h | 27022m | 6.8m/s | -48.8°C | 3.0% | 0hPa | 2.5V | 00:00:00 | 00:00:00 | 00:00:00 | |
| PG1ADW-2 | 2026-09-05 00:39:22 | 45.75049 | 16.62989 | 102° | 20km/h | 27010m | 6.3m/s | -48.8°C | 3.0% | 0hPa | 2.5V | 00:00:00 | 00:00:00 | 00:00:00 | |
| OE5DRO-10 | 2026-09-05 00:39:19 | 45.75054 | 16.62968 | 105° | 22km/h | 26990m | 6.1m/s | -48.9°C | 3.1% | 0hPa | 2.5V | 00:00:00 | 00:00:00 | 00:00:00 | |
| PETON7-10 | 2026-09-05 00:39:18 | 45.75055 | 16.62961 | 96° | 20km/h | 26983m | 7.4m/s | -49.0°C | 3.1% | 0hPa | 2.5V | 00:00:00 | 00:00:00 | 00:00:00 | |
| 9A1FER-3 | 2026-09-05 00:39:17 | 45.75055 | 16.62956 | 85° | 20km/h | 26977m | 5.4m/s | -49.1°C | 3.1% | 0hPa | 2.5V | 00:00:00 | 01:36:41 | 00:00:00 | |
| 9A1FER-10 | 2026-09-05 00:39:14 | 45.75053 | 16.62936 | 84° | 24km/h | 26958m | 5.4m/s | -49.1°C | 3.1% | 0hPa | 2.6V | 00:00:00 | 01:36:38 | 00:00:00 | |
| OE5DXL-15 | 2026-09-05 00:39:10 | 45.75049 | 16.62909 | 86° | 24km/h | 26933m | 5.3m/s | -49.3°C | 3.1% | 0hPa | 2.5V | 00:00:00 | 00:00:00 | 00:00:00 | |
| OE8JPQ-2 | 2026-09-05 00:39:04 | 45.75050 | 16.62861 | 77° | 26km/h | 26898m | 5.0m/s | -49.5°C | 3.2% | 0hPa | 2.5V | 00:00:00 | 00:00:00 | 00:00:00 | |
| PETON7-10 | 2026-09-05 00:39:03 | 45.75049 | 16.62853 | 78° | 24km/h | 26892m | 6.3m/s | -49.4°C | 3.2% | 0hPa | 2.5V | 00:00:00 | 00:00:00 | 00:00:00 | |
| 9A1FER-3 | 2026-09-05 00:39:02 | 45.75047 | 16.62844 | 80° | 26km/h | 26885m | 6.6m/s | -49.4°C | 3.2% | 0hPa | 2.5V | 00:00:00 | 01:36:26 | 00:00:00 | |
| OE5DRO-10 | 2026-09-05 00:39:00 | 45.75045 | 16.62823 | 81° | 26km/h | 26873m | 5.8m/s | -49.4°C | 3.2% | 0hPa | 2.5V | 00:00:00 | 00:00:00 | 00:00:00 | |
| 9A1FER-10 | 2026-09-05 00:38:59 | 45.75044 | 16.62813 | 80° | 24km/h | 26866m | 7.4m/s | -49.3°C | 3.2% | 0hPa | 2.5V | 00:00:00 | 01:36:23 | 00:00:00 | |
| 9A1FER-3 | 2026-09-05 00:38:47 | 45.75034 | 16.62712 | 66° | 18km/h | 26793m | 5.6m/s | -49.0°C | 3.2% | 0hPa | 2.5V | 00:00:00 | 01:36:11 | 00:00:00 | |
| OE3JTB-15 | 2026-09-05 00:38:45 | 45.75027 | 16.62695 | 52° | 20km/h | 26780m | 5.9m/s | -49.0°C | 3.1% | 0hPa | 2.5V | 00:00:00 | 00:00:00 | 08:30:00 | |
| OE8JPQ-2 | 2026-09-05 00:38:44 | 45.75022 | 16.62688 | 50° | 18km/h | 26774m | 6.0m/s | -48.9°C | 3.1% | 0hPa | 2.6V | 00:00:00 | 01:36:08 | 00:00:00 | |
| PG1ADW-2 | 2026-09-05 00:38:42 | 45.75014 | 16.62672 | 57° | 15km/h | 26761m | 5.2m/s | -48.9°C | 3.1% | 0hPa | 2.6V | 00:00:00 | 01:36:06 | 00:00:00 | |
| OE5DRO-10 | 2026-09-05 00:38:41 | 45.75011 | 16.62665 | 59° | 15km/h | 26756m | 5.8m/s | -48.9°C | 3.1% | 0hPa | 2.5V | 00:00:00 | 00:00:00 | 08:30:00 | |
| OE5DXL-15 | 2026-09-05 00:38:40 | 45.75008 | 16.62660 | 63° | 13km/h | 26750m | 7.0m/s | -48.9°C | 3.1% | 0hPa | 2.5V | 00:00:00 | 01:36:04 | 08:30:00 | |
| PETON7-10 | 2026-09-05 00:38:33 | 45.75004 | 16.62624 | 55° | 13km/h | 26709m | 6.3m/s | -49.0°C | 3.1% | 0hPa | 2.6V | 00:00:00 | 00:00:00 | 00:00:00 | |
| 9A1FER-10 | 2026-09-05 00:38:29 | 45.74990 | 16.62608 | 40° | 11km/h | 26684m | 5.9m/s | -49.1°C | 3.2% | 0hPa | 2.5V | 00:00:00 | 01:35:53 | 00:00:00 | |
| OE8JPQ-2 | 2026-09-05 00:38:24 | 45.74974 | 16.62599 | 10° | 7km/h | 26651m | 7.7m/s | -49.0°C | 3.1% | 0hPa | 2.5V | 00:00:00 | 00:00:00 | 08:30:00 | |
| PG1ADW-2 | 2026-09-05 00:38:22 | 45.74971 | 16.62598 | 7° | 7km/h | 26640m | 5.1m/s | -49.0°C | 3.1% | 0hPa | 2.6V | 00:00:00 | 00:00:00 | 00:00:00 | |
| PETON7-10 | 2026-09-05 00:38:18 | 45.74963 | 16.62601 | 359° | 7km/h | 26614m | 6.6m/s | -49.0°C | 3.1% | 0hPa | 2.6V | 00:00:00 | 00:00:00 | 00:00:00 | |
| 9A1FER-10 | 2026-09-05 00:38:14 | 45.74951 | 16.62602 | 345° | 5km/h | 26590m | 5.3m/s | -49.1°C | 3.1% | 0hPa | 2.6V | 00:00:00 | 01:35:38 | 00:00:00 | |
| 9A1FER-3 | 2026-09-05 00:38:13 | 45.74948 | 16.62603 | 346° | 5km/h | 26585m | 5.8m/s | -49.1°C | 3.2% | 0hPa | 2.6V | 00:00:00 | 01:35:37 | 00:00:00 | |
| OE5DXL-15 | 2026-09-05 00:38:10 | 45.74944 | 16.62604 | 253° | 7km/h | 26567m | 5.4m/s | -49.1°C | 3.2% | 0hPa | 2.5V | 00:00:00 | 00:00:00 | 00:00:00 | |
| OE8JPQ-2 | 2026-09-05 00:38:04 | 45.74946 | 16.62612 | 262° | 7km/h | 26531m | 6.2m/s | -48.9°C | 3.2% | 0hPa | 2.5V | 00:00:00 | 00:00:00 | 00:00:00 | |
| PETON7-10 | 2026-09-05 00:38:03 | 45.74946 | 16.62614 | 274° | 7km/h | 26525m | 6.1m/s | -48.9°C | 3.2% | 0hPa | 2.5V | 00:00:00 | 01:35:27 | 00:00:00 | |
| PG1ADW-2 | 2026-09-05 00:38:01 | 45.74946 | 16.62619 | 266° | 7km/h | 26515m | 5.8m/s | -48.9°C | 3.1% | 0hPa | 2.5V | 00:00:00 | 00:00:00 | 00:00:00 | |
| 9A1FER-10 | 2026-09-05 00:37:59 | 45.74947 | 16.62619 | 129° | 9km/h | 26502m | 5.0m/s | -48.8°C | 3.1% | 0hPa | 2.5V | 00:00:00 | 01:35:23 | 00:00:00 | |
| 9A1FER-3 | 2026-09-05 00:37:58 | 45.74947 | 16.62618 | 128° | 9km/h | 26497m | 4.8m/s | -48.8°C | 3.1% | 0hPa | 2.5V | 00:00:00 | 01:35:22 | 00:00:00 | |
| PETON7-10 | 2026-09-05 00:37:48 | 45.74970 | 16.62618 | 155° | 13km/h | 26439m | 6.3m/s | -48.7°C | 3.1% | 0hPa | 2.5V | 00:00:00 | 00:00:00 | 08:30:00 | |
| OE8JPQ-2 | 2026-09-05 00:37:44 | 45.74975 | 16.62607 | 108° | 15km/h | 26414m | 6.5m/s | -48.8°C | 3.1% | 0hPa | 2.5V | 00:00:00 | 01:35:08 | 00:00:00 | |
| PG1ADW-2 | 2026-09-05 00:37:41 | 45.74978 | 16.62601 | 135° | 16km/h | 26397m | 6.4m/s | -48.8°C | 3.1% | 0hPa | 2.5V | 00:00:00 | 00:00:00 | 08:30:00 | |
| OE5DXL-15 | 2026-09-05 00:37:40 | 45.74980 | 16.62599 | 146° | 20km/h | 26390m | 5.4m/s | -48.8°C | 3.1% | 0hPa | 2.5V | 00:00:00 | 00:00:00 | 00:00:00 | |
| 9A1FER-3 | 2026-09-05 00:37:34 | 45.75004 | 16.62583 | 149° | 18km/h | 26356m | 4.7m/s | -48.7°C | 3.1% | 0hPa | 2.5V | 00:00:00 | 01:34:58 | 00:00:00 | |
| PETON7-10 | 2026-09-05 00:37:33 | 45.75009 | 16.62579 | 146° | 20km/h | 26351m | 4.8m/s | -48.7°C | 3.1% | 0hPa | 2.5V | 00:00:00 | 00:00:00 | 00:00:00 | |
| 9A1FER-10 | 2026-09-05 00:37:29 | 45.75019 | 16.62566 | 120° | 22km/h | 26329m | 6.5m/s | -48.6°C | 3.0% | 0hPa | 2.5V | 00:00:00 | 01:34:53 | 00:00:00 | |
| OE5DRO-10 | 2026-09-05 00:37:25 | 45.75028 | 16.62547 | 130° | 24km/h | 26305m | 5.9m/s | -48.7°C | 3.0% | 0hPa | 2.5V | 00:00:00 | 00:00:00 | 00:00:00 | |
| OE8JPQ-2 | 2026-09-05 00:37:24 | 45.75031 | 16.62542 | 134° | 24km/h | 26299m | 4.8m/s | -48.8°C | 3.0% | 0hPa | 2.5V | 00:00:00 | 00:00:00 | 00:00:00 | |
| PG1ADW-2 | 2026-09-05 00:37:21 | 45.75046 | 16.62522 | 137° | 24km/h | 26281m | 4.7m/s | -48.9°C | 3.0% | 0hPa | 2.5V | 00:00:00 | 01:34:45 | 00:00:00 | |
| PETON7-10 | 2026-09-05 00:37:18 | 45.75062 | 16.62499 | 130° | 22km/h | 26265m | 4.6m/s | -49.0°C | 3.1% | 0hPa | 2.5V | 00:00:00 | 01:34:42 | 00:00:00 | |
| OE3JTB-15 | 2026-09-05 00:37:17 | 45.75065 | 16.62492 | 122° | 26km/h | 26259m | 5.7m/s | -49.0°C | 3.1% | 0hPa | 2.5V | 00:00:00 | 00:00:00 | 00:00:00 | |
| 9A1FER-10 | 2026-09-05 00:37:14 | 45.75071 | 16.62468 | 97° | 22km/h | 26242m | 4.7m/s | -49.1°C | 3.1% | 0hPa | 2.5V | 00:00:00 | 01:34:38 | 00:00:00 | |
| OE5DXL-15 | 2026-09-05 00:37:10 | 45.75070 | 16.62438 | 93° | 18km/h | 26218m | 6.6m/s | -49.2°C | 3.1% | 0hPa | 2.5V | 00:00:00 | 00:00:00 | 00:00:00 | |
| OE5DRO-10 | 2026-09-05 00:37:06 | 45.75075 | 16.62404 | 107° | 18km/h | 26196m | 6.0m/s | -49.3°C | 3.2% | 0hPa | 2.5V | 00:00:00 | 00:00:00 | 00:00:00 | |
| OE8JPQ-2 | 2026-09-05 00:37:04 | 45.75078 | 16.62391 | 104° | 16km/h | 26184m | 6.6m/s | 0°C | 0% | 0hPa | 2.5V | 00:00:00 | 00:00:00 | 00:00:00 | |
| PETON7-10 | 2026-09-05 00:37:03 | 45.75079 | 16.62384 | 95° | 18km/h | 26178m | 5.0m/s | -49.3°C | 3.2% | 0hPa | 2.5V | 00:00:00 | 00:00:00 | 00:00:00 | |
| PG1ADW-2 | 2026-09-05 00:37:01 | 45.75077 | 16.62370 | 67° | 16km/h | 26168m | 6.8m/s | -49.3°C | 3.2% | 0hPa | 2.5V | 00:00:00 | 00:00:00 | 00:00:00 | |
| 9A1FER-10 | 2026-09-05 00:36:59 | 45.75071 | 16.62359 | 38° | 16km/h | 26155m | 4.9m/s | -49.3°C | 3.2% | 0hPa | 2.5V | 00:00:00 | 01:34:23 | 00:00:00 | |
| 9A1FER-3 | 2026-09-05 00:36:53 | 45.75054 | 16.62327 | 73° | 15km/h | 26121m | 4.2m/s | -49.1°C | 3.1% | 0hPa | 2.5V | 00:00:00 | 01:34:17 | 08:30:00 | |
| PETON7-10 | 2026-09-05 00:36:48 | 45.75052 | 16.62300 | 67° | 13km/h | 26093m | 6.2m/s | -49.0°C | 3.1% | 0hPa | 2.5V | 00:00:00 | 00:00:00 | 00:00:00 | |
| OE5DRO-10 | 2026-09-05 00:36:47 | 45.75051 | 16.62297 | 41° | 13km/h | 26087m | 5.4m/s | -48.9°C | 3.1% | 0hPa | 2.5V | 00:00:00 | 00:00:00 | 00:00:00 | |
| OE8JPQ-2 | 2026-09-05 00:36:44 | 45.75043 | 16.62291 | 44° | 11km/h | 26071m | 5.6m/s | 0°C | 0% | 0hPa | 2.5V | 00:00:00 | 01:34:08 | 00:00:00 | |
| PG1ADW-2 | 2026-09-05 00:36:41 | 45.75037 | 16.62278 | 50° | 11km/h | 26055m | 6.5m/s | -49.0°C | 3.1% | 0hPa | 2.5V | 00:00:00 | 00:00:00 | 00:00:00 | |
| OE5DXL-15 | 2026-09-05 00:36:40 | 45.75034 | 16.62275 | 38° | 9km/h | 26049m | 5.8m/s | -49.1°C | 3.1% | 0hPa | 2.6V | 00:00:00 | 00:00:00 | 00:00:00 | |
| 9A1FER-3 | 2026-09-05 00:36:38 | 45.75029 | 16.62270 | 38° | 11km/h | 26037m | 6.8m/s | -49.1°C | 3.1% | 0hPa | 2.6V | 00:00:00 | 01:34:02 | 00:00:00 | |
| PETON7-10 | 2026-09-05 00:36:33 | 45.75014 | 16.62257 | 358° | 9km/h | 26008m | 5.3m/s | -49.2°C | 3.1% | 0hPa | 2.6V | 00:00:00 | 01:33:57 | 00:00:00 | |
| 9A1FER-10 | 2026-09-05 00:36:29 | 45.75005 | 16.62257 | 341° | 7km/h | 25984m | 6.7m/s | -49.3°C | 3.1% | 0hPa | 2.6V | 00:00:00 | 01:33:53 | 00:00:00 | |
| OE5DRO-10 | 2026-09-05 00:36:28 | 45.75004 | 16.62258 | 315° | 7km/h | 25977m | 5.8m/s | -49.3°C | 3.1% | 0hPa | 2.6V | 00:00:00 | 00:00:00 | 00:00:00 | |
| OE8JPQ-2 | 2026-09-05 00:36:24 | 45.74996 | 16.62262 | 15° | 7km/h | 25956m | 5.2m/s | 0°C | 0% | 0hPa | 2.6V | 00:00:00 | 00:00:00 | 00:00:00 | |
| 9A1FER-3 | 2026-09-05 00:36:23 | 45.74993 | 16.62261 | 12° | 7km/h | 25950m | 5.7m/s | -49.5°C | 3.2% | 0hPa | 2.6V | 00:00:00 | 01:33:47 | 00:00:00 | |
| PG1ADW-2 | 2026-09-05 00:36:21 | 45.74989 | 16.62260 | 355° | 7km/h | 25938m | 4.9m/s | -49.6°C | 3.2% | 0hPa | 2.6V | 00:00:00 | 00:00:00 | 00:00:00 | |
| PETON7-10 | 2026-09-05 00:36:18 | 45.74983 | 16.62259 | 21° | 7km/h | 25922m | 4.7m/s | -49.6°C | 3.2% | 0hPa | 2.6V | 00:00:00 | 00:00:00 | 00:00:00 | |
| 9A1FER-10 | 2026-09-05 00:36:14 | 45.74981 | 16.62258 | 180° | 9km/h | 25900m | 5.0m/s | -49.6°C | 3.1% | 0hPa | 2.5V | 00:00:00 | 01:33:38 | 00:00:00 | |
| OE5DXL-15 | 2026-09-05 00:36:10 | 45.74985 | 16.62249 | 109° | 18km/h | 25878m | 5.9m/s | -49.7°C | 3.1% | 0hPa | 2.6V | 00:00:00 | 00:00:00 | 00:00:00 | |
| OE5DRO-10 | 2026-09-05 00:36:09 | 45.74986 | 16.62245 | 111° | 16km/h | 25871m | 6.3m/s | -49.7°C | 3.1% | 0hPa | 2.6V | 00:00:00 | 00:00:00 | 00:00:00 | |
| 9A1FER-3 | 2026-09-05 00:36:08 | 45.74986 | 16.62242 | 98° | 13km/h | 25866m | 5.3m/s | -49.8°C | 3.2% | 0hPa | 2.6V | 00:00:00 | 01:33:32 | 00:00:00 | |
| OE8JPQ-2 | 2026-09-05 00:36:04 | 45.74986 | 16.62229 | 94° | 22km/h | 25843m | 6.7m/s | 0°C | 0% | 0hPa | 2.6V | 00:00:00 | 00:00:00 | 00:00:00 | |
| PETON7-10 | 2026-09-05 00:36:03 | 45.74986 | 16.62226 | 120° | 18km/h | 25837m | 5.5m/s | -50.1°C | 3.2% | 0hPa | 2.6V | 00:00:00 | 00:00:00 | 00:00:00 | |
| PG1ADW-2 | 2026-09-05 00:36:01 | 45.74988 | 16.62222 | 122° | 22km/h | 25827m | 6.2m/s | -50.2°C | 3.2% | 0hPa | 2.6V | 00:00:00 | 01:33:25 | 00:00:00 | |
| 9A1FER-10 | 2026-09-05 00:35:59 | 45.74990 | 16.62214 | 103° | 22km/h | 25815m | 5.3m/s | -50.3°C | 3.3% | 0hPa | 2.6V | 00:00:00 | 01:33:23 | 00:00:00 | |
| 9A1FER-3 | 2026-09-05 00:35:53 | 45.75002 | 16.62171 | 114° | 24km/h | 25779m | 4.6m/s | -50.4°C | 3.3% | 0hPa | 2.6V | 00:00:00 | 01:33:17 | 00:00:00 | |
| OE5DRO-10 | 2026-09-05 00:35:50 | 45.75013 | 16.62144 | 128° | 24km/h | 25763m | 4.7m/s | -50.4°C | 3.3% | 0hPa | 2.6V | 00:00:00 | 00:00:00 | 08:30:00 | |
| PETON7-10 | 2026-09-05 00:35:48 | 45.75019 | 16.62130 | 116° | 24km/h | 25751m | 6.2m/s | -50.5°C | 3.4% | 0hPa | 2.6V | 00:00:00 | 01:33:12 | 00:00:00 | |
| OE8JPQ-2 | 2026-09-05 00:35:42 | 45.75030 | 16.62089 | 101° | 26km/h | 25716m | 6.5m/s | 0°C | 0% | 0hPa | 2.6V | 00:00:00 | 01:33:06 | 00:00:00 | |
| PG1ADW-2 | 2026-09-05 00:35:41 | 45.75030 | 16.62080 | 98° | 26km/h | 25710m | 5.1m/s | -50.5°C | 3.3% | 0hPa | 2.6V | 00:00:00 | 00:00:00 | 00:00:00 | |
| OE5DXL-15 | 2026-09-05 00:35:40 | 45.75032 | 16.62070 | 101° | 24km/h | 25704m | 6.7m/s | -50.5°C | 3.4% | 0hPa | 2.6V | 00:00:00 | 00:00:00 | 00:00:00 | |
| 9A1FER-3 | 2026-09-05 00:35:38 | 45.75035 | 16.62051 | 110° | 26km/h | 25692m | 4.5m/s | -50.5°C | 3.4% | 0hPa | 2.6V | 00:00:00 | 01:33:02 | 00:00:00 | |
| OE3JTB-15 | 2026-09-05 00:35:34 | 45.75041 | 16.62015 | 95° | 22km/h | 25669m | 5.2m/s | -50.4°C | 3.3% | 0hPa | 2.6V | 00:00:00 | 01:32:58 | 00:00:00 | |
| PETON7-10 | 2026-09-05 00:35:32 | 45.75042 | 16.62001 | 94° | 26km/h | 25657m | 5.2m/s | -50.4°C | 3.3% | 0hPa | 2.6V | 00:00:00 | 00:00:00 | 08:30:00 | |
| OE5DRO-10 | 2026-09-05 00:35:31 | 45.75042 | 16.61994 | 93° | 24km/h | 25651m | 5.2m/s | -50.4°C | 3.3% | 0hPa | 2.5V | 00:00:00 | 00:00:00 | 00:00:00 | |
| 9A1FER-10 | 2026-09-05 00:35:29 | 45.75042 | 16.61977 | 91° | 26km/h | 25639m | 4.8m/s | -50.5°C | 3.3% | 0hPa | 2.5V | 00:00:00 | 01:32:53 | 08:30:00 | |
| 9A1FER-3 | 2026-09-05 00:35:23 | 45.75045 | 16.61918 | 89° | 22km/h | 25606m | 4.4m/s | -50.7°C | 3.4% | 0hPa | 2.5V | 00:00:00 | 01:32:47 | 00:00:00 | |
| PG1ADW-2 | 2026-09-05 00:35:21 | 45.75045 | 16.61899 | 92° | 22km/h | 25595m | 6.2m/s | -50.6°C | 3.4% | 0hPa | 2.5V | 00:00:00 | 00:00:00 | 00:00:00 | |
| PETON7-10 | 2026-09-05 00:35:17 | 45.75045 | 16.61866 | 88° | 22km/h | 25572m | 4.9m/s | -50.5°C | 3.4% | 0hPa | 2.5V | 00:00:00 | 00:00:00 | 00:00:00 | |
| 9A1FER-10 | 2026-09-05 00:35:14 | 45.75044 | 16.61843 | 83° | 20km/h | 25555m | 5.4m/s | -50.4°C | 3.3% | 0hPa | 2.5V | 00:00:00 | 01:32:38 | 00:00:00 | |
| OE5DRO-10 | 2026-09-05 00:35:12 | 45.75042 | 16.61830 | 74° | 20km/h | 25543m | 6.6m/s | -50.4°C | 3.3% | 0hPa | 2.5V | 00:00:00 | 00:00:00 | 00:00:00 | |
| OE5DXL-15 | 2026-09-05 00:35:10 | 45.75038 | 16.61814 | 63° | 18km/h | 25532m | 5.0m/s | -50.4°C | 3.2% | 0hPa | 2.5V | 00:00:00 | 00:00:00 | 00:00:00 | |
| 9A1FER-3 | 2026-09-05 00:35:08 | 45.75033 | 16.61801 | 61° | 20km/h | 25520m | 5.3m/s | -50.4°C | 3.2% | 0hPa | 2.5V | 00:00:00 | 01:32:32 | 00:00:00 | |
| OE8JPQ-2 | 2026-09-05 00:35:05 | 45.75028 | 16.61781 | 84° | 20km/h | 25502m | 5.6m/s | 0°C | 0% | 0hPa | 2.5V | 00:00:00 | 00:00:00 | 00:00:00 | |
| OE3JTB-15 | 2026-09-05 00:35:03 | 45.75028 | 16.61766 | 100° | 18km/h | 25490m | 6.8m/s | -50.6°C | 3.3% | 0hPa | 2.5V | 00:00:00 | 00:00:00 | 00:00:00 | |
| PETON7-10 | 2026-09-05 00:35:02 | 45.75029 | 16.61759 | 104° | 18km/h | 25484m | 4.6m/s | -50.7°C | 3.3% | 0hPa | 2.5V | 00:00:00 | 01:32:26 | 00:00:00 | |
| PG1ADW-2 | 2026-09-05 00:35:01 | 45.75030 | 16.61752 | 98° | 18km/h | 25479m | 5.2m/s | -50.8°C | 3.3% | 0hPa | 2.5V | 00:00:00 | 00:00:00 | 00:00:00 | |
| 9A1FER-10 | 2026-09-05 00:34:59 | 45.75030 | 16.61737 | 79° | 18km/h | 25468m | 4.7m/s | -51.0°C | 3.4% | 0hPa | 2.5V | 00:00:00 | 01:32:23 | 00:00:00 | |
| 9A1FER-3 | 2026-09-05 00:34:53 | 45.75014 | 16.61704 | 46° | 16km/h | 25432m | 5.3m/s | -51.0°C | 3.4% | 0hPa | 2.5V | 00:00:00 | 01:32:17 | 00:00:00 | |
| PETON7-10 | 2026-09-05 00:34:47 | 45.75001 | 16.61677 | 64° | 18km/h | 25396m | 5.1m/s | -51.3°C | 3.5% | 0hPa | 2.5V | 00:00:00 | 00:00:00 | 00:00:00 | |
| 9A1FER-10 | 2026-09-05 00:34:44 | 45.74994 | 16.61661 | 60° | 18km/h | 25379m | 5.0m/s | -51.3°C | 3.4% | 0hPa | 2.6V | 00:00:00 | 01:32:08 | 00:00:00 | |
| PG1ADW-2 | 2026-09-05 00:34:41 | 45.74988 | 16.61646 | 55° | 18km/h | 25362m | 4.9m/s | -51.4°C | 3.5% | 0hPa | 2.5V | 00:00:00 | 01:32:05 | 08:30:00 | |
| OE5DXL-15 | 2026-09-05 00:34:40 | 45.74985 | 16.61641 | 49° | 16km/h | 25357m | 4.9m/s | -51.4°C | 3.5% | 0hPa | 2.5V | 00:00:00 | 00:00:00 | 00:00:00 | |
| 9A1FER-3 | 2026-09-05 00:34:38 | 45.74978 | 16.61632 | 30° | 18km/h | 25344m | 5.5m/s | -51.5°C | 3.5% | 0hPa | 2.5V | 00:00:00 | 01:32:02 | 08:30:00 | |
| OE5DRO-10 | 2026-09-05 00:34:34 | 45.74962 | 16.61617 | 45° | 18km/h | 25322m | 4.6m/s | -51.5°C | 3.5% | 0hPa | 2.5V | 00:00:00 | 00:00:00 | 00:00:00 | |
| PETON7-10 | 2026-09-05 00:34:32 | 45.74955 | 16.61607 | 42° | 16km/h | 25309m | 5.9m/s | -51.5°C | 3.5% | 0hPa | 2.5V | 00:00:00 | 00:00:00 | 00:00:00 | |
| 9A1FER-10 | 2026-09-05 00:34:29 | 45.74944 | 16.61593 | 45° | 16km/h | 25291m | 5.2m/s | -51.5°C | 3.5% | 0hPa | 2.5V | 00:00:00 | 01:31:53 | 00:00:00 | |
| 9A1FER-3 | 2026-09-05 00:34:23 | 45.74923 | 16.61578 | 28° | 15km/h | 25256m | 6.3m/s | -51.4°C | 3.5% | 0hPa | 2.5V | 00:00:00 | 01:31:47 | 00:00:00 | |
| PG1ADW-2 | 2026-09-05 00:34:21 | 45.74916 | 16.61571 | 41° | 13km/h | 25244m | 5.9m/s | -51.4°C | 3.5% | 0hPa | 2.5V | 00:00:00 | 00:00:00 | 00:00:00 | |
| PETON7-10 | 2026-09-05 00:34:17 | 45.74904 | 16.61552 | 60° | 13km/h | 25220m | 6.3m/s | -51.4°C | 3.5% | 0hPa | 2.5V | 00:00:00 | 01:31:41 | 00:00:00 | |
| OE5DRO-10 | 2026-09-05 00:34:15 | 45.74899 | 16.61540 | 54° | 11km/h | 25208m | 6.6m/s | -51.3°C | 3.5% | 0hPa | 2.5V | 00:00:00 | 00:00:00 | 00:00:00 | |
| 9A1FER-10 | 2026-09-05 00:34:14 | 45.74896 | 16.61536 | 43° | 11km/h | 25202m | 5.9m/s | -51.4°C | 3.5% | 0hPa | 2.5V | 00:00:00 | 01:31:38 | 00:00:00 | |
| OE5DXL-15 | 2026-09-05 00:34:11 | 45.74889 | 16.61527 | 64° | 7km/h | 25179m | 4.7m/s | -51.3°C | 3.5% | 0hPa | 2.5V | 00:00:00 | 00:00:00 | 08:30:00 | |
| 9A1FER-3 | 2026-09-05 00:34:08 | 45.74888 | 16.61523 | 32° | 11km/h | 25169m | 6.0m/s | -51.3°C | 3.5% | 0hPa | 2.6V | 00:00:00 | 01:31:32 | 00:00:00 | |
| PETON7-10 | 2026-09-05 00:34:02 | 45.74878 | 16.61501 | 74° | 11km/h | 25134m | 6.5m/s | -51.2°C | 3.5% | 0hPa | 2.6V | 00:00:00 | 00:00:00 | 00:00:00 | |
| PG1ADW-2 | 2026-09-05 00:34:01 | 45.74877 | 16.61497 | 82° | 15km/h | 25128m | 4.7m/s | -51.2°C | 3.4% | 0hPa | 2.5V | 00:00:00 | 00:00:00 | 00:00:00 | |
| 9A1FER-10 | 2026-09-05 00:33:59 | 45.74877 | 16.61490 | 98° | 15km/h | 25117m | 6.5m/s | -51.1°C | 3.4% | 0hPa | 2.5V | 00:00:00 | 01:31:23 | 00:00:00 | |
| OE5DRO-10 | 2026-09-05 00:33:56 | 45.74878 | 16.61480 | 96° | 16km/h | 25099m | 7.2m/s | -51.1°C | 3.4% | 0hPa | 2.6V | 00:00:00 | 00:00:00 | 00:00:00 | |
| 9A1FER-3 | 2026-09-05 00:33:53 | 45.74879 | 16.61473 | 92° | 18km/h | 25082m | 6.7m/s | -51.2°C | 3.5% | 0hPa | 2.5V | 00:00:00 | 01:31:17 | 00:00:00 | |
| PETON7-10 | 2026-09-05 00:33:47 | 45.74877 | 16.61437 | 97° | 20km/h | 25048m | 7.1m/s | -51.1°C | 3.4% | 0hPa | 2.6V | 00:00:00 | 00:00:00 | 00:00:00 | |
| 9A1FER-10 | 2026-09-05 00:33:44 | 45.74883 | 16.61415 | 126° | 18km/h | 25029m | 7.1m/s | -51.0°C | 3.4% | 0hPa | 2.6V | 00:00:00 | 01:31:08 | 00:00:00 | |
| PG1ADW-2 | 2026-09-05 00:33:41 | 45.74891 | 16.61401 | 125° | 18km/h | 25012m | 6.5m/s | -51.0°C | 3.4% | 0hPa | 2.6V | 00:00:00 | 00:00:00 | 00:00:00 | |
| 9A1FER-3 | 2026-09-05 00:33:38 | 45.74895 | 16.61383 | 95° | 18km/h | 24994m | 6.6m/s | -51.1°C | 3.5% | 0hPa | 2.5V | 00:00:00 | 01:31:02 | 00:00:00 | |
| OE5DRO-10 | 2026-09-05 00:33:37 | 45.74895 | 16.61377 | 81° | 20km/h | 24988m | 6.1m/s | -51.1°C | 3.4% | 0hPa | 2.5V | 00:00:00 | 00:00:00 | 00:00:00 | |
| PETON7-10 | 2026-09-05 00:33:32 | 45.74885 | 16.61343 | 60° | 22km/h | 24957m | 6.3m/s | -51.1°C | 3.4% | 0hPa | 2.5V | 00:00:00 | 01:30:56 | 00:00:00 | |
| 9A1FER-10 | 2026-09-05 00:33:29 | 45.74879 | 16.61325 | 74° | 24km/h | 24938m | 5.8m/s | -51.2°C | 3.4% | 0hPa | 2.5V | 00:00:00 | 01:30:53 | 00:00:00 | |
| 9A1FER-3 | 2026-09-05 00:33:23 | 45.74875 | 16.61289 | 77° | 27km/h | 24903m | 5.4m/s | -51.6°C | 3.5% | 0hPa | 2.5V | 00:00:00 | 01:30:47 | 00:00:00 | |
| OE5DRO-10 | 2026-09-05 00:33:18 | 45.74856 | 16.61246 | 51° | 24km/h | 24873m | 6.0m/s | -51.7°C | 3.5% | 0hPa | 2.5V | 00:00:00 | 00:00:00 | 00:00:00 | |
| PETON7-10 | 2026-09-05 00:33:17 | 45.74851 | 16.61238 | 50° | 24km/h | 24867m | 4.9m/s | -51.7°C | 3.5% | 0hPa | 2.5V | 00:00:00 | 00:00:00 | 08:30:00 | |
| 9A1FER-10 | 2026-09-05 00:33:14 | 45.74836 | 16.61217 | 40° | 22km/h | 24850m | 4.4m/s | -51.7°C | 3.5% | 0hPa | 2.5V | 00:00:00 | 01:30:38 | 08:30:00 | |
| 9A1FER-3 | 2026-09-05 00:33:08 | 45.74811 | 16.61181 | 37° | 20km/h | 24814m | 5.7m/s | -51.8°C | 3.5% | 0hPa | 2.6V | 00:00:00 | 01:30:32 | 00:00:00 | |
| PETON7-10 | 2026-09-05 00:33:02 | 45.74787 | 16.61152 | 32° | 20km/h | 24779m | 4.2m/s | -51.9°C | 3.5% | 0hPa | 2.5V | 00:00:00 | 00:00:00 | 00:00:00 | |
| PG1ADW-2 | 2026-09-05 00:33:01 | 45.74783 | 16.61148 | 33° | 20km/h | 24774m | 6.0m/s | -51.9°C | 3.6% | 0hPa | 2.5V | 00:00:00 | 00:00:00 | 00:00:00 | |
| 9A1FER-10 | 2026-09-05 00:32:59 | 45.74774 | 16.61139 | 32° | 18km/h | 24763m | 5.0m/s | -51.9°C | 3.6% | 0hPa | 2.5V | 00:00:00 | 01:30:23 | 00:00:00 | |
| 9A1FER-3 | 2026-09-05 00:32:53 | 45.74746 | 16.61124 | 24° | 18km/h | 24729m | 4.2m/s | -52.0°C | 3.6% | 0hPa | 2.5V | 00:00:00 | 01:30:17 | 00:00:00 | |
| 9A1FER-10 | 2026-09-05 00:32:44 | 45.74706 | 16.61122 | 355° | 15km/h | 24677m | 5.2m/s | -51.9°C | 3.5% | 0hPa | 2.5V | 00:00:00 | 01:30:08 | 00:00:00 | |
| OE5DRO-10 | 2026-09-05 00:32:40 | 45.74687 | 16.61121 | 5° | 11km/h | 24653m | 5.6m/s | -51.9°C | 3.5% | 0hPa | 2.5V | 00:00:00 | 00:00:00 | 00:00:00 | |
| 9A1FER-3 | 2026-09-05 00:32:38 | 45.74679 | 16.61121 | 356° | 13km/h | 24642m | 4.8m/s | -52.0°C | 3.5% | 0hPa | 2.5V | 00:00:00 | 01:30:02 | 00:00:00 | |
| PETON7-10 | 2026-09-05 00:32:32 | 45.74660 | 16.61120 | 357° | 9km/h | 24607m | 5.4m/s | -52.1°C | 3.6% | 0hPa | 2.5V | 00:00:00 | 00:00:00 | 00:00:00 | |
| 9A1FER-10 | 2026-09-05 00:32:29 | 45.74654 | 16.61116 | 36° | 9km/h | 24589m | 6.2m/s | -52.1°C | 3.6% | 0hPa | 2.6V | 00:00:00 | 01:29:53 | 00:00:00 | |
| 9A1FER-3 | 2026-09-05 00:32:23 | 45.74641 | 16.61100 | 38° | 7km/h | 24554m | 6.8m/s | -52.3°C | 3.6% | 0hPa | 2.6V | 00:00:00 | 01:29:47 | 08:30:00 | |
| PG1ADW-2 | 2026-09-05 00:32:21 | 45.74638 | 16.61098 | 13° | 7km/h | 24542m | 5.5m/s | -52.3°C | 3.6% | 0hPa | 2.5V | 00:00:00 | 00:00:00 | 00:00:00 | |
| PETON7-10 | 2026-09-05 00:32:17 | 45.74631 | 16.61097 | 351° | 7km/h | 24518m | 5.8m/s | -52.3°C | 3.6% | 0hPa | 2.5V | 00:00:00 | 00:00:00 | 00:00:00 | |
| 9A1FER-10 | 2026-09-05 00:32:14 | 45.74623 | 16.61095 | 24° | 7km/h | 24500m | 5.5m/s | -52.4°C | 3.7% | 0hPa | 2.5V | 00:00:00 | 01:29:38 | 00:00:00 | |
| 9A1FER-3 | 2026-09-05 00:32:05 | 45.74611 | 16.61097 | 233° | 9km/h | 24448m | 5.0m/s | -52.4°C | 3.6% | 0hPa | 2.5V | 00:00:00 | 01:29:29 | 00:00:00 | |
| PETON7-10 | 2026-09-05 00:32:02 | 45.74613 | 16.61097 | 80° | 11km/h | 24431m | 4.5m/s | -52.4°C | 3.6% | 0hPa | 2.5V | 00:00:00 | 01:29:26 | 00:00:00 | |
| PG1ADW-2 | 2026-09-05 00:32:01 | 45.74612 | 16.61095 | 43° | 11km/h | 24427m | 4.7m/s | -52.4°C | 3.6% | 0hPa | 2.5V | 00:00:00 | 01:29:25 | 00:00:00 | |
| 9A1FER-10 | 2026-09-05 00:31:59 | 45.74608 | 16.61094 | 350° | 11km/h | 24415m | 5.6m/s | -52.4°C | 3.6% | 0hPa | 2.5V | 00:00:00 | 01:29:23 | 00:00:00 | |
| OE5DXL-15 | 2026-09-05 00:31:52 | 45.74594 | 16.61116 | 284° | 7km/h | 24375m | 4.6m/s | -52.5°C | 3.6% | 0hPa | 2.5V | 00:00:00 | 00:00:00 | 00:00:00 | |
| 9A1FER-3 | 2026-09-05 00:31:50 | 45.74592 | 16.61124 | 291° | 7km/h | 24363m | 5.5m/s | -52.5°C | 3.6% | 0hPa | 2.5V | 00:00:00 | 01:29:14 | 00:00:00 | |
| PETON7-10 | 2026-09-05 00:31:47 | 45.74588 | 16.61132 | 321° | 7km/h | 24345m | 5.2m/s | -52.6°C | 3.6% | 0hPa | 2.5V | 00:00:00 | 00:00:00 | 00:00:00 | |
| 9A1FER-10 | 2026-09-05 00:31:44 | 45.74584 | 16.61137 | 310° | 5km/h | 24327m | 4.7m/s | -52.8°C | 3.7% | 0hPa | 2.6V | 00:00:00 | 01:29:08 | 00:00:00 | |
| OE5DRO-10 | 2026-09-05 00:31:43 | 45.74582 | 16.61139 | 308° | 5km/h | 24321m | 6.4m/s | -52.8°C | 3.8% | 0hPa | 2.5V | 00:00:00 | 00:00:00 | 00:00:00 | |
| PG1ADW-2 | 2026-09-05 00:31:41 | 45.74580 | 16.61144 | 301° | 5km/h | 24310m | 4.8m/s | -52.9°C | 3.8% | 0hPa | 2.5V | 00:00:00 | 00:00:00 | 08:30:00 | |
| 9A1FER-3 | 2026-09-05 00:31:35 | 45.74580 | 16.61156 | 219° | 5km/h | 24274m | 7.1m/s | -52.8°C | 3.7% | 0hPa | 2.5V | 00:00:00 | 01:28:59 | 00:00:00 | |
| PETON7-10 | 2026-09-05 00:31:32 | 45.74584 | 16.61159 | 241° | 4km/h | 24256m | 6.5m/s | -52.8°C | 3.7% | 0hPa | 2.5V | 00:00:00 | 00:00:00 | 00:00:00 | |
| 9A1FER-10 | 2026-09-05 00:31:29 | 45.74584 | 16.61164 | 271° | 4km/h | 24240m | 6.3m/s | -52.7°C | 3.7% | 0hPa | 2.5V | 00:00:00 | 01:28:53 | 00:00:00 | |
| OE5DRO-10 | 2026-09-05 00:31:24 | 45.74586 | 16.61169 | 242° | 5km/h | 24211m | 5.5m/s | -52.7°C | 3.7% | 0hPa | 2.5V | 00:00:00 | 00:00:00 | 00:00:00 | |
| PG1ADW-2 | 2026-09-05 00:31:21 | 45.74589 | 16.61172 | 192° | 7km/h | 24194m | 5.4m/s | -52.7°C | 3.7% | 0hPa | 2.5V | 00:00:00 | 00:00:00 | 00:00:00 | |
| 9A1FER-3 | 2026-09-05 00:31:20 | 45.74590 | 16.61172 | 234° | 5km/h | 24188m | 6.4m/s | -52.7°C | 3.7% | 0hPa | 2.5V | 00:00:00 | 01:28:44 | 00:00:00 | |
| PETON7-10 | 2026-09-05 00:31:17 | 45.74590 | 16.61174 | 176° | 7km/h | 24171m | 6.3m/s | -52.6°C | 3.7% | 0hPa | 2.5V | 00:00:00 | 01:28:41 | 00:00:00 | |
| OE5DXL-15 | 2026-09-05 00:31:15 | 45.74590 | 16.61174 | 360° | 11km/h | 24161m | 5.3m/s | -52.6°C | 3.7% | 0hPa | 2.5V | 00:00:00 | 00:00:00 | 00:00:00 | |
| 9A1FER-10 | 2026-09-05 00:31:14 | 45.74589 | 16.61174 | 343° | 11km/h | 24155m | 5.9m/s | -52.6°C | 3.7% | 0hPa | 2.5V | 00:00:00 | 01:28:38 | 00:00:00 | |
| 9A1FER-3 | 2026-09-05 00:31:05 | 45.74577 | 16.61159 | 66° | 13km/h | 24106m | 6.2m/s | -52.7°C | 3.7% | 0hPa | 2.5V | 00:00:00 | 01:28:29 | 00:00:00 | |
| PETON7-10 | 2026-09-05 00:31:02 | 45.74574 | 16.61147 | 55° | 13km/h | 24089m | 6.6m/s | -52.7°C | 3.7% | 0hPa | 2.5V | 00:00:00 | 00:00:00 | 08:30:00 | |
| PG1ADW-2 | 2026-09-05 00:31:01 | 45.74572 | 16.61145 | 37° | 13km/h | 24083m | 6.0m/s | -52.7°C | 3.6% | 0hPa | 2.5V | 00:00:00 | 00:00:00 | 00:00:00 | |
| 9A1FER-10 | 2026-09-05 00:30:59 | 45.74567 | 16.61140 | 33° | 7km/h | 24072m | 6.2m/s | -52.7°C | 3.7% | 0hPa | 2.5V | 00:00:00 | 01:28:23 | 08:30:00 | |
| PETON7-10 | 2026-09-05 00:30:47 | 45.74537 | 16.61102 | 325° | 7km/h | 24005m | 6.6m/s | -53.0°C | 3.8% | 0hPa | 2.6V | 00:00:00 | 00:00:00 | 00:00:00 | |
| OE5DRO-10 | 2026-09-05 00:30:46 | 45.74536 | 16.61104 | 302° | 7km/h | 23999m | 5.8m/s | -52.9°C | 3.7% | 0hPa | 2.6V | 00:00:00 | 00:00:00 | 00:00:00 | |
| OE5DXL-15 | 2026-09-05 00:30:44 | 45.74533 | 16.61109 | 318° | 5km/h | 23986m | 5.0m/s | -52.9°C | 3.7% | 0hPa | 2.6V | 00:00:00 | 00:00:00 | 00:00:00 | |
| PG1ADW-2 | 2026-09-05 00:30:41 | 45.74529 | 16.61114 | 334° | 7km/h | 23969m | 5.3m/s | -53.0°C | 3.7% | 0hPa | 2.5V | 00:00:00 | 01:28:05 | 00:00:00 | |
| 9A1FER-3 | 2026-09-05 00:30:35 | 45.74521 | 16.61105 | 18° | 7km/h | 23934m | 5.3m/s | -52.9°C | 3.7% | 0hPa | 2.6V | 00:00:00 | 01:27:59 | 00:00:00 | |
| PETON7-10 | 2026-09-05 00:30:32 | 45.74515 | 16.61108 | 323° | 5km/h | 23917m | 5.3m/s | -52.9°C | 3.7% | 0hPa | 2.6V | 00:00:00 | 01:27:56 | 00:00:00 | |
| OE5DRO-10 | 2026-09-05 00:30:28 | 45.74511 | 16.61117 | 47° | 5km/h | 23889m | 4.9m/s | -53.0°C | 3.7% | 0hPa | 2.6V | 00:00:00 | 00:00:00 | 00:00:00 | |
| PG1ADW-2 | 2026-09-05 00:30:21 | 45.74509 | 16.61103 | 48° | 5km/h | 23855m | 4.6m/s | -53.1°C | 3.8% | 0hPa | 2.6V | 00:00:00 | 00:00:00 | 00:00:00 | |
| 9A1FER-3 | 2026-09-05 00:30:20 | 45.74507 | 16.61101 | 45° | 5km/h | 23850m | 5.5m/s | -53.0°C | 3.8% | 0hPa | 2.6V | 00:00:00 | 01:27:44 | 00:00:00 | |
| PETON7-10 | 2026-09-05 00:30:18 | 45.74507 | 16.61099 | 214° | 5km/h | 23833m | 6.2m/s | -53.0°C | 3.8% | 0hPa | 2.6V | 00:00:00 | 00:00:00 | 00:00:00 | |
| OE5DXL-15 | 2026-09-05 00:30:11 | 45.74513 | 16.61100 | 100° | 7km/h | 23798m | 6.9m/s | -53.1°C | 3.8% | 0hPa | 2.6V | 00:00:00 | 00:00:00 | 00:00:00 | |
| 9A1FER-10 | 2026-09-05 00:30:08 | 45.74512 | 16.61093 | 93° | 7km/h | 23780m | 5.2m/s | -53.0°C | 3.8% | 0hPa | 2.6V | 00:00:00 | 01:27:32 | 00:00:00 | |
| 9A1FER-3 | 2026-09-05 00:30:05 | 45.74512 | 16.61084 | 81° | 7km/h | 23763m | 4.6m/s | -52.9°C | 3.8% | 0hPa | 2.6V | 00:00:00 | 01:27:29 | 08:30:00 | |
| PETON7-10 | 2026-09-05 00:30:02 | 45.74514 | 16.61078 | 154° | 7km/h | 23746m | 4.8m/s | -52.8°C | 3.7% | 0hPa | 2.6V | 00:00:00 | 00:00:00 | 00:00:00 | |
| PG1ADW-2 | 2026-09-05 00:30:01 | 45.74515 | 16.61077 | 143° | 7km/h | 23740m | 6.3m/s | -52.7°C | 3.7% | 0hPa | 2.6V | 00:00:00 | 00:00:00 | 00:00:00 | |
| 9A1FER-10 | 2026-09-05 00:29:53 | 45.74515 | 16.61058 | 81° | 7km/h | 23695m | 6.4m/s | -52.9°C | 3.7% | 0hPa | 2.6V | 00:00:00 | 01:27:17 | 00:00:00 | |
| 9A1FER-3 | 2026-09-05 00:29:50 | 45.74518 | 16.61053 | 149° | 7km/h | 23678m | 6.8m/s | -52.9°C | 3.7% | 0hPa | 2.6V | 00:00:00 | 01:27:14 | 00:00:00 | |
| OE5DRO-10 | 2026-09-05 00:29:49 | 45.74519 | 16.61053 | 165° | 7km/h | 23672m | 5.3m/s | -52.9°C | 3.7% | 0hPa | 2.6V | 00:00:00 | 00:00:00 | 00:00:00 | |
| OE5DXL-15 | 2026-09-05 00:29:41 | 45.74532 | 16.61067 | 171° | 7km/h | 23627m | 6.7m/s | -53.1°C | 3.7% | 0hPa | 2.6V | 00:00:00 | 00:00:00 | 00:00:00 | |
| 9A1FER-10 | 2026-09-05 00:29:38 | 45.74536 | 16.61065 | 135° | 5km/h | 23610m | 6.8m/s | -53.2°C | 3.8% | 0hPa | 2.6V | 00:00:00 | 01:27:02 | 00:00:00 | |
| 9A1FER-3 | 2026-09-05 00:29:35 | 45.74537 | 16.61061 | 159° | 5km/h | 23592m | 6.3m/s | -53.2°C | 3.7% | 0hPa | 2.6V | 00:00:00 | 01:26:59 | 00:00:00 | |
| PETON7-10 | 2026-09-05 00:29:32 | 45.74540 | 16.61063 | 215° | 5km/h | 23575m | 6.4m/s | -53.1°C | 3.7% | 0hPa | 2.6V | 00:00:00 | 00:00:00 | 00:00:00 | |
| OE5DRO-10 | 2026-09-05 00:29:30 | 45.74542 | 16.61066 | 230° | 7km/h | 23564m | 5.5m/s | -53.2°C | 3.7% | 0hPa | 2.5V | 00:00:00 | 00:00:00 | 00:00:00 | |
| 9A1FER-10 | 2026-09-05 00:29:23 | 45.74551 | 16.61074 | 184° | 7km/h | 23524m | 5.1m/s | -53.4°C | 3.7% | 0hPa | 2.5V | 00:00:00 | 01:26:47 | 00:00:00 | |
| PG1ADW-2 | 2026-09-05 00:29:21 | 45.74553 | 16.61074 | 166° | 9km/h | 23513m | 5.1m/s | -53.5°C | 3.8% | 0hPa | 2.5V | 00:00:00 | 01:26:45 | 00:00:00 | |
| 9A1FER-3 | 2026-09-05 00:29:20 | 45.74553 | 16.61074 | 204° | 9km/h | 23508m | 4.5m/s | -53.6°C | 3.8% | 0hPa | 2.5V | 00:00:00 | 01:26:44 | 00:00:00 | |
| PETON7-10 | 2026-09-05 00:29:17 | 45.74557 | 16.61078 | 217° | 9km/h | 23490m | 5.8m/s | -53.7°C | 3.8% | 0hPa | 2.6V | 00:00:00 | 00:00:00 | 00:00:00 | |
| OE5DRO-10 | 2026-09-05 00:29:11 | 45.74574 | 16.61081 | 170° | 9km/h | 23458m | 5.9m/s | -54.0°C | 3.9% | 0hPa | 2.6V | 00:00:00 | 00:00:00 | 00:00:00 | |
| 9A1FER-10 | 2026-09-05 00:29:08 | 45.74581 | 16.61081 | 206° | 9km/h | 23442m | 5.6m/s | -54.2°C | 4.0% | 0hPa | 2.5V | 00:00:00 | 01:26:32 | 00:00:00 | |
| 9A1FER-3 | 2026-09-05 00:29:05 | 45.74586 | 16.61085 | 198° | 9km/h | 23425m | 4.7m/s | -54.4°C | 4.0% | 0hPa | 2.5V | 00:00:00 | 01:26:29 | 00:00:00 | |
| PETON7-10 | 2026-09-05 00:29:02 | 45.74593 | 16.61090 | 217° | 9km/h | 23410m | 4.4m/s | -54.3°C | 4.0% | 0hPa | 2.5V | 00:00:00 | 01:26:26 | 00:00:00 | |
| PG1ADW-2 | 2026-09-05 00:29:01 | 45.74596 | 16.61093 | 225° | 9km/h | 23405m | 3.9m/s | -54.3°C | 4.0% | 0hPa | 2.5V | 00:00:00 | 00:00:00 | 00:00:00 | |
| 9A1FER-10 | 2026-09-05 00:28:53 | 45.74604 | 16.61112 | 245° | 9km/h | 23364m | 5.4m/s | -54.0°C | 3.9% | 0hPa | 2.5V | 00:00:00 | 01:26:17 | 00:00:00 | |
| OE5DRO-10 | 2026-09-05 00:28:52 | 45.74605 | 16.61113 | 216° | 9km/h | 23358m | 5.6m/s | -54.0°C | 3.9% | 0hPa | 2.5V | 00:00:00 | 00:00:00 | 00:00:00 | |
| 9A1FER-3 | 2026-09-05 00:28:50 | 45.74609 | 16.61114 | 169° | 9km/h | 23347m | 4.3m/s | -54.1°C | 3.9% | 0hPa | 2.5V | 00:00:00 | 01:26:14 | 00:00:00 | |
| PETON7-10 | 2026-09-05 00:28:47 | 45.74617 | 16.61106 | 132° | 9km/h | 23330m | 5.4m/s | -54.2°C | 3.9% | 0hPa | 2.5V | 00:00:00 | 00:00:00 | 08:30:00 | |
| PG1ADW-2 | 2026-09-05 00:28:41 | 45.74627 | 16.61095 | 173° | 11km/h | 23297m | 5.2m/s | -54.3°C | 4.0% | 0hPa | 2.5V | 00:00:00 | 00:00:00 | 08:30:00 | |
| OE5DXL-15 | 2026-09-05 00:28:40 | 45.74627 | 16.61095 | 188° | 15km/h | 23292m | 5.9m/s | -54.3°C | 4.0% | 0hPa | 2.5V | 00:00:00 | 00:00:00 | 00:00:00 | |
| 9A1FER-10 | 2026-09-05 00:28:38 | 45.74631 | 16.61095 | 162° | 13km/h | 23282m | 4.9m/s | -54.3°C | 4.0% | 0hPa | 2.5V | 00:00:00 | 01:26:02 | 00:00:00 | |
| 9A1FER-3 | 2026-09-05 00:28:35 | 45.74634 | 16.61088 | 105° | 15km/h | 23265m | 4.8m/s | -54.2°C | 4.0% | 0hPa | 2.5V | 00:00:00 | 01:25:59 | 00:00:00 | |
| OE5DRO-10 | 2026-09-05 00:28:33 | 45.74636 | 16.61079 | 109° | 16km/h | 23254m | 5.0m/s | -54.2°C | 4.0% | 0hPa | 2.5V | 00:00:00 | 00:00:00 | 00:00:00 | |
| PETON7-10 | 2026-09-05 00:28:32 | 45.74637 | 16.61072 | 102° | 15km/h | 23249m | 6.1m/s | -54.2°C | 4.0% | 0hPa | 2.5V | 00:00:00 | 00:00:00 | 00:00:00 | |
| 9A1FER-10 | 2026-09-05 00:28:23 | 45.74635 | 16.61027 | 77° | 18km/h | 23200m | 5.7m/s | -54.2°C | 3.9% | 0hPa | 2.5V | 00:00:00 | 01:25:47 | 00:00:00 | |
| PG1ADW-2 | 2026-09-05 00:28:21 | 45.74635 | 16.61019 | 96° | 20km/h | 23190m | 3.9m/s | -54.3°C | 4.0% | 0hPa | 2.5V | 00:00:00 | 00:00:00 | 00:00:00 | |
| 9A1FER-3 | 2026-09-05 00:28:20 | 45.74635 | 16.61014 | 93° | 20km/h | 23185m | 5.7m/s | -54.3°C | 4.0% | 0hPa | 2.5V | 00:00:00 | 01:25:44 | 00:00:00 | |
| PETON7-10 | 2026-09-05 00:28:16 | 45.74632 | 16.60986 | 79° | 20km/h | 23162m | 5.6m/s | -54.4°C | 4.0% | 0hPa | 2.5V | 00:00:00 | 01:25:40 | 00:00:00 | |
| OE5DRO-10 | 2026-09-05 00:28:14 | 45.74629 | 16.60972 | 72° | 22km/h | 23153m | 6.2m/s | -54.3°C | 3.9% | 0hPa | 2.5V | 00:00:00 | 00:00:00 | 00:00:00 | |
| OE5DXL-15 | 2026-09-05 00:28:09 | 45.74621 | 16.60938 | 68° | 24km/h | 23126m | 5.5m/s | -54.3°C | 3.9% | 0hPa | 2.5V | 00:00:00 | 00:00:00 | 00:00:00 | |
| 9A1FER-10 | 2026-09-05 00:28:08 | 45.74619 | 16.60932 | 57° | 24km/h | 23121m | 5.8m/s | -54.3°C | 4.0% | 0hPa | 2.5V | 00:00:00 | 01:25:32 | 08:30:00 | |
| 9A1FER-3 | 2026-09-05 00:28:05 | 45.74610 | 16.60916 | 56° | 26km/h | 23105m | 5.8m/s | -54.5°C | 3.9% | 0hPa | 2.5V | 00:00:00 | 01:25:29 | 00:00:00 | |
| PETON7-10 | 2026-09-05 00:28:01 | 45.74597 | 16.60892 | 49° | 27km/h | 23082m | 4.8m/s | -54.8°C | 4.1% | 0hPa | 2.5V | 00:00:00 | 00:00:00 | 00:00:00 | |
| OE5DRO-10 | 2026-09-05 00:27:55 | 45.74570 | 16.60851 | 45° | 24km/h | 23050m | 5.2m/s | -54.8°C | 4.1% | 0hPa | 2.5V | 00:00:00 | 00:00:00 | 00:00:00 | |
| 9A1FER-10 | 2026-09-05 00:27:53 | 45.74560 | 16.60834 | 52° | 24km/h | 23039m | 5.0m/s | -54.8°C | 4.1% | 0hPa | 2.5V | 00:00:00 | 01:25:17 | 00:00:00 | |
| 9A1FER-3 | 2026-09-05 00:27:50 | 45.74544 | 16.60808 | 43° | 22km/h | 23024m | 5.1m/s | -54.8°C | 4.1% | 0hPa | 2.5V | 00:00:00 | 01:25:14 | 08:30:00 | |
| PETON7-10 | 2026-09-05 00:27:46 | 45.74525 | 16.60786 | 40° | 20km/h | 23004m | 4.7m/s | -54.9°C | 4.2% | 0hPa | 2.5V | 00:00:00 | 00:00:00 | 00:00:00 | |
| PG1ADW-2 | 2026-09-05 00:27:41 | 45.74508 | 16.60762 | 49° | 20km/h | 22976m | 5.2m/s | -54.9°C | 4.2% | 0hPa | 2.5V | 00:00:00 | 00:00:00 | 00:00:00 | |
| 9A1FER-10 | 2026-09-05 00:27:38 | 45.74496 | 16.60749 | 23° | 22km/h | 22960m | 4.7m/s | -54.8°C | 4.2% | 0hPa | 2.6V | 00:00:00 | 01:25:02 | 00:00:00 | |
| OE5DRO-10 | 2026-09-05 00:27:36 | 45.74485 | 16.60744 | 15° | 20km/h | 22950m | 6.1m/s | -54.7°C | 4.2% | 0hPa | 2.6V | 00:00:00 | 00:00:00 | 00:00:00 | |
| 9A1FER-3 | 2026-09-05 00:27:35 | 45.74480 | 16.60742 | 14° | 20km/h | 22944m | 4.8m/s | -54.7°C | 4.2% | 0hPa | 2.6V | 00:00:00 | 01:24:59 | 00:00:00 | |
| OE5DXL-15 | 2026-09-05 00:27:32 | 45.74463 | 16.60734 | 28° | 20km/h | 22928m | 5.1m/s | -54.6°C | 4.1% | 0hPa | 2.6V | 00:00:00 | 00:00:00 | 08:30:00 | |
| PETON7-10 | 2026-09-05 00:27:31 | 45.74458 | 16.60730 | 28° | 20km/h | 22922m | 6.9m/s | -54.5°C | 4.1% | 0hPa | 2.5V | 00:00:00 | 01:24:55 | 00:00:00 | |
| 9A1FER-10 | 2026-09-05 00:27:23 | 45.74419 | 16.60710 | 11° | 20km/h | 22876m | 5.7m/s | -54.2°C | 4.0% | 0hPa | 2.5V | 00:00:00 | 01:24:47 | 00:00:00 | |
| PG1ADW-2 | 2026-09-05 00:27:21 | 45.74411 | 16.60708 | 9° | 16km/h | 22865m | 6.6m/s | -54.1°C | 3.9% | 0hPa | 2.5V | 00:00:00 | 00:00:00 | 00:00:00 | |
| 9A1FER-3 | 2026-09-05 00:27:20 | 45.74407 | 16.60707 | 5° | 18km/h | 22859m | 5.9m/s | -54.1°C | 3.9% | 0hPa | 2.5V | 00:00:00 | 01:24:44 | 00:00:00 | |
| OE5DRO-10 | 2026-09-05 00:27:17 | 45.74394 | 16.60704 | 12° | 16km/h | 22841m | 4.4m/s | -54.1°C | 3.9% | 0hPa | 2.5V | 00:00:00 | 00:00:00 | 08:30:00 | |
| PETON7-10 | 2026-09-05 00:27:16 | 45.74389 | 16.60702 | 8° | 16km/h | 22836m | 6.7m/s | -54.1°C | 3.9% | 0hPa | 2.6V | 00:00:00 | 00:00:00 | 00:00:00 | |
| 9A1FER-10 | 2026-09-05 00:27:08 | 45.74347 | 16.60701 | 2° | 15km/h | 22791m | 5.9m/s | -54.4°C | 4.0% | 0hPa | 2.6V | 00:00:00 | 01:24:32 | 00:00:00 | |
| 9A1FER-3 | 2026-09-05 00:27:05 | 45.74337 | 16.60699 | 357° | 15km/h | 22776m | 6.1m/s | -54.4°C | 3.9% | 0hPa | 2.6V | 00:00:00 | 01:24:29 | 00:00:00 | |
| OE5DXL-15 | 2026-09-05 00:27:02 | 45.74331 | 16.60700 | 3° | 18km/h | 22759m | 5.7m/s | -54.3°C | 4.0% | 0hPa | 2.6V | 00:00:00 | 00:00:00 | 00:00:00 | |
| PETON7-10 | 2026-09-05 00:27:01 | 45.74329 | 16.60700 | 357° | 16km/h | 22754m | 4.2m/s | -54.3°C | 4.0% | 0hPa | 2.6V | 00:00:00 | 00:00:00 | 00:00:00 | |
| OE5DRO-10 | 2026-09-05 00:26:58 | 45.74321 | 16.60706 | 321° | 20km/h | 22737m | 5.1m/s | -54.4°C | 4.0% | 0hPa | 2.6V | 00:00:00 | 00:00:00 | 00:00:00 | |
| 9A1FER-10 | 2026-09-05 00:26:53 | 45.74300 | 16.60725 | 330° | 20km/h | 22708m | 4.8m/s | -54.5°C | 4.0% | 0hPa | 2.6V | 00:00:00 | 01:24:17 | 00:00:00 | |
| 9A1FER-3 | 2026-09-05 00:26:50 | 45.74287 | 16.60729 | 4° | 22km/h | 22691m | 4.9m/s | -54.4°C | 4.0% | 0hPa | 2.6V | 00:00:00 | 01:24:14 | 00:00:00 | |
| PETON7-10 | 2026-09-05 00:26:46 | 45.74271 | 16.60729 | 359° | 22km/h | 22667m | 5.9m/s | -54.6°C | 4.0% | 0hPa | 2.6V | 00:00:00 | 01:24:10 | 00:00:00 | |
| OE5DRO-10 | 2026-09-05 00:26:39 | 45.74235 | 16.60760 | 322° | 18km/h | 22627m | 5.0m/s | -54.8°C | 4.0% | 0hPa | 2.6V | 00:00:00 | 00:00:00 | 00:00:00 | |
| 9A1FER-10 | 2026-09-05 00:26:38 | 45.74230 | 16.60766 | 319° | 18km/h | 22622m | 6.4m/s | -54.8°C | 4.1% | 0hPa | 2.6V | 00:00:00 | 01:24:02 | 00:00:00 | |
| 9A1FER-3 | 2026-09-05 00:26:35 | 45.74215 | 16.60781 | 343° | 16km/h | 22605m | 6.5m/s | -54.9°C | 4.1% | 0hPa | 2.6V | 00:00:00 | 01:23:59 | 00:00:00 | |
| PETON7-10 | 2026-09-05 00:26:31 | 45.74203 | 16.60779 | 26° | 18km/h | 22581m | 6.3m/s | -54.9°C | 4.0% | 0hPa | 2.6V | 00:00:00 | 00:00:00 | 08:30:00 | |
| OE5DXL-15 | 2026-09-05 00:26:29 | 45.74197 | 16.60776 | 9° | 18km/h | 22570m | 4.8m/s | -55.1°C | 4.1% | 0hPa | 2.6V | 00:00:00 | 00:00:00 | 00:00:00 | |
| 9A1FER-10 | 2026-09-05 00:26:23 | 45.74174 | 16.60798 | 320° | 18km/h | 22535m | 5.6m/s | -55.5°C | 4.3% | 0hPa | 2.6V | 00:00:00 | 01:23:47 | 00:00:00 | |
| 9A1FER-3 | 2026-09-05 00:26:20 | 45.74162 | 16.60812 | 331° | 18km/h | 22519m | 6.8m/s | -55.4°C | 4.3% | 0hPa | 2.6V | 00:00:00 | 01:23:44 | 00:00:00 | |
| PG1ADW-2 | 2026-09-05 00:26:19 | 45.74157 | 16.60815 | 340° | 16km/h | 22512m | 5.6m/s | -55.4°C | 4.3% | 0hPa | 2.6V | 00:00:00 | 00:00:00 | 00:00:00 | |
| PETON7-10 | 2026-09-05 00:26:16 | 45.74146 | 16.60821 | 339° | 18km/h | 22495m | 5.2m/s | -55.3°C | 4.3% | 0hPa | 2.6V | 00:00:00 | 00:00:00 | 00:00:00 | |
| 9A1FER-10 | 2026-09-05 00:26:08 | 45.74114 | 16.60845 | 335° | 20km/h | 22449m | 4.7m/s | -55.0°C | 4.2% | 0hPa | 2.6V | 00:00:00 | 01:23:32 | 00:00:00 | |
| 9A1FER-3 | 2026-09-05 00:26:05 | 45.74102 | 16.60856 | 321° | 20km/h | 22432m | 5.9m/s | -54.9°C | 4.2% | 0hPa | 2.6V | 00:00:00 | 01:23:29 | 00:00:00 | |
| PETON7-10 | 2026-09-05 00:26:01 | 45.74089 | 16.60870 | 315° | 22km/h | 22409m | 6.7m/s | -54.8°C | 4.1% | 0hPa | 2.6V | 00:00:00 | 01:23:25 | 00:00:00 | |
| PG1ADW-2 | 2026-09-05 00:25:59 | 45.74083 | 16.60880 | 313° | 22km/h | 22397m | 5.0m/s | -54.7°C | 4.1% | 0hPa | 2.6V | 00:00:00 | 00:00:00 | 00:00:00 | |
| 9A1FER-10 | 2026-09-05 00:25:53 | 45.74058 | 16.60914 | 318° | 22km/h | 22363m | 5.9m/s | -54.6°C | 4.1% | 0hPa | 2.6V | 00:00:00 | 01:23:17 | 08:30:00 | |
| 9A1FER-3 | 2026-09-05 00:25:50 | 45.74045 | 16.60934 | 306° | 22km/h | 22347m | 5.8m/s | -54.5°C | 4.0% | 0hPa | 2.5V | 00:00:00 | 01:23:14 | 00:00:00 | |
| PETON7-10 | 2026-09-05 00:25:46 | 45.74034 | 16.60960 | 302° | 22km/h | 22325m | 4.5m/s | -54.5°C | 4.0% | 0hPa | 2.5V | 00:00:00 | 00:00:00 | 00:00:00 | |
| OE5DRO-10 | 2026-09-05 00:25:42 | 45.74026 | 16.60988 | 290° | 22km/h | 22303m | 5.4m/s | -54.5°C | 4.0% | 0hPa | 2.5V | 00:00:00 | 00:00:00 | 00:00:00 | |
| PG1ADW-2 | 2026-09-05 00:25:39 | 45.74019 | 16.61012 | 293° | 22km/h | 22286m | 6.9m/s | -54.7°C | 4.0% | 0hPa | 2.5V | 00:00:00 | 00:00:00 | 08:30:00 | |
| 9A1FER-3 | 2026-09-05 00:25:35 | 45.74012 | 16.61046 | 277° | 20km/h | 22263m | 5.0m/s | -54.7°C | 4.1% | 0hPa | 2.5V | 00:00:00 | 01:22:59 | 08:30:00 | |
| PETON7-10 | 2026-09-05 00:25:31 | 45.74014 | 16.61077 | 266° | 20km/h | 22241m | 6.4m/s | -54.6°C | 4.1% | 0hPa | 2.5V | 00:00:00 | 00:00:00 | 00:00:00 | |
| OE5DXL-15 | 2026-09-05 00:25:29 | 45.74014 | 16.61093 | 273° | 18km/h | 22229m | 5.1m/s | -54.6°C | 4.1% | 0hPa | 2.5V | 00:00:00 | 00:00:00 | 00:00:00 | |
| OE5DRO-10 | 2026-09-05 00:25:23 | 45.74017 | 16.61136 | 245° | 18km/h | 22195m | 6.4m/s | -54.5°C | 4.1% | 0hPa | 2.5V | 00:00:00 | 00:00:00 | 00:00:00 | |
| 9A1FER-10 | 2026-09-05 00:25:22 | 45.74019 | 16.61142 | 243° | 18km/h | 22189m | 5.7m/s | -54.5°C | 4.1% | 0hPa | 2.5V | 00:00:00 | 01:22:46 | 00:00:00 | |
| 9A1FER-3 | 2026-09-05 00:25:20 | 45.74023 | 16.61155 | 243° | 18km/h | 22178m | 6.7m/s | -54.4°C | 4.1% | 0hPa | 2.5V | 00:00:00 | 01:22:44 | 00:00:00 | |
| PG1ADW-2 | 2026-09-05 00:25:19 | 45.74025 | 16.61161 | 243° | 18km/h | 22172m | 5.4m/s | -54.4°C | 4.1% | 0hPa | 2.5V | 00:00:00 | 01:22:43 | 00:00:00 | |
| PETON7-10 | 2026-09-05 00:25:16 | 45.74030 | 16.61179 | 260° | 20km/h | 22155m | 5.1m/s | -54.2°C | 4.1% | 0hPa | 2.5V | 00:00:00 | 01:22:40 | 00:00:00 | |
| 9A1FER-3 | 2026-09-05 00:25:05 | 45.74037 | 16.61254 | 253° | 18km/h | 22093m | 5.1m/s | -54.0°C | 4.0% | 0hPa | 2.5V | 00:00:00 | 01:22:29 | 00:00:00 | |
| OE5DRO-10 | 2026-09-05 00:25:04 | 45.74039 | 16.61261 | 249° | 18km/h | 22088m | 5.8m/s | -54.0°C | 4.0% | 0hPa | 2.5V | 00:00:00 | 00:00:00 | 00:00:00 | |
| PETON7-10 | 2026-09-05 00:25:01 | 45.74045 | 16.61280 | 246° | 18km/h | 22071m | 6.3m/s | -53.9°C | 4.0% | 0hPa | 2.5V | 00:00:00 | 00:00:00 | 00:00:00 | |
| PG1ADW-2 | 2026-09-05 00:24:59 | 45.74049 | 16.61293 | 244° | 16km/h | 22059m | 5.4m/s | -53.9°C | 4.0% | 0hPa | 2.5V | 00:00:00 | 00:00:00 | 00:00:00 | |
| OE5DXL-15 | 2026-09-05 00:24:58 | 45.74051 | 16.61298 | 239° | 16km/h | 22053m | 6.7m/s | -53.8°C | 3.9% | 0hPa | 2.5V | 00:00:00 | 00:00:00 | 00:00:00 | |
| 9A1FER-3 | 2026-09-05 00:24:50 | 45.74073 | 16.61341 | 235° | 15km/h | 22009m | 6.6m/s | -53.6°C | 3.8% | 0hPa | 2.5V | 00:00:00 | 01:22:14 | 00:00:00 | |
| PETON7-10 | 2026-09-05 00:24:46 | 45.74082 | 16.61364 | 241° | 15km/h | 21986m | 5.5m/s | -53.6°C | 3.8% | 0hPa | 2.6V | 00:00:00 | 00:00:00 | 00:00:00 | |
| OE5DRO-10 | 2026-09-05 00:24:45 | 45.74084 | 16.61369 | 242° | 15km/h | 21981m | 4.7m/s | -53.6°C | 3.8% | 0hPa | 2.6V | 00:00:00 | 00:00:00 | 00:00:00 | |
| PG1ADW-2 | 2026-09-05 00:24:39 | 45.74089 | 16.61388 | 234° | 15km/h | 21947m | 6.1m/s | -53.8°C | 3.9% | 0hPa | 2.6V | 00:00:00 | 00:00:00 | 00:00:00 | |
| 9A1FER-10 | 2026-09-05 00:24:35 | 45.74101 | 16.61403 | 207° | 16km/h | 21925m | 5.4m/s | -54.0°C | 4.0% | 0hPa | 2.5V | 00:00:00 | 01:21:59 | 00:00:00 | |
| PETON7-10 | 2026-09-05 00:24:31 | 45.74118 | 16.61417 | 206° | 15km/h | 21904m | 5.6m/s | -54.0°C | 3.9% | 0hPa | 2.5V | 00:00:00 | 01:21:55 | 00:00:00 | |
| OE5DXL-15 | 2026-09-05 00:24:28 | 45.74129 | 16.61421 | 195° | 7km/h | 21886m | 6.7m/s | -54.0°C | 3.9% | 0hPa | 2.5V | 00:00:00 | 00:00:00 | 00:00:00 | |
| OE5DRO-10 | 2026-09-05 00:24:26 | 45.74135 | 16.61424 | 198° | 9km/h | 21875m | 4.2m/s | -54.0°C | 3.9% | 0hPa | 2.6V | 00:00:00 | 00:00:00 | 08:30:00 | |
| 9A1FER-3 | 2026-09-05 00:24:20 | 45.74156 | 16.61430 | 194° | 7km/h | 21841m | 6.0m/s | -54.1°C | 3.9% | 0hPa | 2.6V | 00:00:00 | 01:21:44 | 00:00:00 | |
| PG1ADW-2 | 2026-09-05 00:24:19 | 45.74160 | 16.61431 | 185° | 5km/h | 21836m | 5.6m/s | -54.2°C | 3.9% | 0hPa | 2.6V | 00:00:00 | 00:00:00 | 00:00:00 | |
| PETON7-10 | 2026-09-05 00:24:16 | 45.74169 | 16.61433 | 193° | 4km/h | 21819m | 4.9m/s | -54.7°C | 4.1% | 0hPa | 2.6V | 00:00:00 | 00:00:00 | 08:30:00 | |
| OE5DRO-10 | 2026-09-05 00:24:07 | 45.74175 | 16.61430 | 330° | 5km/h | 21770m | 6.3m/s | -54.6°C | 4.1% | 0hPa | 2.6V | 00:00:00 | 00:00:00 | 00:00:00 | |
| 9A1FER-3 | 2026-09-05 00:24:05 | 45.74173 | 16.61432 | 318° | 5km/h | 21758m | 5.9m/s | -54.5°C | 4.1% | 0hPa | 2.6V | 00:00:00 | 01:21:29 | 00:00:00 | |
| PETON7-10 | 2026-09-05 00:24:01 | 45.74173 | 16.61432 | 190° | 7km/h | 21737m | 4.4m/s | -54.4°C | 4.1% | 0hPa | 2.6V | 00:00:00 | 00:00:00 | 00:00:00 | |
| PG1ADW-2 | 2026-09-05 00:23:59 | 45.74174 | 16.61431 | 130° | 9km/h | 21726m | 5.7m/s | -54.3°C | 4.1% | 0hPa | 2.6V | 00:00:00 | 01:21:23 | 00:00:00 | |
| OE5DXL-15 | 2026-09-05 00:23:56 | 45.74179 | 16.61425 | 170° | 11km/h | 21711m | 5.7m/s | -54.3°C | 4.0% | 0hPa | 2.6V | 00:00:00 | 00:00:00 | 00:00:00 | |
| 9A1FER-3 | 2026-09-05 00:23:50 | 45.74190 | 16.61430 | 220° | 9km/h | 21679m | 4.3m/s | -54.3°C | 3.9% | 0hPa | 2.6V | 00:00:00 | 01:21:14 | 00:00:00 | |
| OE5DRO-10 | 2026-09-05 00:23:48 | 45.74194 | 16.61432 | 184° | 11km/h | 21668m | 5.7m/s | -54.3°C | 3.9% | 0hPa | 2.6V | 00:00:00 | 00:00:00 | 00:00:00 | |
| PETON7-10 | 2026-09-05 00:23:46 | 45.74199 | 16.61432 | 181° | 11km/h | 21658m | 6.2m/s | -54.3°C | 3.9% | 0hPa | 2.6V | 00:00:00 | 01:21:10 | 00:00:00 | |
| PG1ADW-2 | 2026-09-05 00:23:39 | 45.74216 | 16.61430 | 190° | 15km/h | 21620m | 6.0m/s | -54.8°C | 4.0% | 0hPa | 2.6V | 00:00:00 | 00:00:00 | 00:00:00 | |
| 9A1FER-3 | 2026-09-05 00:23:35 | 45.74224 | 16.61437 | 233° | 15km/h | 21598m | 4.9m/s | -54.9°C | 4.0% | 0hPa | 2.6V | 00:00:00 | 01:20:59 | 00:00:00 | |
| PETON7-10 | 2026-09-05 00:23:31 | 45.74232 | 16.61447 | 214° | 16km/h | 21577m | 6.1m/s | -55.1°C | 4.1% | 0hPa | 2.6V | 00:00:00 | 00:00:00 | 00:00:00 | |
| OE5DRO-10 | 2026-09-05 00:23:29 | 45.74239 | 16.61452 | 196° | 20km/h | 21566m | 5.1m/s | -55.1°C | 4.1% | 0hPa | 2.6V | 00:00:00 | 00:00:00 | 00:00:00 | |
| OE5DXL-15 | 2026-09-05 00:23:26 | 45.74253 | 16.61453 | 185° | 22km/h | 21551m | 6.0m/s | -55.2°C | 4.1% | 0hPa | 2.6V | 00:00:00 | 00:00:00 | 00:00:00 | |
| 9A1FER-10 | 2026-09-05 00:23:20 | 45.74278 | 16.61460 | 203° | 24km/h | 21519m | 4.4m/s | -55.6°C | 4.1% | 0hPa | 2.6V | 00:00:00 | 01:20:44 | 08:30:00 | |
| PG1ADW-2 | 2026-09-05 00:23:19 | 45.74281 | 16.61461 | 197° | 24km/h | 21515m | 4.1m/s | -55.7°C | 4.1% | 0hPa | 2.6V | 00:00:00 | 00:00:00 | 00:00:00 | |
| PETON7-10 | 2026-09-05 00:23:16 | 45.74290 | 16.61459 | 157° | 26km/h | 21500m | 3.7m/s | -55.8°C | 4.2% | 0hPa | 2.6V | 00:00:00 | 00:00:00 | 00:00:00 | |
| OE5DRO-10 | 2026-09-05 00:23:10 | 45.74329 | 16.61436 | 157° | 24km/h | 21467m | 6.0m/s | -56.0°C | 4.2% | 0hPa | 2.6V | 00:00:00 | 00:00:00 | 00:00:00 | |
| 9A1FER-3 | 2026-09-05 00:23:05 | 45.74360 | 16.61410 | 142° | 22km/h | 21441m | 6.4m/s | -56.1°C | 4.2% | 0hPa | 2.6V | 00:00:00 | 01:20:29 | 00:00:00 | |
| PETON7-10 | 2026-09-05 00:23:01 | 45.74374 | 16.61391 | 128° | 24km/h | 21420m | 4.9m/s | -56.3°C | 4.3% | 0hPa | 2.6V | 00:00:00 | 01:20:25 | 00:00:00 | |
| PG1ADW-2 | 2026-09-05 00:22:59 | 45.74382 | 16.61379 | 138° | 22km/h | 21411m | 5.9m/s | -56.4°C | 4.2% | 0hPa | 2.6V | 00:00:00 | 00:00:00 | 00:00:00 | |
| OE5DXL-15 | 2026-09-05 00:22:54 | 45.74405 | 16.61352 | 142° | 15km/h | 21384m | 6.1m/s | -57.0°C | 4.5% | 0hPa | 2.6V | 00:00:00 | 00:00:00 | 08:30:00 | |
| OE5DRO-10 | 2026-09-05 00:22:51 | 45.74416 | 16.61336 | 125° | 18km/h | 21370m | 6.2m/s | -57.2°C | 4.5% | 0hPa | 2.7V | 00:00:00 | 00:00:00 | 00:00:00 | |
| 9A1FER-3 | 2026-09-05 00:22:50 | 45.74419 | 16.61329 | 120° | 18km/h | 21364m | 4.9m/s | -57.2°C | 4.5% | 0hPa | 2.7V | 00:00:00 | 01:20:14 | 00:00:00 | |
| PETON7-10 | 2026-09-05 00:22:46 | 45.74431 | 16.61298 | 113° | 16km/h | 21342m | 5.8m/s | -57.1°C | 4.5% | 0hPa | 2.7V | 00:00:00 | 00:00:00 | 00:00:00 | |
| PG1ADW-2 | 2026-09-05 00:22:39 | 45.74441 | 16.61250 | 97° | 11km/h | 21304m | 5.8m/s | -57.5°C | 4.7% | 0hPa | 2.6V | 00:00:00 | 01:20:03 | 08:30:00 | |
| 9A1FER-10 | 2026-09-05 00:22:35 | 45.74445 | 16.61235 | 124° | 11km/h | 21281m | 4.5m/s | -57.5°C | 4.6% | 0hPa | 2.7V | 00:00:00 | 01:19:59 | 00:00:00 | |
| OE5DRO-10 | 2026-09-05 00:22:32 | 45.74451 | 16.61225 | 138° | 13km/h | 21265m | 4.2m/s | -57.4°C | 4.6% | 0hPa | 2.6V | 00:00:00 | 00:00:00 | 00:00:00 | |
| PETON7-10 | 2026-09-05 00:22:31 | 45.74453 | 16.61222 | 127° | 11km/h | 21260m | 6.0m/s | -57.4°C | 4.6% | 0hPa | 2.6V | 00:00:00 | 00:00:00 | 00:00:00 | |
| OE5DXL-15 | 2026-09-05 00:22:21 | 45.74466 | 16.61197 | 170° | 16km/h | 21204m | 6.4m/s | -57.4°C | 4.7% | 0hPa | 2.6V | 00:00:00 | 00:00:00 | 00:00:00 | |
| 9A1FER-3 | 2026-09-05 00:22:20 | 45.74468 | 16.61196 | 161° | 15km/h | 21198m | 5.1m/s | -57.4°C | 4.7% | 0hPa | 2.6V | 00:00:00 | 01:19:44 | 00:00:00 | |
| PG1ADW-2 | 2026-09-05 00:22:19 | 45.74471 | 16.61194 | 165° | 16km/h | 21192m | 6.5m/s | -57.4°C | 4.7% | 0hPa | 2.6V | 00:00:00 | 00:00:00 | 00:00:00 | |
| PETON7-10 | 2026-09-05 00:22:16 | 45.74482 | 16.61187 | 140° | 15km/h | 21175m | 6.6m/s | -57.3°C | 4.7% | 0hPa | 2.6V | 00:00:00 | 01:19:40 | 00:00:00 | |
| 9A1FER-3 | 2026-09-05 00:22:05 | 45.74506 | 16.61138 | 131° | 20km/h | 21115m | 6.4m/s | -57.2°C | 4.5% | 0hPa | 2.6V | 00:00:00 | 01:19:29 | 00:00:00 | |
| PETON7-10 | 2026-09-05 00:22:01 | 45.74515 | 16.61120 | 125° | 22km/h | 21093m | 4.9m/s | -57.1°C | 4.4% | 0hPa | 2.6V | 00:00:00 | 00:00:00 | 08:30:00 | |
| PG1ADW-2 | 2026-09-05 00:21:59 | 45.74519 | 16.61108 | 114° | 26km/h | 21083m | 6.6m/s | -57.2°C | 4.5% | 0hPa | 2.7V | 00:00:00 | 00:00:00 | 00:00:00 | |
| OE5DRO-10 | 2026-09-05 00:21:54 | 45.74531 | 16.61074 | 126° | 26km/h | 21054m | 6.5m/s | -57.3°C | 4.6% | 0hPa | 2.7V | 00:00:00 | 00:00:00 | 00:00:00 | |
| OE5DXL-15 | 2026-09-05 00:21:51 | 45.74543 | 16.61055 | 139° | 27km/h | 21037m | 5.5m/s | -57.3°C | 4.6% | 0hPa | 2.7V | 00:00:00 | 00:00:00 | 00:00:00 | |
| 9A1FER-3 | 2026-09-05 00:21:50 | 45.74547 | 16.61049 | 137° | 26km/h | 21032m | 4.5m/s | -57.3°C | 4.7% | 0hPa | 2.7V | 00:00:00 | 01:19:14 | 00:00:00 | |
| PETON7-10 | 2026-09-05 00:21:46 | 45.74560 | 16.61021 | 117° | 26km/h | 21011m | 5.8m/s | -57.5°C | 4.7% | 0hPa | 2.7V | 00:00:00 | 00:00:00 | 00:00:00 | |
| PG1ADW-2 | 2026-09-05 00:21:39 | 45.74582 | 16.60953 | 109° | 26km/h | 20972m | 4.4m/s | -57.3°C | 4.7% | 0hPa | 2.7V | 00:00:00 | 00:00:00 | 00:00:00 | |
| 9A1FER-3 | 2026-09-05 00:21:35 | 45.74586 | 16.60922 | 96° | 26km/h | 20949m | 6.4m/s | -57.2°C | 4.7% | 0hPa | 2.6V | 00:00:00 | 01:18:59 | 00:00:00 | |
| PETON7-10 | 2026-09-05 00:21:31 | 45.74588 | 16.60891 | 98° | 26km/h | 20928m | 5.2m/s | -57.0°C | 4.6% | 0hPa | 2.6V | 00:00:00 | 01:18:55 | 00:00:00 | |
| OE5DXL-15 | 2026-09-05 00:21:21 | 45.74599 | 16.60789 | 83° | 24km/h | 20873m | 5.1m/s | -56.7°C | 4.5% | 0hPa | 2.6V | 00:00:00 | 00:00:00 | 00:00:00 | |
| 9A1FER-10 | 2026-09-05 00:21:20 | 45.74598 | 16.60781 | 82° | 24km/h | 20868m | 5.0m/s | -56.7°C | 4.5% | 0hPa | 2.6V | 00:00:00 | 01:18:44 | 00:00:00 | |
| PG1ADW-2 | 2026-09-05 00:21:17 | 45.74597 | 16.60759 | 95° | 18km/h | 20851m | 6.4m/s | -56.6°C | 4.5% | 0hPa | 2.6V | 00:00:00 | 01:18:41 | 00:00:00 | |
| PETON7-10 | 2026-09-05 00:21:16 | 45.74598 | 16.60750 | 95° | 24km/h | 20846m | 5.5m/s | -56.5°C | 4.4% | 0hPa | 2.6V | 00:00:00 | 00:00:00 | 00:00:00 | |
| 9A1FER-3 | 2026-09-05 00:21:05 | 45.74596 | 16.60656 | 71° | 24km/h | 20786m | 6.2m/s | -56.4°C | 4.5% | 0hPa | 2.6V | 00:00:00 | 01:18:29 | 08:30:00 | |
| PETON7-10 | 2026-09-05 00:21:01 | 45.74590 | 16.60624 | 80° | 26km/h | 20765m | 5.4m/s | -56.3°C | 4.5% | 0hPa | 2.6V | 00:00:00 | 00:00:00 | 00:00:00 | |
| OE5DRO-10 | 2026-09-05 00:20:57 | 45.74585 | 16.60593 | 78° | 24km/h | 20743m | 6.1m/s | -56.2°C | 4.4% | 0hPa | 2.6V | 00:00:00 | 00:00:00 | 00:00:00 | |
| OE5DXL-15 | 2026-09-05 00:20:51 | 45.74573 | 16.60540 | 68° | 24km/h | 20709m | 5.3m/s | -56.1°C | 4.4% | 0hPa | 2.6V | 00:00:00 | 00:00:00 | 00:00:00 | |
| 9A1FER-3 | 2026-09-05 00:20:50 | 45.74570 | 16.60532 | 65° | 24km/h | 20704m | 4.1m/s | -56.0°C | 4.4% | 0hPa | 2.6V | 00:00:00 | 01:18:14 | 00:00:00 | |
| PETON7-10 | 2026-09-05 00:20:46 | 45.74556 | 16.60499 | 51° | 22km/h | 20684m | 5.6m/s | -55.9°C | 4.3% | 0hPa | 2.6V | 00:00:00 | 01:18:10 | 00:00:00 | |
| OE5DRO-10 | 2026-09-05 00:20:38 | 45.74534 | 16.60446 | 68° | 24km/h | 20637m | 5.3m/s | -55.6°C | 4.3% | 0hPa | 2.6V | 00:00:00 | 00:00:00 | 00:00:00 | |
| PETON7-10 | 2026-09-05 00:20:31 | 45.74511 | 16.60397 | 47° | 22km/h | 20600m | 5.3m/s | -55.9°C | 4.3% | 0hPa | 2.6V | 00:00:00 | 00:00:00 | 00:00:00 | |
| OE5DXL-15 | 2026-09-05 00:20:21 | 45.74466 | 16.60343 | 53° | 15km/h | 20546m | 6.3m/s | -55.8°C | 4.4% | 0hPa | 2.6V | 00:00:00 | 00:00:00 | 00:00:00 | |
| 9A1FER-3 | 2026-09-05 00:20:20 | 45.74463 | 16.60338 | 55° | 16km/h | 20540m | 5.0m/s | -55.8°C | 4.4% | 0hPa | 2.6V | 00:00:00 | 01:17:44 | 00:00:00 | |
| OE5DRO-10 | 2026-09-05 00:20:19 | 45.74461 | 16.60332 | 60° | 15km/h | 20535m | 5.8m/s | -55.7°C | 4.4% | 0hPa | 2.6V | 00:00:00 | 00:00:00 | 00:00:00 | |
| PETON7-10 | 2026-09-05 00:20:16 | 45.74455 | 16.60316 | 61° | 15km/h | 20517m | 6.0m/s | -55.7°C | 4.4% | 0hPa | 2.6V | 00:00:00 | 00:00:00 | 00:00:00 | |
| 9A1FER-3 | 2026-09-05 00:20:05 | 45.74440 | 16.60256 | 90° | 13km/h | 20457m | 6.9m/s | -55.4°C | 4.2% | 0hPa | 2.6V | 00:00:00 | 01:17:29 | 00:00:00 | |
| PETON7-10 | 2026-09-05 00:20:01 | 45.74442 | 16.60239 | 99° | 13km/h | 20435m | 5.0m/s | -55.2°C | 4.2% | 0hPa | 2.6V | 00:00:00 | 01:17:25 | 00:00:00 | |
| OE5DRO-10 | 2026-09-05 00:20:00 | 45.74443 | 16.60234 | 87° | 13km/h | 20430m | 5.0m/s | -55.1°C | 4.1% | 0hPa | 2.6V | 00:00:00 | 00:00:00 | 00:00:00 | |
| OE5DXL-15 | 2026-09-05 00:19:51 | 45.74431 | 16.60197 | 86° | 13km/h | 20380m | 6.5m/s | -55.2°C | 4.2% | 0hPa | 2.6V | 00:00:00 | 00:00:00 | 00:00:00 | |
| 9A1FER-3 | 2026-09-05 00:19:50 | 45.74431 | 16.60193 | 97° | 13km/h | 20375m | 4.7m/s | -55.2°C | 4.2% | 0hPa | 2.6V | 00:00:00 | 01:17:14 | 00:00:00 | |
| PETON7-10 | 2026-09-05 00:19:46 | 45.74433 | 16.60174 | 98° | 11km/h | 20354m | 5.3m/s | -55.3°C | 4.1% | 0hPa | 2.6V | 00:00:00 | 00:00:00 | 08:30:00 | |
| PG1ADW-2 | 2026-09-05 00:19:45 | 45.74434 | 16.60167 | 93° | 13km/h | 20348m | 5.2m/s | -55.3°C | 4.1% | 0hPa | 2.7V | 00:00:00 | 00:00:00 | 00:00:00 | |
| OE5DRO-10 | 2026-09-05 00:19:41 | 45.74431 | 16.60147 | 69° | 11km/h | 20327m | 6.3m/s | -55.4°C | 4.1% | 0hPa | 2.6V | 00:00:00 | 00:00:00 | 00:00:00 | |
| 9A1FER-3 | 2026-09-05 00:19:35 | 45.74427 | 16.60127 | 96° | 13km/h | 20295m | 4.4m/s | -55.8°C | 4.2% | 0hPa | 2.6V | 00:00:00 | 01:16:59 | 00:00:00 | |
| PETON7-10 | 2026-09-05 00:19:31 | 45.74430 | 16.60114 | 115° | 13km/h | 20274m | 5.9m/s | -55.9°C | 4.3% | 0hPa | 2.7V | 00:00:00 | 00:00:00 | 00:00:00 | |
| OE5DRO-10 | 2026-09-05 00:19:22 | 45.74443 | 16.60075 | 126° | 16km/h | 20226m | 4.2m/s | -56.1°C | 4.4% | 0hPa | 2.7V | 00:00:00 | 00:00:00 | 00:00:00 | |
| PG1ADW-2 | 2026-09-05 00:19:21 | 45.74445 | 16.60071 | 125° | 16km/h | 20221m | 6.3m/s | -56.1°C | 4.4% | 0hPa | 2.7V | 00:00:00 | 00:00:00 | 00:00:00 | |
| 9A1FER-10 | 2026-09-05 00:19:20 | 45.74447 | 16.60066 | 122° | 16km/h | 20215m | 4.8m/s | -56.0°C | 4.4% | 0hPa | 2.7V | 00:00:00 | 01:16:44 | 00:00:00 | |
| PETON7-10 | 2026-09-05 00:19:16 | 45.74452 | 16.60048 | 101° | 16km/h | 20195m | 5.8m/s | -56.1°C | 4.3% | 0hPa | 2.7V | 00:00:00 | 01:16:40 | 00:00:00 | |
| 9A1FER-3 | 2026-09-05 00:19:05 | 45.74462 | 16.59982 | 130° | 16km/h | 20137m | 5.5m/s | -56.0°C | 4.3% | 0hPa | 2.7V | 00:00:00 | 01:16:29 | 00:00:00 | |
| OE5DRO-10 | 2026-09-05 00:19:03 | 45.74467 | 16.59973 | 134° | 18km/h | 20126m | 6.1m/s | -56.1°C | 4.4% | 0hPa | 2.7V | 00:00:00 | 00:00:00 | 00:00:00 | |
| PETON7-10 | 2026-09-05 00:19:01 | 45.74472 | 16.59965 | 119° | 18km/h | 20115m | 6.2m/s | -56.1°C | 4.4% | 0hPa | 2.7V | 00:00:00 | 00:00:00 | 00:00:00 | |
| OE5DXL-15 | 2026-09-05 00:18:51 | 45.74499 | 16.59918 | 148° | 16km/h | 20064m | 5.0m/s | -56.1°C | 4.3% | 0hPa | 2.7V | 00:00:00 | 00:00:00 | 00:00:00 | |
| 9A1FER-3 | 2026-09-05 00:18:50 | 45.74503 | 16.59914 | 144° | 16km/h | 20058m | 6.2m/s | -56.1°C | 4.3% | 0hPa | 2.7V | 00:00:00 | 01:16:14 | 08:30:00 | |
| PETON7-10 | 2026-09-05 00:18:46 | 45.74518 | 16.59897 | 139° | 16km/h | 20038m | 4.2m/s | -56.0°C | 4.4% | 0hPa | 2.7V | 00:00:00 | 00:00:00 | 00:00:00 | |
| OE5DRO-10 | 2026-09-05 00:18:44 | 45.74523 | 16.59887 | 118° | 15km/h | 20027m | 4.4m/s | -55.9°C | 4.4% | 0hPa | 2.7V | 00:00:00 | 00:00:00 | 08:30:00 | |
| PG1ADW-2 | 2026-09-05 00:18:41 | 45.74527 | 16.59874 | 124° | 15km/h | 20013m | 4.0m/s | -55.9°C | 4.4% | 0hPa | 2.6V | 00:00:00 | 00:00:00 | 08:30:00 | |
| 9A1FER-10 | 2026-09-05 00:18:35 | 45.74542 | 16.59844 | 120° | 15km/h | 19983m | 4.4m/s | -55.8°C | 4.4% | 0hPa | 2.7V | 00:00:00 | 01:15:59 | 00:00:00 | |
| PETON7-10 | 2026-09-05 00:18:31 | 45.74543 | 16.59825 | 81° | 13km/h | 19962m | 5.9m/s | -55.7°C | 4.4% | 0hPa | 2.7V | 00:00:00 | 01:15:55 | 00:00:00 | |
| OE5DRO-10 | 2026-09-05 00:18:25 | 45.74539 | 16.59795 | 81° | 11km/h | 19930m | 6.1m/s | -55.5°C | 4.2% | 0hPa | 2.7V | 00:00:00 | 00:00:00 | 00:00:00 | |
| PG1ADW-2 | 2026-09-05 00:18:21 | 45.74540 | 16.59776 | 111° | 9km/h | 19908m | 4.9m/s | -55.7°C | 4.3% | 0hPa | 2.7V | 00:00:00 | 00:00:00 | 00:00:00 | |
| PETON7-10 | 2026-09-05 00:18:16 | 45.74547 | 16.59756 | 113° | 9km/h | 19881m | 6.0m/s | -55.7°C | 4.3% | 0hPa | 2.7V | 00:00:00 | 00:00:00 | 00:00:00 | |
| OE5DRO-10 | 2026-09-05 00:18:06 | 45.74551 | 16.59729 | 117° | 13km/h | 19830m | 6.1m/s | -55.5°C | 4.3% | 0hPa | 2.7V | 00:00:00 | 00:00:00 | 00:00:00 | |
| 9A1FER-3 | 2026-09-05 00:18:05 | 45.74552 | 16.59725 | 110° | 13km/h | 19825m | 4.7m/s | -55.5°C | 4.3% | 0hPa | 2.7V | 00:00:00 | 01:15:29 | 00:00:00 | |
| PG1ADW-2 | 2026-09-05 00:18:01 | 45.74555 | 16.59709 | 101° | 15km/h | 19804m | 5.6m/s | 0°C | 0% | 0hPa | 2.6V | 00:00:00 | 00:00:00 | 00:00:00 | |
| 9A1FER-3 | 2026-09-05 00:17:50 | 45.74568 | 16.59663 | 123° | 22km/h | 19750m | 5.9m/s | -55.3°C | 4.1% | 0hPa | 2.6V | 00:00:00 | 01:15:14 | 00:00:00 | |
| OE5DXL-15 | 2026-09-05 00:17:48 | 45.74572 | 16.59653 | 121° | 29km/h | 19741m | 4.9m/s | -55.3°C | 4.1% | 0hPa | 2.6V | 00:00:00 | 00:00:00 | 00:00:00 | |
| OE5DRO-10 | 2026-09-05 00:17:47 | 45.74575 | 16.59647 | 126° | 26km/h | 19736m | 5.4m/s | -55.3°C | 4.1% | 0hPa | 2.6V | 00:00:00 | 00:00:00 | 00:00:00 | |
| PETON7-10 | 2026-09-05 00:17:46 | 45.74577 | 16.59642 | 125° | 26km/h | 19731m | 4.1m/s | -55.3°C | 4.1% | 0hPa | 2.6V | 00:00:00 | 01:15:10 | 00:00:00 | |
| PG1ADW-2 | 2026-09-05 00:17:41 | 45.74585 | 16.59606 | 108° | 33km/h | 19705m | 4.8m/s | 0°C | 0% | 0hPa | 2.6V | 00:00:00 | 01:15:05 | 00:00:00 | |
| 9A1FER-3 | 2026-09-05 00:17:35 | 45.74601 | 16.59554 | 130° | 35km/h | 19675m | 4.2m/s | -56.6°C | 4.4% | 0hPa | 2.6V | 00:00:00 | 01:14:59 | 00:00:00 | |
| PETON7-10 | 2026-09-05 00:17:31 | 45.74616 | 16.59518 | 112° | 37km/h | 19653m | 6.0m/s | -56.6°C | 4.4% | 0hPa | 2.6V | 00:00:00 | 00:00:00 | 08:30:00 | |
| OE5DRO-10 | 2026-09-05 00:17:28 | 45.74623 | 16.59485 | 102° | 37km/h | 19637m | 5.3m/s | -56.5°C | 4.4% | 0hPa | 2.6V | 00:00:00 | 00:00:00 | 00:00:00 | |
| PG1ADW-2 | 2026-09-05 00:17:21 | 45.74647 | 16.59392 | 120° | 33km/h | 19602m | 4.6m/s | 0°C | 0% | 0hPa | 2.6V | 00:00:00 | 00:00:00 | 00:00:00 | |
| 9A1FER-10 | 2026-09-05 00:17:20 | 45.74651 | 16.59380 | 119° | 33km/h | 19597m | 3.7m/s | -57.0°C | 4.5% | 0hPa | 2.6V | 00:00:00 | 01:14:44 | 00:00:00 | |
| OE5DXL-15 | 2026-09-05 00:17:18 | 45.74658 | 16.59358 | 110° | 33km/h | 19587m | 4.4m/s | -57.2°C | 4.6% | 0hPa | 2.7V | 00:00:00 | 00:00:00 | 00:00:00 | |
| PETON7-10 | 2026-09-05 00:17:16 | 45.74663 | 16.59335 | 104° | 33km/h | 19577m | 5.9m/s | -57.3°C | 4.7% | 0hPa | 2.7V | 00:00:00 | 00:00:00 | 00:00:00 | |
| OE5DRO-10 | 2026-09-05 00:17:09 | 45.74673 | 16.59254 | 111° | 31km/h | 19543m | 3.6m/s | -57.3°C | 4.7% | 0hPa | 2.7V | 00:00:00 | 00:00:00 | 00:00:00 | |
| 9A1FER-3 | 2026-09-05 00:17:05 | 45.74684 | 16.59209 | 110° | 31km/h | 19523m | 5.3m/s | -57.2°C | 4.6% | 0hPa | 2.7V | 00:00:00 | 01:14:29 | 00:00:00 | |
| PETON7-10 | 2026-09-05 00:17:01 | 45.74695 | 16.59162 | 101° | 31km/h | 19503m | 4.4m/s | -57.1°C | 4.5% | 0hPa | 2.7V | 00:00:00 | 01:14:25 | 00:00:00 | |
| 9A1FER-3 | 2026-09-05 00:16:50 | 45.74709 | 16.59043 | 100° | 33km/h | 19449m | 5.5m/s | -57.3°C | 4.3% | 0hPa | 2.7V | 00:00:00 | 01:14:14 | 00:00:00 | |
| OE5DXL-15 | 2026-09-05 00:16:48 | 45.74712 | 16.59019 | 97° | 33km/h | 19438m | 5.6m/s | -57.9°C | 4.6% | 0hPa | 2.7V | 00:00:00 | 00:00:00 | 00:00:00 | |
| PETON7-10 | 2026-09-05 00:16:46 | 45.74713 | 16.58995 | 94° | 31km/h | 19429m | 3.5m/s | -58.2°C | 4.7% | 0hPa | 2.6V | 00:00:00 | 00:00:00 | 00:00:00 | |
| PETON7-10 | 2026-09-05 00:16:31 | 45.74734 | 16.58830 | 106° | 33km/h | 19352m | 4.8m/s | -58.7°C | 4.9% | 0hPa | 2.6V | 00:00:00 | 00:00:00 | 00:00:00 | |
| 9A1FER-3 | 2026-09-05 00:16:20 | 45.74742 | 16.58693 | 98° | 31km/h | 19296m | 4.9m/s | -58.8°C | 4.9% | 0hPa | 2.6V | 00:00:00 | 01:13:44 | 00:00:00 | |
| OE5DXL-15 | 2026-09-05 00:16:18 | 45.74744 | 16.58670 | 93° | 31km/h | 19286m | 4.0m/s | 0°C | 0% | 0hPa | 2.6V | 00:00:00 | 00:00:00 | 00:00:00 | |
| PETON7-10 | 2026-09-05 00:16:16 | 45.74745 | 16.58649 | 98° | 31km/h | 19276m | 5.4m/s | -58.8°C | 5.0% | 0hPa | 2.6V | 00:00:00 | 01:13:40 | 00:00:00 | |
| OE5DRO-10 | 2026-09-05 00:16:12 | 45.74746 | 16.58603 | 84° | 31km/h | 19257m | 4.7m/s | -58.8°C | 5.0% | 0hPa | 2.6V | 00:00:00 | 00:00:00 | 00:00:00 | |
| 9A1FER-3 | 2026-09-05 00:16:05 | 45.74738 | 16.58527 | 80° | 31km/h | 19222m | 6.0m/s | -58.5°C | 4.9% | 0hPa | 2.6V | 00:00:00 | 01:13:29 | 00:00:00 | |
| PETON7-10 | 2026-09-05 00:16:01 | 45.74734 | 16.58480 | 84° | 31km/h | 19200m | 4.3m/s | -58.4°C | 4.9% | 0hPa | 2.6V | 00:00:00 | 00:00:00 | 00:00:00 | |
| PG1ADW-2 | 2026-09-05 00:16:00 | 45.74733 | 16.58468 | 87° | 31km/h | 19195m | 5.8m/s | 0°C | 0% | 0hPa | 2.7V | 00:00:00 | 00:00:00 | 00:00:00 | |
| OE5DRO-10 | 2026-09-05 00:15:53 | 45.74722 | 16.58388 | 75° | 27km/h | 19158m | 6.2m/s | -58.1°C | 4.8% | 0hPa | 2.7V | 00:00:00 | 00:00:00 | 08:30:00 | |
| 9A1FER-3 | 2026-09-05 00:15:50 | 45.74718 | 16.58359 | 86° | 27km/h | 19143m | 5.1m/s | -58.2°C | 4.8% | 0hPa | 2.6V | 00:00:00 | 01:13:14 | 00:00:00 | |
| OE5DXL-15 | 2026-09-05 00:15:48 | 45.74717 | 16.58340 | 86° | 24km/h | 19133m | 5.9m/s | 0°C | 0% | 0hPa | 2.6V | 00:00:00 | 00:00:00 | 00:00:00 | |
| PETON7-10 | 2026-09-05 00:15:46 | 45.74716 | 16.58320 | 84° | 26km/h | 19123m | 5.0m/s | -58.2°C | 4.8% | 0hPa | 2.6V | 00:00:00 | 00:00:00 | 00:00:00 | |
| 9A1FER-3 | 2026-09-05 00:15:35 | 45.74697 | 16.58218 | 67° | 22km/h | 19067m | 5.7m/s | -58.0°C | 4.7% | 0hPa | 2.6V | 00:00:00 | 01:12:59 | 00:00:00 | |
| OE5DRO-10 | 2026-09-05 00:15:34 | 45.74695 | 16.58211 | 76° | 22km/h | 19062m | 5.2m/s | -58.0°C | 4.8% | 0hPa | 2.6V | 00:00:00 | 00:00:00 | 00:00:00 | |
| PETON7-10 | 2026-09-05 00:15:31 | 45.74691 | 16.58187 | 75° | 22km/h | 19046m | 4.2m/s | -57.9°C | 4.8% | 0hPa | 2.6V | 00:00:00 | 01:12:55 | 00:00:00 | |
| 9A1FER-10 | 2026-09-05 00:15:20 | 45.74679 | 16.58104 | 75° | 24km/h | 18988m | 5.7m/s | -58.1°C | 4.8% | 0hPa | 2.6V | 00:00:00 | 01:12:44 | 00:00:00 | |
| PETON7-10 | 2026-09-05 00:15:17 | 45.74670 | 16.58068 | 68° | 26km/h | 18966m | 4.1m/s | -58.0°C | 4.7% | 0hPa | 2.6V | 00:00:00 | 00:00:00 | 08:30:00 | |
| OE5DRO-10 | 2026-09-05 00:15:15 | 45.74668 | 16.58059 | 70° | 27km/h | 18961m | 5.8m/s | -58.1°C | 4.8% | 0hPa | 2.6V | 00:00:00 | 00:00:00 | 00:00:00 | |
| 9A1FER-3 | 2026-09-05 00:15:05 | 45.74651 | 16.57980 | 84° | 29km/h | 18909m | 6.4m/s | -58.2°C | 4.8% | 0hPa | 2.6V | 00:00:00 | 01:12:29 | 00:00:00 | |
| PETON7-10 | 2026-09-05 00:15:01 | 45.74649 | 16.57937 | 86° | 29km/h | 18889m | 4.4m/s | -58.2°C | 4.8% | 0hPa | 2.6V | 00:00:00 | 00:00:00 | 00:00:00 | |
| OE5DRO-10 | 2026-09-05 00:14:56 | 45.74645 | 16.57876 | 81° | 29km/h | 18863m | 4.8m/s | -58.2°C | 4.8% | 0hPa | 2.6V | 00:00:00 | 00:00:00 | 00:00:00 | |
| PG1ADW-2 | 2026-09-05 00:14:55 | 45.74644 | 16.57867 | 81° | 29km/h | 18857m | 5.7m/s | 0°C | 0% | 0hPa | 2.7V | 00:00:00 | 00:00:00 | 00:00:00 | |
| 9A1FER-3 | 2026-09-05 00:14:50 | 45.74642 | 16.57822 | 91° | 29km/h | 18832m | 5.5m/s | -58.2°C | 4.7% | 0hPa | 2.7V | 00:00:00 | 01:12:14 | 00:00:00 | |
| OE5DXL-15 | 2026-09-05 00:14:47 | 45.74643 | 16.57788 | 93° | 31km/h | 18816m | 5.4m/s | 0°C | 0% | 0hPa | 2.7V | 00:00:00 | 00:00:00 | 00:00:00 | |
| PETON7-10 | 2026-09-05 00:14:46 | 45.74643 | 16.57776 | 94° | 29km/h | 18811m | 3.6m/s | -58.3°C | 4.8% | 0hPa | 2.7V | 00:00:00 | 01:12:10 | 00:00:00 | |
| OE5DRO-10 | 2026-09-05 00:14:37 | 45.74638 | 16.57680 | 69° | 29km/h | 18765m | 6.2m/s | -58.4°C | 4.7% | 0hPa | 2.7V | 00:00:00 | 00:00:00 | 00:00:00 | |
| 9A1FER-3 | 2026-09-05 00:14:35 | 45.74634 | 16.57662 | 75° | 29km/h | 18756m | 4.6m/s | -58.4°C | 4.7% | 0hPa | 2.7V | 00:00:00 | 01:11:59 | 00:00:00 | |
| PETON7-10 | 2026-09-05 00:14:31 | 45.74630 | 16.57624 | 81° | 31km/h | 18735m | 4.9m/s | -58.8°C | 4.8% | 0hPa | 2.7V | 00:00:00 | 00:00:00 | 00:00:00 | |
| 9A1FER-3 | 2026-09-05 00:14:20 | 45.74602 | 16.57507 | 64° | 33km/h | 18680m | 4.6m/s | -59.0°C | 5.0% | 0hPa | 2.7V | 00:00:00 | 01:11:44 | 08:30:00 | |
| OE5DRO-10 | 2026-09-05 00:14:18 | 45.74596 | 16.57489 | 67° | 33km/h | 18670m | 4.6m/s | -59.1°C | 5.0% | 0hPa | 2.6V | 00:00:00 | 00:00:00 | 00:00:00 | |
| PETON7-10 | 2026-09-05 00:14:16 | 45.74589 | 16.57471 | 58° | 33km/h | 18659m | 4.4m/s | -59.3°C | 5.1% | 0hPa | 2.6V | 00:00:00 | 00:00:00 | 00:00:00 | |
| 9A1FER-3 | 2026-09-05 00:14:05 | 45.74532 | 16.57362 | 55° | 26km/h | 18603m | 4.7m/s | -59.4°C | 5.1% | 0hPa | 2.6V | 00:00:00 | 01:11:29 | 00:00:00 | |
| PETON7-10 | 2026-09-05 00:14:01 | 45.74514 | 16.57328 | 46° | 26km/h | 18582m | 4.6m/s | -59.2°C | 5.1% | 0hPa | 2.6V | 00:00:00 | 01:11:25 | 00:00:00 | |
| OE5DRO-10 | 2026-09-05 00:13:59 | 45.74505 | 16.57314 | 42° | 24km/h | 18571m | 5.1m/s | -59.2°C | 5.2% | 0hPa | 2.6V | 00:00:00 | 00:00:00 | 00:00:00 | |
| 9A1FER-3 | 2026-09-05 00:13:50 | 45.74464 | 16.57262 | 47° | 24km/h | 18526m | 5.7m/s | -59.1°C | 5.1% | 0hPa | 2.7V | 00:00:00 | 01:11:14 | 00:00:00 | |
| PETON7-10 | 2026-09-05 00:13:46 | 45.74443 | 16.57239 | 31° | 24km/h | 18505m | 5.5m/s | -59.0°C | 5.0% | 0hPa | 2.7V | 00:00:00 | 00:00:00 | 00:00:00 | |
| OE5DRO-10 | 2026-09-05 00:13:40 | 45.74410 | 16.57219 | 19° | 22km/h | 18474m | 4.3m/s | -58.8°C | 5.1% | 0hPa | 2.6V | 00:00:00 | 00:00:00 | 00:00:00 | |
| 9A1FER-3 | 2026-09-05 00:13:35 | 45.74386 | 16.57197 | 45° | 22km/h | 18447m | 4.8m/s | -58.7°C | 5.1% | 0hPa | 2.6V | 00:00:00 | 01:10:59 | 00:00:00 | |
| PETON7-10 | 2026-09-05 00:13:31 | 45.74367 | 16.57178 | 21° | 18km/h | 18428m | 5.4m/s | -58.6°C | 5.0% | 0hPa | 2.6V | 00:00:00 | 00:00:00 | 00:00:00 | |
| OE5DRO-10 | 2026-09-05 00:13:21 | 45.74318 | 16.57160 | 58° | 15km/h | 18374m | 5.9m/s | -58.1°C | 5.0% | 0hPa | 2.6V | 00:00:00 | 00:00:00 | 00:00:00 | |
| 9A1FER-10 | 2026-09-05 00:13:20 | 45.74316 | 16.57156 | 58° | 15km/h | 18368m | 4.6m/s | -58.1°C | 4.9% | 0hPa | 2.6V | 00:00:00 | 01:10:44 | 00:00:00 | |
| PETON7-10 | 2026-09-05 00:13:16 | 45.74305 | 16.57146 | 3° | 15km/h | 18343m | 8.0m/s | -57.8°C | 4.7% | 0hPa | 2.6V | 00:00:00 | 01:10:40 | 00:00:00 | |
| 9A1FER-3 | 2026-09-05 00:13:05 | 45.74273 | 16.57120 | 69° | 11km/h | 18281m | 4.1m/s | -57.6°C | 4.7% | 0hPa | 2.6V | 00:00:00 | 01:10:29 | 00:00:00 | |
| OE5DRO-10 | 2026-09-05 00:13:02 | 45.74267 | 16.57110 | 27° | 13km/h | 18265m | 4.9m/s | -57.5°C | 4.7% | 0hPa | 2.6V | 00:00:00 | 00:00:00 | 08:30:00 | |
| PETON7-10 | 2026-09-05 00:13:01 | 45.74264 | 16.57108 | 26° | 11km/h | 18259m | 5.1m/s | -57.5°C | 4.7% | 0hPa | 2.6V | 00:00:00 | 00:00:00 | 08:30:00 | |
| 9A1FER-3 | 2026-09-05 00:12:50 | 45.74251 | 16.57076 | 100° | 15km/h | 18200m | 3.8m/s | -57.5°C | 4.8% | 0hPa | 2.6V | 00:00:00 | 01:10:14 | 00:00:00 | |
| PETON7-10 | 2026-09-05 00:12:46 | 45.74253 | 16.57056 | 88° | 18km/h | 18178m | 5.5m/s | -57.4°C | 4.7% | 0hPa | 2.6V | 00:00:00 | 00:00:00 | 00:00:00 | |
| 9A1FER-3 | 2026-09-05 00:12:35 | 45.74254 | 16.56995 | 105° | 26km/h | 18115m | 6.0m/s | -57.4°C | 4.7% | 0hPa | 2.6V | 00:00:00 | 01:09:59 | 00:00:00 | |
| PETON7-10 | 2026-09-05 00:12:31 | 45.74260 | 16.56958 | 107° | 24km/h | 18094m | 4.8m/s | -57.2°C | 4.6% | 0hPa | 2.6V | 00:00:00 | 01:09:55 | 00:00:00 | |
| OE5DRO-10 | 2026-09-05 00:12:24 | 45.74266 | 16.56898 | 90° | 29km/h | 18058m | 4.4m/s | -57.5°C | 4.7% | 0hPa | 2.6V | 00:00:00 | 00:00:00 | 00:00:00 | |
| 9A1FER-3 | 2026-09-05 00:12:20 | 45.74268 | 16.56864 | 98° | 31km/h | 18037m | 5.1m/s | -57.7°C | 4.7% | 0hPa | 2.6V | 00:00:00 | 01:09:44 | 00:00:00 | |
| PETON7-10 | 2026-09-05 00:12:16 | 45.74275 | 16.56828 | 106° | 33km/h | 18017m | 5.4m/s | -57.9°C | 4.8% | 0hPa | 2.6V | 00:00:00 | 00:00:00 | 00:00:00 | |
| 9A1FER-10 | 2026-09-05 00:12:05 | 45.74280 | 16.56693 | 85° | 35km/h | 17960m | 5.3m/s | -57.7°C | 4.9% | 0hPa | 2.6V | 00:00:00 | 01:09:29 | 08:30:00 | |
| PETON7-10 | 2026-09-05 00:12:01 | 45.74280 | 16.56647 | 94° | 33km/h | 17940m | 5.1m/s | -57.7°C | 4.9% | 0hPa | 2.7V | 00:00:00 | 00:00:00 | 00:00:00 | |
| 9A1FER-3 | 2026-09-05 00:11:50 | 45.74284 | 16.56510 | 84° | 27km/h | 17884m | 4.9m/s | -57.8°C | 5.0% | 0hPa | 2.7V | 00:00:00 | 01:09:14 | 00:00:00 | |
| PETON7-10 | 2026-09-05 00:11:46 | 45.74284 | 16.56467 | 91° | 26km/h | 17863m | 5.1m/s | -57.8°C | 4.9% | 0hPa | 2.7V | 00:00:00 | 01:09:10 | 00:00:00 | |
| 9A1FER-3 | 2026-09-05 00:11:35 | 45.74295 | 16.56366 | 92° | 24km/h | 17805m | 6.2m/s | -57.9°C | 5.0% | 0hPa | 2.7V | 00:00:00 | 01:08:59 | 00:00:00 | |
| PETON7-10 | 2026-09-05 00:11:31 | 45.74299 | 16.56335 | 112° | 26km/h | 17784m | 5.1m/s | -57.9°C | 5.1% | 0hPa | 2.7V | 00:00:00 | 00:00:00 | 00:00:00 | |
| OE5DRO-10 | 2026-09-05 00:11:27 | 45.74307 | 16.56306 | 120° | 27km/h | 17763m | 5.5m/s | -57.9°C | 5.1% | 0hPa | 2.7V | 00:00:00 | 00:00:00 | 00:00:00 | |
| 9A1FER-10 | 2026-09-05 00:11:20 | 45.74328 | 16.56247 | 127° | 29km/h | 17726m | 4.7m/s | -57.8°C | 5.0% | 0hPa | 2.7V | 00:00:00 | 01:08:44 | 00:00:00 | |
| PETON7-10 | 2026-09-05 00:11:16 | 45.74343 | 16.56216 | 125° | 29km/h | 17703m | 4.7m/s | -58.0°C | 5.1% | 0hPa | 2.6V | 00:00:00 | 00:00:00 | 00:00:00 | |
| OE5DRO-10 | 2026-09-05 00:11:08 | 45.74372 | 16.56144 | 130° | 38km/h | 17660m | 6.5m/s | -58.2°C | 5.1% | 0hPa | 2.6V | 00:00:00 | 00:00:00 | 00:00:00 | |
| 9A1FER-3 | 2026-09-05 00:11:05 | 45.74388 | 16.56119 | 133° | 38km/h | 17644m | 5.6m/s | -58.2°C | 5.2% | 0hPa | 2.6V | 00:00:00 | 01:08:29 | 00:00:00 | |
| PETON7-10 | 2026-09-05 00:11:01 | 45.74409 | 16.56083 | 123° | 42km/h | 17622m | 6.0m/s | -58.1°C | 5.2% | 0hPa | 2.6V | 00:00:00 | 01:08:25 | 00:00:00 | |
| 9A1FER-3 | 2026-09-05 00:10:50 | 45.74471 | 16.55947 | 124° | 51km/h | 17565m | 5.0m/s | -58.6°C | 5.2% | 0hPa | 2.6V | 00:00:00 | 01:08:14 | 00:00:00 | |
| OE5DRO-10 | 2026-09-05 00:10:49 | 45.74478 | 16.55932 | 122° | 51km/h | 17559m | 6.2m/s | -58.6°C | 5.2% | 0hPa | 2.6V | 00:00:00 | 00:00:00 | 00:00:00 | |
| PETON7-10 | 2026-09-05 00:10:46 | 45.74494 | 16.55886 | 112° | 51km/h | 17542m | 6.1m/s | -58.7°C | 5.3% | 0hPa | 2.6V | 00:00:00 | 00:00:00 | 08:30:00 | |
| 9A1FER-10 | 2026-09-05 00:10:35 | 45.74534 | 16.55690 | 105° | 55km/h | 17486m | 4.0m/s | -59.2°C | 5.4% | 0hPa | 2.6V | 00:00:00 | 01:07:59 | 00:00:00 | |
| PETON7-10 | 2026-09-05 00:10:31 | 45.74546 | 16.55616 | 103° | 57km/h | 17465m | 4.9m/s | -59.4°C | 5.5% | 0hPa | 2.7V | 00:00:00 | 00:00:00 | 00:00:00 | |
| OE5DRO-10 | 2026-09-05 00:10:30 | 45.74549 | 16.55597 | 102° | 55km/h | 17460m | 4.9m/s | -59.4°C | 5.5% | 0hPa | 2.7V | 00:00:00 | 00:00:00 | 00:00:00 | |
| 9A1FER-3 | 2026-09-05 00:10:20 | 45.74560 | 16.55395 | 91° | 49km/h | 17409m | 4.7m/s | -60.5°C | 5.8% | 0hPa | 2.7V | 00:00:00 | 01:07:44 | 00:00:00 | |
| PETON7-10 | 2026-09-05 00:10:16 | 45.74559 | 16.55314 | 91° | 46km/h | 17389m | 5.8m/s | -60.5°C | 5.8% | 0hPa | 2.7V | 00:00:00 | 01:07:40 | 00:00:00 | |
| OE5DRO-10 | 2026-09-05 00:10:11 | 45.74560 | 16.55224 | 93° | 44km/h | 17362m | 4.7m/s | -60.6°C | 5.8% | 0hPa | 2.7V | 00:00:00 | 00:00:00 | 08:30:00 | |
| 9A1FER-10 | 2026-09-05 00:10:05 | 45.74566 | 16.55128 | 102° | 44km/h | 17333m | 4.3m/s | -60.7°C | 5.9% | 0hPa | 2.6V | 00:00:00 | 01:07:29 | 00:00:00 | |
| PETON7-10 | 2026-09-05 00:10:01 | 45.74575 | 16.55067 | 99° | 44km/h | 17314m | 5.4m/s | -61.0°C | 6.0% | 0hPa | 2.6V | 00:00:00 | 00:00:00 | 00:00:00 | |
| OE5DXL-15 | 2026-09-05 00:09:52 | 45.74584 | 16.54924 | 104° | 42km/h | 17270m | 4.4m/s | 0°C | 0% | 0hPa | 2.6V | 00:00:00 | 00:00:00 | 00:00:00 | |
| 9A1FER-3 | 2026-09-05 00:09:50 | 45.74589 | 16.54894 | 104° | 46km/h | 17260m | 5.1m/s | -61.7°C | 6.4% | 0hPa | 2.6V | 00:00:00 | 01:07:14 | 08:30:00 | |
| PETON7-10 | 2026-09-05 00:09:46 | 45.74598 | 16.54833 | 98° | 47km/h | 17242m | 4.4m/s | -61.7°C | 6.5% | 0hPa | 2.7V | 00:00:00 | 00:00:00 | 00:00:00 | |
| 9A1FER-3 | 2026-09-05 00:09:35 | 45.74605 | 16.54648 | 87° | 49km/h | 17186m | 5.9m/s | -61.7°C | 6.8% | 0hPa | 2.7V | 00:00:00 | 01:06:59 | 00:00:00 | |
| OE5DRO-10 | 2026-09-05 00:09:33 | 45.74603 | 16.54612 | 82° | 47km/h | 17177m | 5.6m/s | -61.7°C | 6.7% | 0hPa | 2.7V | 00:00:00 | 00:00:00 | 00:00:00 | |
| PETON7-10 | 2026-09-05 00:09:31 | 45.74599 | 16.54576 | 83° | 47km/h | 17167m | 6.2m/s | -61.6°C | 6.7% | 0hPa | 2.7V | 00:00:00 | 01:06:55 | 00:00:00 | |
| 9A1FER-10 | 2026-09-05 00:09:20 | 45.74594 | 16.54384 | 91° | 42km/h | 17111m | 5.1m/s | -61.1°C | 6.4% | 0hPa | 2.7V | 00:00:00 | 01:06:44 | 00:00:00 | |
| PETON7-10 | 2026-09-05 00:09:16 | 45.74593 | 16.54323 | 90° | 42km/h | 17090m | 5.8m/s | -61.0°C | 6.3% | 0hPa | 2.7V | 00:00:00 | 00:00:00 | 00:00:00 | |
| OE5DRO-10 | 2026-09-05 00:09:14 | 45.74593 | 16.54296 | 91° | 42km/h | 17080m | 3.3m/s | -60.9°C | 6.4% | 0hPa | 2.6V | 00:00:00 | 00:00:00 | 00:00:00 | |
| PETON7-10 | 2026-09-05 00:09:01 | 45.74598 | 16.54091 | 97° | 40km/h | 17016m | 4.7m/s | -61.0°C | 6.5% | 0hPa | 2.6V | 00:00:00 | 00:00:00 | 00:00:00 | |
| OE5DRO-10 | 2026-09-05 00:08:55 | 45.74610 | 16.54007 | 104° | 37km/h | 16986m | 5.7m/s | -61.3°C | 6.5% | 0hPa | 2.6V | 00:00:00 | 00:00:00 | 00:00:00 | |
| 9A1FER-3 | 2026-09-05 00:08:50 | 45.74622 | 16.53931 | 107° | 35km/h | 16962m | 4.8m/s | -61.2°C | 6.6% | 0hPa | 2.6V | 00:00:00 | 01:06:14 | 00:00:00 | |
| PETON7-10 | 2026-09-05 00:08:46 | 45.74633 | 16.53881 | 112° | 33km/h | 16943m | 5.7m/s | -61.1°C | 6.5% | 0hPa | 2.6V | 00:00:00 | 01:06:10 | 00:00:00 | |
| OE5DRO-10 | 2026-09-05 00:08:36 | 45.74659 | 16.53768 | 109° | 35km/h | 16893m | 3.5m/s | -61.0°C | 6.8% | 0hPa | 2.6V | 00:00:00 | 00:00:00 | 00:00:00 | |
| 9A1FER-10 | 2026-09-05 00:08:35 | 45.74662 | 16.53756 | 107° | 35km/h | 16888m | 5.7m/s | -61.0°C | 6.7% | 0hPa | 2.6V | 00:00:00 | 01:05:59 | 00:00:00 | |
| PETON7-10 | 2026-09-05 00:08:31 | 45.74672 | 16.53704 | 105° | 33km/h | 16868m | 4.7m/s | -61.0°C | 6.6% | 0hPa | 2.6V | 00:00:00 | 00:00:00 | 08:30:00 | |
| 9A1FER-3 | 2026-09-05 00:08:20 | 45.74684 | 16.53571 | 82° | 33km/h | 16810m | 3.8m/s | -60.6°C | 6.5% | 0hPa | 2.6V | 00:00:00 | 01:05:44 | 00:00:00 | |
| PETON7-10 | 2026-09-05 00:08:18 | 45.74682 | 16.53525 | 88° | 33km/h | 16790m | 5.4m/s | -60.4°C | 6.4% | 0hPa | 2.6V | 00:00:00 | 00:00:00 | 00:00:00 | |
| 9A1FER-10 | 2026-09-05 00:08:15 | 45.74672 | 16.53393 | 81° | 31km/h | 16734m | 5.2m/s | -60.1°C | 6.4% | 0hPa | 2.6V | 00:00:00 | 01:05:29 | 00:00:00 | |
| 9A1FER-3 | 2026-09-05 00:08:14 | 45.74672 | 16.53393 | 81° | 31km/h | 16734m | 5.2m/s | -60.1°C | 6.4% | 0hPa | 2.6V | 00:00:00 | 01:05:29 | 00:00:00 | |
| 9A1FER-3 | 2026-09-05 00:08:01 | 45.74647 | 16.53232 | 62° | 27km/h | 16656m | 5.8m/s | -59.9°C | 6.4% | 0hPa | 2.6V | 00:00:00 | 01:05:14 | 00:00:00 | |
| PETON7-10 | 2026-09-05 00:07:46 | 45.74636 | 16.53197 | 76° | 27km/h | 16635m | 5.5m/s | -59.7°C | 6.4% | 0hPa | 2.6V | 00:00:00 | 00:00:00 | 00:00:00 | |
| OE5DRO-10 | 2026-09-05 00:07:39 | 45.74624 | 16.53128 | 65° | 26km/h | 16598m | 4.3m/s | -59.4°C | 6.4% | 0hPa | 2.6V | 00:00:00 | 00:00:00 | 00:00:00 | |
| 9A1FER-3 | 2026-09-05 00:07:35 | 45.74613 | 16.53096 | 60° | 26km/h | 16577m | 4.2m/s | -59.1°C | 6.4% | 0hPa | 2.6V | 00:00:00 | 01:04:59 | 08:30:00 | |
| PETON7-10 | 2026-09-05 00:07:31 | 45.74603 | 16.53063 | 70° | 24km/h | 16556m | 4.9m/s | -59.0°C | 6.3% | 0hPa | 2.7V | 00:00:00 | 00:00:00 | 00:00:00 | |
| 9A1FER-10 | 2026-09-05 00:07:20 | 45.74576 | 16.52973 | 58° | 26km/h | 16500m | 3.7m/s | -58.6°C | 6.2% | 0hPa | 2.7V | 00:00:00 | 01:04:44 | 00:00:00 | |
| PETON7-10 | 2026-09-05 00:07:16 | 45.74565 | 16.52943 | 76° | 26km/h | 16478m | 4.8m/s | -58.4°C | 6.3% | 0hPa | 2.7V | 00:00:00 | 01:04:40 | 00:00:00 | |
| 9A1FER-3 | 2026-09-05 00:07:05 | 45.74542 | 16.52845 | 63° | 26km/h | 16421m | 5.9m/s | -57.9°C | 5.8% | 0hPa | 2.7V | 00:00:00 | 01:04:29 | 00:00:00 | |
| PETON7-10 | 2026-09-05 00:07:01 | 45.74535 | 16.52813 | 85° | 24km/h | 16400m | 5.3m/s | -57.9°C | 5.8% | 0hPa | 2.7V | 00:00:00 | 00:00:00 | 00:00:00 | |
| 9A1FER-3 | 2026-09-05 00:06:50 | 45.74522 | 16.52714 | 64° | 24km/h | 16342m | 4.7m/s | -59.5°C | 6.5% | 0hPa | 2.7V | 00:00:00 | 01:04:14 | 00:00:00 | |
| PETON7-10 | 2026-09-05 00:06:46 | 45.74515 | 16.52687 | 85° | 27km/h | 16324m | 3.4m/s | -60.4°C | 6.9% | 0hPa | 2.6V | 00:00:00 | 00:00:00 | 00:00:00 | |
| OE5DRO-10 | 2026-09-05 00:06:42 | 45.74520 | 16.52660 | 109° | 33km/h | 16300m | 7.3m/s | -60.7°C | 7.1% | 0hPa | 2.6V | 00:00:00 | 00:00:00 | 00:00:00 | |
| 9A1FER-10 | 2026-09-05 00:06:35 | 45.74541 | 16.52592 | 111° | 37km/h | 16260m | 4.2m/s | -60.8°C | 7.2% | 0hPa | 2.6V | 00:00:00 | 01:03:59 | 00:00:00 | |
| PETON7-10 | 2026-09-05 00:06:31 | 45.74555 | 16.52548 | 116° | 38km/h | 16240m | 5.0m/s | -61.1°C | 7.5% | 0hPa | 2.6V | 00:00:00 | 01:03:55 | 00:00:00 | |
| OE5DRO-10 | 2026-09-05 00:06:23 | 45.74590 | 16.52453 | 111° | 44km/h | 16198m | 5.6m/s | -60.8°C | 7.3% | 0hPa | 2.6V | 00:00:00 | 00:00:00 | 00:00:00 | |
| 9A1FER-3 | 2026-09-05 00:06:20 | 45.74601 | 16.52415 | 116° | 44km/h | 16185m | 5.5m/s | -60.9°C | 7.2% | 0hPa | 2.6V | 00:00:00 | 01:03:44 | 00:00:00 | |
| PETON7-10 | 2026-09-05 00:06:16 | 45.74619 | 16.52362 | 120° | 46km/h | 16166m | 3.8m/s | -60.9°C | 7.3% | 0hPa | 2.6V | 00:00:00 | 00:00:00 | 08:30:00 | |
| 9A1FER-10 | 2026-09-05 00:06:05 | 45.74681 | 16.52202 | 118° | 47km/h | 16111m | 4.2m/s | -61.5°C | 7.6% | 0hPa | 2.6V | 00:00:00 | 01:03:29 | 00:00:00 | |
| OE5DRO-10 | 2026-09-05 00:06:04 | 45.74686 | 16.52188 | 119° | 49km/h | 16107m | 4.8m/s | -61.7°C | 7.8% | 0hPa | 2.6V | 00:00:00 | 00:00:00 | 00:00:00 | |
| PETON7-10 | 2026-09-05 00:06:01 | 45.74703 | 16.52145 | 121° | 49km/h | 16093m | 3.5m/s | -61.9°C | 7.9% | 0hPa | 2.6V | 00:00:00 | 00:00:00 | 00:00:00 | |
| 9A1FER-3 | 2026-09-05 00:05:50 | 45.74764 | 16.51968 | 111° | 49km/h | 16042m | 5.9m/s | -62.1°C | 8.2% | 0hPa | 2.6V | 00:00:00 | 01:03:14 | 00:00:00 | |
| PETON7-10 | 2026-09-05 00:05:46 | 45.74781 | 16.51897 | 110° | 47km/h | 16022m | 5.4m/s | -62.0°C | 8.3% | 0hPa | 2.6V | 00:00:00 | 01:03:10 | 00:00:00 | |
| OE5DRO-10 | 2026-09-05 00:05:45 | 45.74785 | 16.51880 | 108° | 47km/h | 16018m | 3.6m/s | -62.0°C | 8.4% | 0hPa | 2.6V | 00:00:00 | 00:00:00 | 00:00:00 | |
| 9A1FER-3 | 2026-09-05 00:05:35 | 45.74814 | 16.51714 | 104° | 44km/h | 15971m | 4.1m/s | -61.8°C | 8.4% | 0hPa | 2.6V | 00:00:00 | 01:02:59 | 00:00:00 | |
| PETON7-10 | 2026-09-05 00:05:31 | 45.74825 | 16.51651 | 99° | 42km/h | 15951m | 5.4m/s | -61.7°C | 8.4% | 0hPa | 2.6V | 00:00:00 | 00:00:00 | 00:00:00 | |
| OE5DRO-10 | 2026-09-05 00:05:26 | 45.74832 | 16.51567 | 97° | 40km/h | 15927m | 4.3m/s | -61.6°C | 8.2% | 0hPa | 2.6V | 00:00:00 | 00:00:00 | 00:00:00 | |
| 9A1FER-10 | 2026-09-05 00:05:20 | 45.74843 | 16.51483 | 102° | 40km/h | 15897m | 6.0m/s | -61.6°C | 8.3% | 0hPa | 2.7V | 00:00:00 | 01:02:44 | 08:30:00 | |
| PETON7-10 | 2026-09-05 00:05:16 | 45.74849 | 16.51423 | 98° | 38km/h | 15877m | 6.0m/s | -61.6°C | 8.3% | 0hPa | 2.7V | 00:00:00 | 00:00:00 | 00:00:00 | |
| OE5DRO-10 | 2026-09-05 00:05:07 | 45.74853 | 16.51290 | 95° | 38km/h | 15833m | 5.4m/s | -61.8°C | 8.6% | 0hPa | 2.7V | 00:00:00 | 00:00:00 | 00:00:00 | |
| 9A1FER-3 | 2026-09-05 00:05:05 | 45.74856 | 16.51264 | 98° | 38km/h | 15824m | 3.9m/s | -61.9°C | 8.7% | 0hPa | 2.7V | 00:00:00 | 01:02:29 | 00:00:00 | |
| PETON7-10 | 2026-09-05 00:05:01 | 45.74858 | 16.51215 | 96° | 40km/h | 15806m | 4.9m/s | -62.0°C | 9.0% | 0hPa | 2.7V | 00:00:00 | 01:02:25 | 00:00:00 | |
| 9A1FER-3 | 2026-09-05 00:04:50 | 45.74862 | 16.51055 | 96° | 46km/h | 15756m | 5.6m/s | -62.2°C | 8.8% | 0hPa | 2.7V | 00:00:00 | 01:02:14 | 00:00:00 | |
| OE5DRO-10 | 2026-09-05 00:04:48 | 45.74865 | 16.51027 | 102° | 47km/h | 15745m | 5.3m/s | -62.2°C | 8.9% | 0hPa | 2.7V | 00:00:00 | 00:00:00 | 00:00:00 | |
| PETON7-10 | 2026-09-05 00:04:47 | 45.74869 | 16.51000 | 100° | 49km/h | 15737m | 5.4m/s | -62.1°C | 9.0% | 0hPa | 2.7V | 00:00:00 | 00:00:00 | 00:00:00 | |
| OE3JTB-15 | 2026-09-05 00:04:42 | 45.74872 | 16.50938 | 95° | 51km/h | 15718m | 4.1m/s | -62.0°C | 8.9% | 0hPa | 2.6V | 00:00:00 | 00:00:00 | 00:00:00 | |
| 9A1FER-3 | 2026-09-05 00:04:35 | 45.74881 | 16.50808 | 99° | 51km/h | 15685m | 3.8m/s | -62.7°C | 9.5% | 0hPa | 2.6V | 00:00:00 | 01:01:59 | 00:00:00 | |
| PETON7-10 | 2026-09-05 00:04:30 | 45.74889 | 16.50722 | 96° | 53km/h | 15661m | 5.1m/s | -62.7°C | 9.8% | 0hPa | 2.6V | 00:00:00 | 00:00:00 | 00:00:00 | |
| OE5DRO-10 | 2026-09-05 00:04:29 | 45.74890 | 16.50704 | 97° | 53km/h | 15656m | 4.2m/s | -62.7°C | 9.9% | 0hPa | 2.6V | 00:00:00 | 00:00:00 | 08:30:00 | |
| 9A1FER-3 | 2026-09-05 00:04:20 | 45.74902 | 16.50528 | 95° | 49km/h | 15615m | 4.3m/s | -62.5°C | 9.7% | 0hPa | 2.6V | 00:00:00 | 01:01:44 | 00:00:00 | |
| PETON7-10 | 2026-09-05 00:04:15 | 45.74908 | 16.50436 | 96° | 47km/h | 15591m | 3.9m/s | -62.8°C | 10.0% | 0hPa | 2.6V | 00:00:00 | 01:01:39 | 00:00:00 | |
| OE5DRO-10 | 2026-09-05 00:04:10 | 45.74918 | 16.50347 | 102° | 47km/h | 15566m | 5.9m/s | -62.9°C | 10.2% | 0hPa | 2.6V | 00:00:00 | 00:00:00 | 00:00:00 | |
| 9A1FER-3 | 2026-09-05 00:04:06 | 45.74928 | 16.50266 | 100° | 47km/h | 15541m | 4.5m/s | -62.8°C | 10.3% | 0hPa | 2.6V | 00:00:00 | 01:01:29 | 00:00:00 | |
| PETON7-10 | 2026-09-05 00:04:00 | 45.74937 | 16.50179 | 100° | 47km/h | 15517m | 5.3m/s | -62.7°C | 10.3% | 0hPa | 2.6V | 00:00:00 | 00:00:00 | 08:30:00 | |
| OE5DRO-10 | 2026-09-05 00:03:51 | 45.74950 | 16.50028 | 95° | 47km/h | 15475m | 4.2m/s | -62.6°C | 10.7% | 0hPa | 2.6V | 00:00:00 | 00:00:00 | 00:00:00 | |
| 9A1FER-3 | 2026-09-05 00:03:50 | 45.74951 | 16.50012 | 94° | 49km/h | 15470m | 4.3m/s | -62.6°C | 10.8% | 0hPa | 2.6V | 00:00:00 | 01:01:14 | 00:00:00 | |
| PETON7-10 | 2026-09-05 00:03:45 | 45.74955 | 16.49922 | 96° | 47km/h | 15448m | 5.7m/s | -62.5°C | 11.0% | 0hPa | 2.7V | 00:00:00 | 00:00:00 | 00:00:00 | |
| 9A1FER-3 | 2026-09-05 00:03:35 | 45.74959 | 16.49745 | 90° | 46km/h | 15398m | 3.6m/s | -62.3°C | 11.1% | 0hPa | 2.7V | 00:00:00 | 01:00:59 | 00:00:00 | |
| OE5DRO-10 | 2026-09-05 00:03:32 | 45.74960 | 16.49696 | 93° | 47km/h | 15384m | 5.5m/s | -62.2°C | 11.1% | 0hPa | 2.7V | 00:00:00 | 00:00:00 | 00:00:00 | |
| PETON7-10 | 2026-09-05 00:03:30 | 45.74962 | 16.49663 | 97° | 47km/h | 15374m | 5.3m/s | -62.2°C | 11.2% | 0hPa | 2.6V | 00:00:00 | 01:00:54 | 00:00:00 | |
| 9A1FER-10 | 2026-09-05 00:03:20 | 45.74978 | 16.49496 | 103° | 47km/h | 15325m | 4.6m/s | -61.8°C | 11.3% | 0hPa | 2.6V | 00:00:00 | 01:00:44 | 00:00:00 | |
| PETON7-10 | 2026-09-05 00:03:15 | 45.74990 | 16.49410 | 102° | 44km/h | 15301m | 5.5m/s | -61.9°C | 11.9% | 0hPa | 2.6V | 00:00:00 | 00:00:00 | 00:00:00 | |
| OE5DRO-10 | 2026-09-05 00:03:13 | 45.74995 | 16.49375 | 102° | 46km/h | 15292m | 4.9m/s | -61.8°C | 12.0% | 0hPa | 2.6V | 00:00:00 | 00:00:00 | 00:00:00 | |
| 9A1FER-3 | 2026-09-05 00:03:05 | 45.75017 | 16.49249 | 106° | 46km/h | 15254m | 5.8m/s | -62.1°C | 12.6% | 0hPa | 2.6V | 00:00:00 | 01:00:29 | 08:30:00 | |
| OE5DRO-10 | 2026-09-05 00:03:01 | 45.75047 | 16.49074 | 106° | 49km/h | 15201m | 5.4m/s | -62.0°C | 13.2% | 0hPa | 2.6V | 00:00:00 | 00:00:00 | 00:00:00 | |
| 9A1FER-3 | 2026-09-05 00:02:54 | 45.75062 | 16.49006 | 110° | 49km/h | 15182m | 5.2m/s | -61.9°C | 13.3% | 0hPa | 2.6V | 00:00:00 | 01:00:14 | 00:00:00 | |
| PETON7-10 | 2026-09-05 00:02:50 | 45.75084 | 16.48923 | 112° | 49km/h | 15157m | 5.2m/s | -62.0°C | 13.6% | 0hPa | 2.6V | 00:00:00 | 01:00:09 | 00:00:00 | |
| 9A1FER-10 | 2026-09-05 00:02:36 | 45.75120 | 16.48756 | 102° | 55km/h | 15108m | 6.1m/s | -62.7°C | 14.8% | 0hPa | 2.6V | 00:00:00 | 00:59:59 | 00:00:00 | |
| 9A1FER-3 | 2026-09-05 00:02:35 | 45.75120 | 16.48756 | 102° | 55km/h | 15108m | 6.1m/s | -62.7°C | 14.8% | 0hPa | 2.6V | 00:00:00 | 00:59:59 | 00:00:00 | |
| PETON7-10 | 2026-09-05 00:02:30 | 45.75137 | 16.48664 | 109° | 57km/h | 15082m | 5.9m/s | -63.0°C | 15.5% | 0hPa | 2.6V | 00:00:00 | 00:00:00 | 00:00:00 | |
| 9A1FER-3 | 2026-09-05 00:02:22 | 45.75167 | 16.48466 | 98° | 53km/h | 15029m | 4.7m/s | -63.4°C | 17.3% | 0hPa | 2.7V | 00:00:00 | 00:59:44 | 00:00:00 | |
| OE5DRO-10 | 2026-09-05 00:02:18 | 45.75176 | 16.48385 | 101° | 51km/h | 15009m | 4.8m/s | -63.4°C | 17.6% | 0hPa | 2.7V | 00:00:00 | 00:00:00 | 00:00:00 | |
| PETON7-10 | 2026-09-05 00:02:17 | 45.75179 | 16.48365 | 100° | 51km/h | 15003m | 6.0m/s | -63.4°C | 17.9% | 0hPa | 2.7V | 00:00:00 | 00:00:00 | 00:00:00 | |
| 9A1FER-10 | 2026-09-05 00:02:06 | 45.75190 | 16.48186 | 95° | 51km/h | 14950m | 5.2m/s | -63.3°C | 18.7% | 0hPa | 2.7V | 00:00:00 | 00:59:29 | 00:00:00 | |
| 9A1FER-3 | 2026-09-05 00:02:05 | 45.75190 | 16.48186 | 95° | 51km/h | 14950m | 5.2m/s | -63.3°C | 18.7% | 0hPa | 2.7V | 00:00:00 | 00:59:29 | 00:00:00 | |
| 9A1FER-3 | 2026-09-05 00:01:53 | 45.75220 | 16.47910 | 101° | 55km/h | 14872m | 5.7m/s | -63.5°C | 20.5% | 0hPa | 2.7V | 00:00:00 | 00:59:14 | 00:00:00 | |
| OE3JTB-15 | 2026-09-05 00:01:50 | 45.75226 | 16.47872 | 104° | 55km/h | 14862m | 6.2m/s | -63.4°C | 20.2% | 0hPa | 2.7V | 00:00:00 | 00:59:12 | 00:00:00 | |
| PETON7-10 | 2026-09-05 00:01:47 | 45.75235 | 16.47817 | 104° | 57km/h | 14845m | 5.1m/s | -63.5°C | 20.6% | 0hPa | 2.7V | 00:00:00 | 00:00:00 | 08:30:00 | |
| OE5DRO-10 | 2026-09-05 00:01:40 | 45.75262 | 16.47660 | 103° | 55km/h | 14802m | 4.2m/s | -63.5°C | 21.5% | 0hPa | 2.7V | 00:00:00 | 00:00:00 | 08:30:00 | |
| 9A1FER-10 | 2026-09-05 00:01:39 | 45.75270 | 16.47619 | 106° | 55km/h | 14791m | 3.8m/s | -63.4°C | 21.7% | 0hPa | 2.7V | 00:00:00 | 00:58:59 | 00:00:00 | |
| 9A1FER-3 | 2026-09-05 00:01:38 | 45.75270 | 16.47619 | 106° | 55km/h | 14791m | 3.8m/s | -63.4°C | 21.7% | 0hPa | 2.7V | 00:00:00 | 00:58:59 | 00:00:00 | |
| PETON7-10 | 2026-09-05 00:01:34 | 45.75289 | 16.47518 | 105° | 55km/h | 14764m | 5.9m/s | -63.5°C | 22.1% | 0hPa | 2.7V | 00:00:00 | 00:00:00 | 00:00:00 | |
| 9A1FER-3 | 2026-09-05 00:01:24 | 45.75313 | 16.47328 | 99° | 57km/h | 14711m | 4.2m/s | -64.4°C | 24.9% | 0hPa | 2.7V | 00:00:00 | 00:58:44 | 00:00:00 | |
| 9A1FER-10 | 2026-09-05 00:01:23 | 45.75313 | 16.47328 | 99° | 57km/h | 14711m | 4.2m/s | -64.4°C | 24.9% | 0hPa | 2.7V | 00:00:00 | 00:58:44 | 00:00:00 | |
| OE5DRO-10 | 2026-09-05 00:01:22 | 45.75318 | 16.47290 | 102° | 57km/h | 14701m | 4.5m/s | -64.7°C | 26.0% | 0hPa | 2.7V | 00:00:00 | 00:00:00 | 00:00:00 | |
| 9A1FER-10 | 2026-09-05 00:01:08 | 45.75338 | 16.47019 | 99° | 53km/h | 14629m | 5.4m/s | -65.4°C | 29.7% | 0hPa | 2.7V | 00:00:00 | 00:58:29 | 00:00:00 | |
| 9A1FER-3 | 2026-09-05 00:01:07 | 45.75338 | 16.47019 | 99° | 53km/h | 14629m | 5.4m/s | -65.4°C | 29.7% | 0hPa | 2.7V | 00:00:00 | 00:58:29 | 00:00:00 | |
| PETON7-10 | 2026-09-05 00:01:01 | 45.75349 | 16.46923 | 99° | 49km/h | 14602m | 5.8m/s | -65.6°C | 29.9% | 0hPa | 2.7V | 00:00:00 | 00:00:00 | 00:00:00 | |
| OE5DRO-10 | 2026-09-05 00:00:59 | 45.75351 | 16.46903 | 96° | 47km/h | 14596m | 5.4m/s | -65.7°C | 30.3% | 0hPa | 2.7V | 00:00:00 | 00:00:00 | 00:00:00 | |
| 9A1FER-3 | 2026-09-05 00:00:50 | 45.75358 | 16.46739 | 97° | 46km/h | 14550m | 4.6m/s | -65.6°C | 32.4% | 0hPa | 2.7V | 00:00:00 | 00:58:14 | 08:30:00 | |
| PETON7-10 | 2026-09-05 00:00:44 | 45.75367 | 16.46640 | 99° | 40km/h | 14519m | 4.3m/s | -65.5°C | 31.5% | 0hPa | 2.7V | 00:00:00 | 00:00:00 | 00:00:00 | |
| OE5DRO-10 | 2026-09-05 00:00:40 | 45.75373 | 16.46575 | 99° | 38km/h | 14498m | 4.8m/s | 0°C | 0% | 0hPa | 2.7V | 00:00:00 | 00:00:00 | 00:00:00 | |
| 9A1FER-3 | 2026-09-05 00:00:38 | 45.75377 | 16.46499 | 92° | 37km/h | 14471m | 5.0m/s | -65.3°C | 32.0% | 0hPa | 2.7V | 00:00:00 | 00:57:59 | 00:00:00 | |
| PETON7-10 | 2026-09-05 00:00:29 | 45.75380 | 16.46425 | 97° | 35km/h | 14441m | 5.1m/s | -65.1°C | 33.0% | 0hPa | 2.7V | 00:00:00 | 00:57:53 | 00:00:00 | |
| OE3JTB-15 | 2026-09-05 00:00:22 | 45.75392 | 16.46321 | 98° | 42km/h | 14399m | 5.9m/s | -64.9°C | 34.4% | 0hPa | 2.7V | 00:00:00 | 00:57:45 | 00:00:00 | |
| 9A1FER-3 | 2026-09-05 00:00:21 | 45.75393 | 16.46309 | 97° | 37km/h | 14394m | 3.3m/s | -64.8°C | 34.0% | 0hPa | 2.7V | 00:00:00 | 00:57:44 | 00:00:00 | |
| PETON7-10 | 2026-09-05 00:00:15 | 45.75396 | 16.46247 | 114° | 46km/h | 14365m | 4.7m/s | -64.8°C | 34.8% | 0hPa | 2.7V | 00:00:00 | 00:00:00 | 00:00:00 | |
| 9A1FER-3 | 2026-09-05 00:00:06 | 45.75436 | 16.46124 | 118° | 49km/h | 14297m | 4.6m/s | -64.5°C | 37.2% | 0hPa | 2.7V | 00:00:00 | 00:57:29 | 00:00:00 | |
| 9A1FER-10 | 2026-09-05 00:00:05 | 45.75436 | 16.46124 | 118° | 49km/h | 14297m | 4.6m/s | -64.5°C | 37.2% | 0hPa | 2.7V | 00:00:00 | 00:57:29 | 00:00:00 | |
| PETON7-10 | 2026-09-04 23:59:55 | 45.75489 | 16.45964 | 123° | 57km/h | 14240m | 9.0m/s | -64.5°C | 39.4% | 0hPa | 2.7V | 00:00:00 | 00:00:00 | 00:00:00 | |
| OE3JTB-15 | 2026-09-04 23:59:53 | 45.75510 | 16.45919 | 124° | 62km/h | 14217m | 5.5m/s | -64.5°C | 40.3% | 0hPa | 2.7V | 00:00:00 | 00:00:00 | 08:30:00 | |
| OE5DRO-10 | 2026-09-04 23:59:51 | 45.75517 | 16.45904 | 123° | 60km/h | 14212m | 4.3m/s | 0°C | 0% | 0hPa | 2.7V | 00:00:00 | 00:00:00 | 00:00:00 | |
| 9A1FER-3 | 2026-09-04 23:59:48 | 45.75538 | 16.45855 | 120° | 60km/h | 14197m | 6.6m/s | -64.5°C | 40.9% | 0hPa | 2.7V | 00:00:00 | 00:57:12 | 00:00:00 | |
| PETON7-10 | 2026-09-04 23:59:40 | 45.75601 | 16.45712 | 128° | 64km/h | 14150m | 8.6m/s | -64.6°C | 44.3% | 0hPa | 2.7V | 00:00:00 | 00:57:04 | 00:00:00 | |
| 9A1FER-10 | 2026-09-04 23:59:33 | 45.75671 | 16.45582 | 122° | 71km/h | 14111m | 7.6m/s | -64.4°C | 44.3% | 0hPa | 2.7V | 00:00:00 | 00:56:57 | 00:00:00 | |
| OE5DRO-10 | 2026-09-04 23:59:32 | 45.75679 | 16.45563 | 120° | 73km/h | 14105m | 3.7m/s | 0°C | 0% | 0hPa | 2.7V | 00:00:00 | 00:00:00 | 00:00:00 | |
| PETON7-10 | 2026-09-04 23:59:24 | 45.75755 | 16.45401 | 127° | 77km/h | 14059m | 5.6m/s | 0°C | 0% | 0hPa | 2.7V | 00:00:00 | 00:00:00 | 08:30:00 | |
| OE3JTB-15 | 2026-09-04 23:59:23 | 45.75767 | 16.45377 | 124° | 75km/h | 14054m | 3.6m/s | -65.1°C | 49.3% | 0hPa | 2.7V | 00:00:00 | 00:00:00 | 00:00:00 | |
| 9A1FER-3 | 2026-09-04 23:59:18 | 45.75814 | 16.45256 | 118° | 75km/h | 14028m | 3.2m/s | -65.6°C | 52.4% | 0hPa | 2.7V | 00:00:00 | 00:56:42 | 00:00:00 | |
| OE5DRO-10 | 2026-09-04 23:59:13 | 45.75857 | 16.45136 | 119° | 73km/h | 14001m | 9.8m/s | 0°C | 0% | 0hPa | 2.7V | 00:00:00 | 00:00:00 | 00:00:00 | |
| PETON7-10 | 2026-09-04 23:59:09 | 45.75891 | 16.45037 | 115° | 71km/h | 13976m | 9.3m/s | 0°C | 0% | 0hPa | 2.7V | 00:00:00 | 00:00:00 | 00:00:00 | |
| 9A1FER-3 | 2026-09-04 23:59:03 | 45.75935 | 16.44890 | 114° | 73km/h | 13932m | 4.4m/s | -66.3°C | 59.6% | 0hPa | 2.7V | 00:00:00 | 00:56:27 | 00:00:00 | |
| PETON7-10 | 2026-09-04 23:58:54 | 45.76000 | 16.44679 | 114° | 73km/h | 13880m | 5.2m/s | 0°C | 0% | 0hPa | 2.7V | 00:00:00 | 00:56:18 | 00:00:00 | |
| 9A1FER-10 | 2026-09-04 23:58:48 | 45.76040 | 16.44523 | 108° | 71km/h | 13846m | 6.6m/s | -67.1°C | 63.6% | 0hPa | 2.7V | 00:00:00 | 00:56:12 | 00:00:00 | |
| PETON7-10 | 2026-09-04 23:58:39 | 45.76081 | 16.44299 | 105° | 71km/h | 13791m | 4.7m/s | 0°C | 0% | 0hPa | 2.7V | 00:00:00 | 00:00:00 | 00:00:00 | |
| 9A1FER-3 | 2026-09-04 23:58:33 | 45.76111 | 16.44153 | 111° | 71km/h | 13754m | 8.5m/s | -67.7°C | 70.8% | 0hPa | 2.7V | 00:00:00 | 00:55:57 | 08:30:00 | |
| OE3JTB-15 | 2026-09-04 23:58:25 | 45.76155 | 16.43955 | 107° | 68km/h | 13704m | 4.2m/s | -67.3°C | 69.8% | 0hPa | 2.7V | 00:00:00 | 00:00:00 | 00:00:00 | |
| PETON7-10 | 2026-09-04 23:58:24 | 45.76160 | 16.43932 | 106° | 69km/h | 13699m | 6.6m/s | 0°C | 0% | 0hPa | 2.7V | 00:00:00 | 00:00:00 | 00:00:00 | |
| 9A1FER-3 | 2026-09-04 23:58:18 | 45.76188 | 16.43785 | 108° | 69km/h | 13658m | 11.8m/s | -67.1°C | 67.2% | 0hPa | 2.7V | 00:00:00 | 00:55:42 | 00:00:00 | |
| PETON7-10 | 2026-09-04 23:58:08 | 45.76221 | 16.43535 | 96° | 66km/h | 13591m | 5.8m/s | 0°C | 0% | 0hPa | 2.7V | 00:00:00 | 00:55:32 | 00:00:00 | |
| 9A1FER-10 | 2026-09-04 23:58:03 | 45.76231 | 16.43420 | 102° | 66km/h | 13562m | 4.4m/s | -66.3°C | 63.7% | 0hPa | 2.7V | 00:00:00 | 00:55:27 | 00:00:00 | |
| OE3JTB-15 | 2026-09-04 23:57:56 | 45.76254 | 16.43256 | 101° | 71km/h | 13521m | 3.6m/s | -66.0°C | 62.9% | 0hPa | 2.7V | 00:00:00 | 00:00:00 | 00:00:00 | |
| PETON7-10 | 2026-09-04 23:57:53 | 45.76263 | 16.43186 | 102° | 69km/h | 13500m | 6.2m/s | 0°C | 0% | 0hPa | 2.7V | 00:00:00 | 00:00:00 | 00:00:00 | |
| 9A1FER-3 | 2026-09-04 23:57:48 | 45.76282 | 16.43066 | 104° | 69km/h | 13473m | 3.4m/s | -65.5°C | 61.8% | 0hPa | 2.7V | 00:00:00 | 00:55:12 | 00:00:00 | |
| PETON7-10 | 2026-09-04 23:57:36 | 45.76341 | 16.42775 | 108° | 73km/h | 13390m | 9.6m/s | 0°C | 0% | 0hPa | 2.7V | 00:00:00 | 00:00:00 | 00:00:00 | |
| 9A1FER-3 | 2026-09-04 23:57:33 | 45.76354 | 16.42699 | 103° | 73km/h | 13371m | 6.5m/s | -64.7°C | 59.0% | 0hPa | 2.7V | 00:00:00 | 00:54:57 | 00:00:00 | |
| OE3JTB-15 | 2026-09-04 23:57:27 | 45.76388 | 16.42545 | 110° | 73km/h | 13335m | 8.4m/s | -64.4°C | 58.4% | 0hPa | 2.7V | 00:00:00 | 00:54:51 | 00:00:00 | |
| PETON7-10 | 2026-09-04 23:57:21 | 45.76420 | 16.42398 | 107° | 73km/h | 13295m | 5.9m/s | 0°C | 0% | 0hPa | 2.7V | 00:00:00 | 00:54:45 | 00:00:00 | |
| 9A1FER-3 | 2026-09-04 23:57:18 | 45.76435 | 16.42325 | 107° | 73km/h | 13278m | 7.5m/s | -63.9°C | 57.5% | 0hPa | 2.7V | 00:00:00 | 00:54:42 | 00:00:00 | |
| PETON7-10 | 2026-09-04 23:57:06 | 45.76510 | 16.42025 | 112° | 77km/h | 13204m | 6.4m/s | 0°C | 0% | 0hPa | 2.7V | 00:00:00 | 00:00:00 | 00:00:00 | |
| 9A1FER-3 | 2026-09-04 23:57:03 | 45.76533 | 16.41949 | 113° | 73km/h | 13184m | 6.0m/s | -63.3°C | 57.2% | 0hPa | 2.7V | 00:00:00 | 00:54:27 | 00:00:00 | |
| OE3JTB-15 | 2026-09-04 23:56:58 | 45.76566 | 16.41825 | 110° | 69km/h | 13158m | 2.8m/s | -63.2°C | 58.1% | 0hPa | 2.7V | 00:00:00 | 00:00:00 | 00:00:00 | |
| 9A1FER-10 | 2026-09-04 23:56:48 | 45.76624 | 16.41581 | 106° | 69km/h | 13100m | 3.3m/s | -62.9°C | 58.9% | 0hPa | 2.7V | 00:00:00 | 00:54:12 | 00:00:00 | |
| 9A1FER-3 | 2026-09-04 23:56:33 | 45.76699 | 16.41218 | 106° | 66km/h | 13013m | 6.8m/s | -62.2°C | 56.8% | 0hPa | 2.7V | 00:00:00 | 00:53:57 | 00:00:00 | |
| 9A1FER-3 | 2026-09-04 23:56:18 | 45.76767 | 16.40872 | 105° | 64km/h | 12923m | 5.3m/s | -61.7°C | 56.1% | 0hPa | 2.7V | 00:00:00 | 00:53:42 | 08:30:00 | |
| 9A1FER-10 | 2026-09-04 23:56:03 | 45.76816 | 16.40538 | 98° | 62km/h | 12836m | 5.4m/s | -61.0°C | 56.3% | 0hPa | 2.7V | 00:00:00 | 00:53:27 | 00:00:00 | |
| 9A1FER-3 | 2026-09-04 23:55:48 | 45.76857 | 16.40208 | 99° | 62km/h | 12751m | 4.0m/s | -60.3°C | 56.4% | 0hPa | 2.7V | 00:00:00 | 00:53:12 | 00:00:00 | |
| 9A1FER-3 | 2026-09-04 23:55:33 | 45.76883 | 16.39869 | 94° | 57km/h | 12660m | 4.6m/s | -60.2°C | 58.0% | 0hPa | 2.7V | 00:00:00 | 00:52:57 | 00:00:00 | |
| OE3JTB-15 | 2026-09-04 23:55:31 | 45.76885 | 16.39826 | 94° | 53km/h | 12650m | 8.3m/s | -60.1°C | 57.5% | 0hPa | 2.7V | 00:00:00 | 00:00:00 | 08:30:00 | |
| 9A1FER-3 | 2026-09-04 23:55:19 | 45.76900 | 16.39568 | 98° | 51km/h | 12570m | 8.7m/s | -59.5°C | 55.4% | 0hPa | 2.7V | 00:00:00 | 00:52:42 | 00:00:00 | |
| 9A1FER-3 | 2026-09-04 23:55:03 | 45.76897 | 16.39290 | 96° | 51km/h | 12478m | 7.3m/s | -58.8°C | 52.5% | 0hPa | 2.7V | 00:00:00 | 00:52:27 | 00:00:00 | |
| OE3JTB-15 | 2026-09-04 23:55:02 | 45.76899 | 16.39273 | 98° | 51km/h | 12472m | 4.1m/s | -58.8°C | 52.7% | 0hPa | 2.7V | 00:00:00 | 00:00:00 | 00:00:00 | |
| 9A1FER-10 | 2026-09-04 23:54:48 | 45.76899 | 16.39015 | 90° | 53km/h | 12392m | 6.5m/s | -58.0°C | 50.7% | 0hPa | 2.7V | 00:00:00 | 00:52:12 | 00:00:00 | |
| 9A1FER-3 | 2026-09-04 23:54:33 | 45.76904 | 16.38732 | 97° | 51km/h | 12312m | 4.6m/s | -57.4°C | 48.4% | 0hPa | 2.7V | 00:00:00 | 00:51:57 | 00:00:00 | |
| 9A1FER-3 | 2026-09-04 23:54:18 | 45.76921 | 16.38454 | 95° | 51km/h | 12240m | 4.5m/s | -57.0°C | 48.4% | 0hPa | 2.7V | 00:00:00 | 00:51:42 | 00:00:00 | |
| OE3JTB-15 | 2026-09-04 23:54:04 | 45.76946 | 16.38199 | 101° | 53km/h | 12169m | 4.8m/s | -56.3°C | 45.3% | 0hPa | 2.7V | 00:00:00 | 00:00:00 | 00:00:00 | |
| 9A1FER-3 | 2026-09-04 23:54:03 | 45.76949 | 16.38181 | 102° | 51km/h | 12163m | 6.2m/s | -56.2°C | 44.9% | 0hPa | 2.7V | 00:00:00 | 00:51:27 | 08:30:00 | |
| 9A1FER-3 | 2026-09-04 23:53:48 | 45.76980 | 16.37904 | 100° | 53km/h | 12088m | 5.1m/s | -55.6°C | 41.9% | 0hPa | 2.7V | 00:00:00 | 00:51:12 | 00:00:00 | |
| OE3JTB-15 | 2026-09-04 23:53:35 | 45.77015 | 16.37657 | 104° | 58km/h | 12020m | 4.7m/s | -54.9°C | 40.1% | 0hPa | 2.7V | 00:00:00 | 00:00:00 | 00:00:00 | |
| 9A1FER-3 | 2026-09-04 23:53:33 | 45.77022 | 16.37617 | 104° | 57km/h | 12010m | 4.6m/s | -54.8°C | 39.7% | 0hPa | 2.7V | 00:00:00 | 00:50:57 | 00:00:00 | |
| 9A1FER-3 | 2026-09-04 23:53:18 | 45.77066 | 16.37319 | 106° | 58km/h | 11933m | 5.0m/s | -54.1°C | 37.9% | 0hPa | 2.7V | 00:00:00 | 00:50:42 | 00:00:00 | |
| OE3JTB-15 | 2026-09-04 23:53:06 | 45.77114 | 16.37070 | 103° | 64km/h | 11869m | 5.6m/s | -53.6°C | 36.3% | 0hPa | 2.7V | 00:00:00 | 00:50:30 | 00:00:00 | |
| 9A1FER-3 | 2026-09-04 23:53:03 | 45.77123 | 16.37008 | 103° | 62km/h | 11855m | 4.8m/s | -53.4°C | 35.9% | 0hPa | 2.7V | 00:00:00 | 00:50:27 | 00:00:00 | |
| 9A1FER-10 | 2026-09-04 23:52:48 | 45.77186 | 16.36682 | 105° | 64km/h | 11777m | 5.6m/s | -52.8°C | 34.0% | 0hPa | 2.7V | 00:00:00 | 00:50:12 | 00:00:00 | |
| OE3JTB-15 | 2026-09-04 23:52:37 | 45.77232 | 16.36431 | 107° | 64km/h | 11720m | 5.8m/s | -52.2°C | 32.8% | 0hPa | 2.7V | 00:00:00 | 00:00:00 | 00:00:00 | |
| 9A1FER-3 | 2026-09-04 23:52:33 | 45.77250 | 16.36343 | 104° | 66km/h | 11701m | 5.7m/s | -52.1°C | 32.3% | 0hPa | 2.7V | 00:00:00 | 00:49:57 | 00:00:00 | |
| 9A1FER-3 | 2026-09-04 23:52:18 | 45.77312 | 16.36002 | 109° | 64km/h | 11623m | 4.7m/s | -51.4°C | 30.9% | 0hPa | 2.7V | 00:00:00 | 00:49:42 | 00:00:00 | |
| OE3JTB-15 | 2026-09-04 23:52:08 | 45.77353 | 16.35780 | 109° | 64km/h | 11573m | 4.5m/s | -50.9°C | 29.7% | 0hPa | 2.7V | 00:00:00 | 00:00:00 | 00:00:00 | |
| 9A1FER-10 | 2026-09-04 23:52:03 | 45.77379 | 16.35673 | 108° | 64km/h | 11547m | 5.0m/s | -50.6°C | 29.4% | 0hPa | 2.7V | 00:00:00 | 00:49:27 | 00:00:00 | |
| 9A1FER-3 | 2026-09-04 23:51:48 | 45.77448 | 16.35340 | 109° | 66km/h | 11471m | 5.7m/s | -49.9°C | 28.0% | 0hPa | 2.7V | 00:00:00 | 00:49:12 | 08:30:00 | |
| 9A1FER-3 | 2026-09-04 23:51:33 | 45.77520 | 16.35003 | 108° | 64km/h | 11394m | 4.7m/s | -49.3°C | 27.3% | 0hPa | 2.7V | 00:00:00 | 00:48:57 | 00:00:00 | |
| 9A1FER-3 | 2026-09-04 23:51:18 | 45.77588 | 16.34675 | 105° | 66km/h | 11317m | 6.0m/s | -48.7°C | 25.4% | 0hPa | 2.7V | 00:00:00 | 00:48:42 | 00:00:00 | |
| OE3JTB-15 | 2026-09-04 23:51:10 | 45.77622 | 16.34492 | 105° | 66km/h | 11277m | 5.5m/s | -48.3°C | 24.8% | 0hPa | 2.7V | 00:00:00 | 00:00:00 | 08:30:00 | |
| 9A1FER-3 | 2026-09-04 23:51:03 | 45.77654 | 16.34334 | 108° | 66km/h | 11244m | 4.2m/s | -48.1°C | 25.0% | 0hPa | 2.7V | 00:00:00 | 00:48:27 | 00:00:00 | |
| 9A1FER-10 | 2026-09-04 23:50:48 | 45.77725 | 16.33997 | 110° | 66km/h | 11172m | 4.4m/s | -47.6°C | 24.5% | 0hPa | 2.7V | 00:00:00 | 00:48:12 | 00:00:00 | |
| OE3JTB-15 | 2026-09-04 23:50:41 | 45.77760 | 16.33838 | 108° | 66km/h | 11137m | 5.9m/s | -47.3°C | 23.8% | 0hPa | 2.7V | 00:00:00 | 00:00:00 | 00:00:00 | |
| 9A1FER-3 | 2026-09-04 23:50:33 | 45.77798 | 16.33661 | 108° | 68km/h | 11097m | 6.0m/s | -46.9°C | 23.0% | 0hPa | 2.7V | 00:00:00 | 00:47:57 | 00:00:00 | |
| 9A1FER-3 | 2026-09-04 23:50:18 | 45.77873 | 16.33311 | 108° | 66km/h | 11022m | 5.7m/s | -46.2°C | 21.8% | 0hPa | 2.7V | 00:00:00 | 00:47:42 | 00:00:00 | |
| OE3JTB-15 | 2026-09-04 23:50:12 | 45.77902 | 16.33177 | 108° | 66km/h | 10994m | 5.1m/s | -46.0°C | 21.6% | 0hPa | 2.7V | 00:00:00 | 00:47:36 | 00:00:00 | |
| 9A1FER-10 | 2026-09-04 23:50:03 | 45.77945 | 16.32967 | 106° | 64km/h | 10950m | 6.0m/s | -45.7°C | 21.4% | 0hPa | 2.7V | 00:00:00 | 00:47:27 | 00:00:00 | |
| 9A1FER-3 | 2026-09-04 23:49:48 | 45.78014 | 16.32630 | 106° | 64km/h | 10880m | 3.5m/s | -45.2°C | 20.8% | 0hPa | 2.7V | 00:00:00 | 00:47:12 | 00:00:00 | |
| OE3JTB-15 | 2026-09-04 23:49:44 | 45.78036 | 16.32523 | 108° | 66km/h | 10855m | 4.4m/s | -45.0°C | 20.5% | 0hPa | 2.7V | 00:00:00 | 00:00:00 | 00:00:00 | |
| 9A1FER-3 | 2026-09-04 23:49:33 | 45.78087 | 16.32295 | 108° | 66km/h | 10809m | 3.8m/s | -44.6°C | 19.6% | 0hPa | 2.9V | 00:00:00 | 00:46:57 | 08:30:00 | |
| OE3JTB-15 | 2026-09-04 23:49:14 | 45.78186 | 16.31861 | 112° | 69km/h | 10723m | 4.1m/s | -43.9°C | 17.6% | 0hPa | 2.7V | 00:00:00 | 00:00:00 | 00:00:00 | |
| 9A1FER-10 | 2026-09-04 23:49:03 | 45.78250 | 16.31602 | 110° | 68km/h | 10671m | 5.7m/s | -43.4°C | 17.9% | 0hPa | 2.7V | 00:00:00 | 00:46:27 | 00:00:00 | |
| 9A1FER-10 | 2026-09-04 23:48:48 | 45.78334 | 16.31252 | 111° | 69km/h | 10601m | 5.8m/s | -42.7°C | 17.7% | 0hPa | 2.7V | 00:00:00 | 00:46:12 | 00:00:00 | |
| OE3JTB-15 | 2026-09-04 23:48:45 | 45.78352 | 16.31182 | 110° | 69km/h | 10588m | 4.1m/s | -42.6°C | 17.4% | 0hPa | 2.9V | 00:00:00 | 00:46:09 | 00:00:00 | |
| 9A1FER-3 | 2026-09-04 23:48:33 | 45.78422 | 16.30897 | 110° | 69km/h | 10535m | 3.8m/s | -42.2°C | 16.4% | 0hPa | 2.9V | 00:00:00 | 00:45:57 | 00:00:00 | |
| 9A1FER-3 | 2026-09-04 23:48:18 | 45.78512 | 16.30545 | 109° | 68km/h | 10466m | 3.6m/s | -41.6°C | 15.6% | 0hPa | 2.9V | 00:00:00 | 00:45:42 | 00:00:00 | |
| OE3JTB-15 | 2026-09-04 23:48:16 | 45.78523 | 16.30500 | 112° | 69km/h | 10455m | 3.9m/s | -41.5°C | 15.6% | 0hPa | 2.9V | 00:00:00 | 00:00:00 | 00:00:00 | |
| 9A1FER-10 | 2026-09-04 23:48:03 | 45.78605 | 16.30199 | 111° | 69km/h | 10396m | 4.8m/s | -40.9°C | 14.5% | 0hPa | 2.9V | 00:00:00 | 00:45:27 | 00:00:00 | |
| 9A1FER-3 | 2026-09-04 23:47:48 | 45.78696 | 16.29850 | 111° | 69km/h | 10333m | 4.9m/s | -40.4°C | 14.5% | 0hPa | 2.9V | 00:00:00 | 00:45:12 | 00:00:00 | |
| OE3JTB-15 | 2026-09-04 23:47:47 | 45.78702 | 16.29827 | 110° | 69km/h | 10328m | 4.7m/s | -40.4°C | 14.6% | 0hPa | 2.9V | 00:00:00 | 00:00:00 | 00:00:00 | |
| 9A1FER-3 | 2026-09-04 23:47:33 | 45.78777 | 16.29497 | 108° | 69km/h | 10268m | 4.0m/s | -40.1°C | 15.3% | 0hPa | 2.9V | 00:00:00 | 00:44:57 | 00:00:00 | |
| 9A1FER-3 | 2026-09-04 23:47:18 | 45.78876 | 16.29151 | 111° | 69km/h | 10203m | 3.2m/s | -39.6°C | 15.7% | 0hPa | 2.9V | 00:00:00 | 00:44:42 | 08:30:00 | |
| 9A1FER-3 | 2026-09-04 23:47:04 | 45.78967 | 16.28799 | 108° | 68km/h | 10137m | 4.7m/s | -39.1°C | 15.1% | 0hPa | 2.9V | 00:00:00 | 00:44:27 | 00:00:00 | |
| OE3JTB-15 | 2026-09-04 23:46:49 | 45.79049 | 16.28481 | 113° | 68km/h | 10081m | 2.4m/s | 0°C | 0% | 0hPa | 2.9V | 00:00:00 | 00:00:00 | 08:30:00 | |
| 9A1FER-10 | 2026-09-04 23:46:48 | 45.79056 | 16.28458 | 113° | 69km/h | 10077m | 4.6m/s | -38.6°C | 15.1% | 0hPa | 2.9V | 00:00:00 | 00:44:12 | 00:00:00 | |
| 9A1FER-3 | 2026-09-04 23:46:33 | 45.79148 | 16.28110 | 112° | 69km/h | 10012m | 4.0m/s | -38.1°C | 14.5% | 0hPa | 2.9V | 00:00:00 | 00:43:57 | 00:00:00 | |
| 9A1FER-3 | 2026-09-04 23:46:18 | 45.79243 | 16.27761 | 114° | 69km/h | 9950m | 2.6m/s | -37.5°C | 13.7% | 0hPa | 2.9V | 00:00:00 | 00:43:42 | 00:00:00 | |
| 9A1FER-10 | 2026-09-04 23:46:03 | 45.79342 | 16.27409 | 110° | 71km/h | 9889m | 4.3m/s | -37.0°C | 15.9% | 0hPa | 2.9V | 00:00:00 | 00:43:27 | 00:00:00 | |
| 9A1FER-3 | 2026-09-04 23:45:48 | 45.79438 | 16.27052 | 106° | 68km/h | 9824m | 3.8m/s | -36.7°C | 16.7% | 0hPa | 2.9V | 00:00:00 | 00:43:12 | 00:00:00 | |
| 9A1FER-3 | 2026-09-04 23:45:33 | 45.79523 | 16.26705 | 113° | 68km/h | 9758m | 5.4m/s | -36.2°C | 16.6% | 0hPa | 2.9V | 00:00:00 | 00:42:57 | 00:00:00 | |
| 9A1FER-3 | 2026-09-04 23:45:18 | 45.79601 | 16.26359 | 108° | 71km/h | 9689m | 5.2m/s | -35.6°C | 15.8% | 0hPa | 2.9V | 00:00:00 | 00:42:42 | 00:00:00 | |
| 9A1FER-10 | 2026-09-04 23:44:48 | 45.79748 | 16.25649 | 99° | 64km/h | 9511m | 9.5m/s | -34.1°C | 12.5% | 0hPa | 2.9V | 00:00:00 | 00:42:12 | 00:00:00 | |
| 9A1FER-3 | 2026-09-04 23:44:33 | 45.79806 | 16.25306 | 101° | 66km/h | 9424m | 4.9m/s | -33.5°C | 12.4% | 0hPa | 2.9V | 00:00:00 | 00:41:57 | 00:00:00 | |
| 9A1FER-3 | 2026-09-04 23:44:18 | 45.79870 | 16.24966 | 105° | 64km/h | 9343m | 6.0m/s | -32.8°C | 11.1% | 0hPa | 2.9V | 00:00:00 | 00:41:42 | 00:00:00 | |
| 9A1FER-10 | 2026-09-04 23:44:03 | 45.79919 | 16.24625 | 100° | 60km/h | 9256m | 6.3m/s | -32.3°C | 11.2% | 0hPa | 2.9V | 00:00:00 | 00:41:27 | 00:00:00 | |
| 9A1FER-3 | 2026-09-04 23:43:48 | 45.79958 | 16.24303 | 101° | 60km/h | 9171m | 8.5m/s | -31.6°C | 10.7% | 0hPa | 2.9V | 00:00:00 | 00:41:12 | 00:00:00 | |
| 9A1FER-3 | 2026-09-04 23:43:33 | 45.79984 | 16.23980 | 96° | 60km/h | 9082m | 7.3m/s | -31.2°C | 10.3% | 0hPa | 2.9V | 00:00:00 | 00:40:57 | 00:00:00 | |
| 9A1FER-3 | 2026-09-04 23:43:18 | 45.80008 | 16.23659 | 93° | 62km/h | 8989m | 7.2m/s | -30.8°C | 14.8% | 0hPa | 2.7V | 00:00:00 | 00:40:42 | 00:00:00 | |
| 9A1FER-3 | 2026-09-04 23:43:03 | 45.80036 | 16.23322 | 98° | 66km/h | 8900m | 8.7m/s | -30.3°C | 15.8% | 0hPa | 2.7V | 00:00:00 | 00:40:27 | 00:00:00 | |
| 9A1FER-10 | 2026-09-04 23:42:48 | 45.80076 | 16.22968 | 102° | 68km/h | 8812m | 9.3m/s | -29.7°C | 15.3% | 0hPa | 2.7V | 00:00:00 | 00:40:12 | 08:30:00 | |
| 9A1FER-3 | 2026-09-04 23:42:33 | 45.80116 | 16.22602 | 104° | 66km/h | 8723m | 8.4m/s | -29.0°C | 15.1% | 0hPa | 2.9V | 00:00:00 | 00:39:57 | 00:00:00 | |
| 9A1FER-3 | 2026-09-04 23:42:18 | 45.80145 | 16.22246 | 96° | 68km/h | 8630m | 3.1m/s | -28.4°C | 16.0% | 0hPa | 2.9V | 00:00:00 | 00:39:42 | 00:00:00 | |
| 9A1FER-10 | 2026-09-04 23:42:03 | 45.80165 | 16.21881 | 94° | 69km/h | 8535m | 9.5m/s | -27.7°C | 17.3% | 0hPa | 2.9V | 00:00:00 | 00:39:27 | 00:00:00 | |
| 9A1FER-3 | 2026-09-04 23:41:48 | 45.80184 | 16.21506 | 94° | 71km/h | 8442m | 3.5m/s | -27.0°C | 18.7% | 0hPa | 2.9V | 00:00:00 | 00:39:12 | 00:00:00 | |
| 9A1FER-3 | 2026-09-04 23:41:33 | 45.80206 | 16.21123 | 97° | 73km/h | 8337m | 4.6m/s | -26.1°C | 18.2% | 0hPa | 2.9V | 00:00:00 | 00:38:57 | 00:00:00 | |
| 9A1FER-3 | 2026-09-04 23:41:18 | 45.80223 | 16.20731 | 97° | 69km/h | 8245m | 8.9m/s | -25.2°C | 16.5% | 0hPa | 2.9V | 00:00:00 | 00:38:42 | 00:00:00 | |
| 9A1FER-3 | 2026-09-04 23:41:03 | 45.80236 | 16.20356 | 94° | 68km/h | 8147m | 6.9m/s | -24.4°C | 16.3% | 0hPa | 2.9V | 00:00:00 | 00:38:27 | 00:00:00 | |
| 9A1FER-10 | 2026-09-04 23:40:48 | 45.80247 | 16.19991 | 88° | 62km/h | 8045m | 5.3m/s | -23.6°C | 15.9% | 0hPa | 2.9V | 00:00:00 | 00:38:12 | 00:00:00 | |
| 9A1FER-3 | 2026-09-04 23:40:33 | 45.80265 | 16.19656 | 93° | 66km/h | 7953m | 7.5m/s | -22.9°C | 15.3% | 0hPa | 2.9V | 00:00:00 | 00:37:57 | 08:30:00 | |
| 9A1FER-3 | 2026-09-04 23:40:18 | 45.80286 | 16.19304 | 99° | 62km/h | 7862m | 6.8m/s | -22.2°C | 14.2% | 0hPa | 2.9V | 00:00:00 | 00:37:42 | 00:00:00 | |
| 9A1FER-10 | 2026-09-04 23:40:03 | 45.80321 | 16.18976 | 97° | 62km/h | 7775m | 4.7m/s | -21.6°C | 13.6% | 0hPa | 2.9V | 00:00:00 | 00:37:27 | 00:00:00 | |
| 9A1FER-3 | 2026-09-04 23:39:48 | 45.80365 | 16.18650 | 99° | 58km/h | 7685m | 5.3m/s | -21.1°C | 14.5% | 0hPa | 2.9V | 00:00:00 | 00:37:12 | 00:00:00 | |
| 9A1FER-3 | 2026-09-04 23:39:33 | 45.80428 | 16.18349 | 101° | 55km/h | 7598m | 3.7m/s | -20.5°C | 16.7% | 0hPa | 2.9V | 00:00:00 | 00:36:57 | 00:00:00 | |
| 9A1FER-3 | 2026-09-04 23:39:18 | 45.80483 | 16.18067 | 106° | 53km/h | 7510m | 8.5m/s | -19.9°C | 18.0% | 0hPa | 2.9V | 00:00:00 | 00:36:42 | 00:00:00 | |
| 9A1FER-3 | 2026-09-04 23:39:03 | 45.80531 | 16.17792 | 104° | 51km/h | 7422m | 5.4m/s | -19.1°C | 17.1% | 0hPa | 2.9V | 00:00:00 | 00:36:27 | 00:00:00 | |
| 9A1FER-10 | 2026-09-04 23:38:48 | 45.80592 | 16.17529 | 111° | 55km/h | 7331m | 5.5m/s | -18.4°C | 18.3% | 0hPa | 2.9V | 00:00:00 | 00:36:12 | 00:00:00 | |
| 9A1FER-3 | 2026-09-04 23:38:33 | 45.80652 | 16.17241 | 111° | 53km/h | 7247m | 3.1m/s | -18.2°C | 21.0% | 0hPa | 2.9V | 00:00:00 | 00:35:57 | 00:00:00 | |
| 9A1FER-3 | 2026-09-04 23:38:18 | 45.80719 | 16.16967 | 107° | 55km/h | 7165m | 8.3m/s | -17.7°C | 20.9% | 0hPa | 2.9V | 00:00:00 | 00:35:42 | 08:30:00 | |
| 9A1FER-10 | 2026-09-04 23:38:03 | 45.80789 | 16.16692 | 111° | 53km/h | 7083m | 4.8m/s | -17.2°C | 19.9% | 0hPa | 2.9V | 00:00:00 | 00:35:27 | 00:00:00 | |
| 9A1FER-3 | 2026-09-04 23:37:48 | 45.80853 | 16.16418 | 113° | 55km/h | 7006m | 3.6m/s | -16.8°C | 20.7% | 0hPa | 2.9V | 00:00:00 | 00:35:12 | 00:00:00 | |
| 9A1FER-3 | 2026-09-04 23:37:33 | 45.80931 | 16.16145 | 110° | 55km/h | 6928m | 4.7m/s | -16.7°C | 31.4% | 0hPa | 2.9V | 00:00:00 | 00:34:57 | 00:00:00 | |
| 9A1FER-3 | 2026-09-04 23:37:18 | 45.80995 | 16.15859 | 110° | 53km/h | 6851m | 3.9m/s | -16.2°C | 30.9% | 0hPa | 2.9V | 00:00:00 | 00:34:42 | 00:00:00 | |
| 9A1FER-3 | 2026-09-04 23:37:03 | 45.81053 | 16.15589 | 108° | 51km/h | 6781m | 6.0m/s | -15.6°C | 29.9% | 0hPa | 2.9V | 00:00:00 | 00:34:27 | 00:00:00 | |
| OM5KV | 2026-09-04 23:36:56 | 45.81075 | 16.15479 | 110° | 49km/h | 6750m | 5.0m/s | 0°C | 0% | 0hPa | 2.9V | 00:00:00 | 00:00:00 | 00:00:00 | |
| OM5KV | 2026-09-04 23:36:50 | 45.81097 | 16.15377 | 103° | 53km/h | 6715m | 5.5m/s | 0°C | 0% | 0hPa | 2.9V | 00:00:00 | 00:00:00 | 00:00:00 | |
| 9A1FER-10 | 2026-09-04 23:36:48 | 45.81104 | 16.15317 | 102° | 51km/h | 6702m | 2.8m/s | -15.1°C | 30.4% | 0hPa | 2.9V | 00:00:00 | 00:34:12 | 00:00:00 | |
| 9A1FER-3 | 2026-09-04 23:36:33 | 45.81156 | 16.15051 | 111° | 49km/h | 6614m | 5.8m/s | -14.6°C | 32.7% | 0hPa | 2.9V | 00:00:00 | 00:33:57 | 00:00:00 | |
| 9A1FER-3 | 2026-09-04 23:36:18 | 45.81215 | 16.14793 | 110° | 47km/h | 6535m | 4.6m/s | -14.1°C | 34.6% | 0hPa | 2.9V | 00:00:00 | 00:33:42 | 00:00:00 | |
| 9A1FER-10 | 2026-09-04 23:36:03 | 45.81266 | 16.14545 | 98° | 46km/h | 6451m | 4.4m/s | -13.8°C | 41.5% | 0hPa | 2.9V | 00:00:00 | 00:33:27 | 08:30:00 | |
| 9A1FER-3 | 2026-09-04 23:35:48 | 45.81309 | 16.14311 | 106° | 42km/h | 6368m | 4.6m/s | -13.0°C | 40.1% | 0hPa | 2.9V | 00:00:00 | 00:33:12 | 00:00:00 | |
| 9A1FER-3 | 2026-09-04 23:35:33 | 45.81349 | 16.14084 | 103° | 49km/h | 6273m | 2.7m/s | -12.4°C | 39.3% | 0hPa | 2.9V | 00:00:00 | 00:32:57 | 00:00:00 | |
| 9A1FER-3 | 2026-09-04 23:35:18 | 45.81396 | 16.13822 | 106° | 47km/h | 6182m | 4.0m/s | -11.9°C | 43.2% | 0hPa | 2.9V | 00:00:00 | 00:32:42 | 00:00:00 | |
| 9A1FER-3 | 2026-09-04 23:35:03 | 45.81432 | 16.13574 | 107° | 46km/h | 6104m | 5.3m/s | -11.3°C | 44.1% | 0hPa | 3.0V | 00:00:00 | 00:32:27 | 00:00:00 | |
| 9A1FER-10 | 2026-09-04 23:34:48 | 45.81467 | 16.13332 | 101° | 44km/h | 6010m | 5.9m/s | -10.9°C | 48.6% | 0hPa | 3.0V | 00:00:00 | 00:32:12 | 00:00:00 | |
| 9A1FER-3 | 2026-09-04 23:34:33 | 45.81497 | 16.13106 | 93° | 42km/h | 5916m | 4.2m/s | -10.3°C | 51.1% | 0hPa | 3.0V | 00:00:00 | 00:31:57 | 00:00:00 | |
| 9A1FER-3 | 2026-09-04 23:34:18 | 45.81514 | 16.12877 | 102° | 38km/h | 5820m | 4.1m/s | -9.4°C | 46.1% | 0hPa | 3.0V | 00:00:00 | 00:31:42 | 00:00:00 | |
| 9A1FER-10 | 2026-09-04 23:34:03 | 45.81542 | 16.12667 | 102° | 40km/h | 5729m | 6.9m/s | -8.6°C | 41.3% | 0hPa | 3.0V | 00:00:00 | 00:31:27 | 00:00:00 | |
| 9A1FER-3 | 2026-09-04 23:33:48 | 45.81575 | 16.12454 | 106° | 42km/h | 5632m | 7.7m/s | -8.0°C | 42.0% | 0hPa | 3.0V | 00:00:00 | 00:31:12 | 08:30:00 | |
| 9A1FER-3 | 2026-09-04 23:33:33 | 45.81603 | 16.12231 | 109° | 40km/h | 5539m | 3.6m/s | -7.2°C | 33.5% | 0hPa | 3.0V | 00:00:00 | 00:30:57 | 00:00:00 | |
| 9A1FER-3 | 2026-09-04 23:33:18 | 45.81636 | 16.12023 | 97° | 42km/h | 5454m | 3.8m/s | -6.7°C | 40.9% | 0hPa | 3.0V | 00:00:00 | 00:30:42 | 00:00:00 | |
| 9A1FER-3 | 2026-09-04 23:33:03 | 45.81653 | 16.11792 | 91° | 46km/h | 5380m | 6.9m/s | -6.1°C | 38.5% | 0hPa | 3.0V | 00:00:00 | 00:30:27 | 00:00:00 | |
| 9A1FER-10 | 2026-09-04 23:32:48 | 45.81685 | 16.11551 | 105° | 38km/h | 5307m | 4.7m/s | -6.0°C | 53.2% | 0hPa | 3.0V | 00:00:00 | 00:30:12 | 00:00:00 | |
| 9A1FER-3 | 2026-09-04 23:32:33 | 45.81724 | 16.11351 | 108° | 35km/h | 5220m | 6.3m/s | -5.3°C | 47.3% | 0hPa | 3.0V | 00:00:00 | 00:29:57 | 00:00:00 | |
| 9A1FER-10 | 2026-09-04 23:32:03 | 45.81804 | 16.10968 | 103° | 40km/h | 5030m | 5.4m/s | -4.3°C | 58.1% | 0hPa | 3.0V | 00:00:00 | 00:29:27 | 00:00:00 | |
| 9A1FER-3 | 2026-09-04 23:31:48 | 45.81824 | 16.10749 | 103° | 37km/h | 4947m | 5.4m/s | -3.9°C | 62.6% | 0hPa | 3.0V | 00:00:00 | 00:29:12 | 00:00:00 | |
| 9A1FER-3 | 2026-09-04 23:31:33 | 45.81862 | 16.10565 | 120° | 31km/h | 4858m | 5.4m/s | -3.7°C | 73.8% | 0hPa | 3.0V | 00:00:00 | 00:28:57 | 08:30:00 | |
| 9A1FER-3 | 2026-09-04 23:31:18 | 45.81890 | 16.10406 | 117° | 27km/h | 4763m | 6.6m/s | -2.9°C | 74.1% | 0hPa | 3.0V | 00:00:00 | 00:28:42 | 00:00:00 | |
| 9A1FER-3 | 2026-09-04 23:31:03 | 45.81920 | 16.10270 | 98° | 27km/h | 4671m | 4.1m/s | -2.1°C | 76.1% | 0hPa | 3.0V | 00:00:00 | 00:28:27 | 00:00:00 | |
| 9A1FER-3 | 2026-09-04 23:30:48 | 45.81953 | 16.10126 | 103° | 27km/h | 4589m | 7.7m/s | -1.4°C | 76.0% | 0hPa | 3.0V | 00:00:00 | 00:28:12 | 00:00:00 | |
| 9A1FER-3 | 2026-09-04 23:30:33 | 45.82002 | 16.10003 | 124° | 24km/h | 4490m | 5.7m/s | -0.6°C | 74.8% | 0hPa | 3.0V | 00:00:00 | 00:27:57 | 00:00:00 | |
| 9A1FER-3 | 2026-09-04 23:30:18 | 45.82038 | 16.09886 | 133° | 24km/h | 4394m | 6.3m/s | 0.3°C | 70.2% | 0hPa | 3.0V | 00:00:00 | 00:27:42 | 00:00:00 | |
| 9A1FER-3 | 2026-09-04 23:29:48 | 45.82120 | 16.09664 | 104° | 18km/h | 4219m | 5.1m/s | 2.0°C | 61.0% | 0hPa | 3.0V | 00:00:00 | 00:27:12 | 00:00:00 | |
| 9A1FER-3 | 2026-09-04 23:29:33 | 45.82140 | 16.09569 | 131° | 20km/h | 4133m | 4.1m/s | 2.8°C | 54.7% | 0hPa | 3.0V | 00:00:00 | 00:26:57 | 00:00:00 | |
| 9A1FER-3 | 2026-09-04 23:29:18 | 45.82172 | 16.09475 | 142° | 18km/h | 4047m | 4.8m/s | 3.6°C | 46.7% | 0hPa | 3.0V | 00:00:00 | 00:26:42 | 08:30:00 | |
| 9A1FER-3 | 2026-09-04 23:29:03 | 45.82197 | 16.09390 | 135° | 20km/h | 3964m | 5.5m/s | 4.5°C | 43.4% | 0hPa | 3.0V | 00:00:00 | 00:26:27 | 00:00:00 | |
| 9A1FER-3 | 2026-09-04 23:28:48 | 45.82225 | 16.09283 | 116° | 18km/h | 3872m | 5.3m/s | 5.3°C | 40.8% | 0hPa | 3.0V | 00:00:00 | 00:26:12 | 00:00:00 | |
| 9A1FER-3 | 2026-09-04 23:28:33 | 45.82254 | 16.09198 | 149° | 20km/h | 3777m | 8.0m/s | 6.1°C | 38.0% | 0hPa | 3.0V | 00:00:00 | 00:25:57 | 00:00:00 | |
| 9A1FER-3 | 2026-09-04 23:28:18 | 45.82304 | 16.09114 | 136° | 26km/h | 3694m | 3.9m/s | 6.6°C | 37.7% | 0hPa | 3.0V | 00:00:00 | 00:25:42 | 00:00:00 | |
| 9A1FER-10 | 2026-09-04 23:28:03 | 45.82343 | 16.08994 | 127° | 22km/h | 3614m | 5.7m/s | 7.3°C | 36.3% | 0hPa | 3.0V | 00:00:00 | 00:25:27 | 00:00:00 | |
| 9A1FER-3 | 2026-09-04 23:27:48 | 45.82385 | 16.08890 | 122° | 26km/h | 3525m | 4.5m/s | 8.2°C | 35.7% | 0hPa | 3.0V | 00:00:00 | 00:25:12 | 00:00:00 | |
| 9A1FER-3 | 2026-09-04 23:27:33 | 45.82420 | 16.08766 | 97° | 22km/h | 3434m | 6.7m/s | 9.0°C | 34.6% | 0hPa | 3.0V | 00:00:00 | 00:24:57 | 00:00:00 | |
| 9A1FER-10 | 2026-09-04 23:27:18 | 45.82434 | 16.08645 | 95° | 26km/h | 3341m | 6.9m/s | 9.8°C | 35.2% | 0hPa | 3.0V | 00:00:00 | 00:24:42 | 00:00:00 | |
| 9A1FER-3 | 2026-09-04 23:27:03 | 45.82453 | 16.08518 | 124° | 24km/h | 3241m | 7.5m/s | 10.6°C | 33.0% | 0hPa | 3.0V | 00:00:00 | 00:24:27 | 08:30:00 | |
| 9A1FER-3 | 2026-09-04 23:26:48 | 45.82475 | 16.08397 | 104° | 22km/h | 3148m | 6.2m/s | 11.3°C | 31.3% | 0hPa | 3.0V | 00:00:00 | 00:24:12 | 00:00:00 | |
| 9A1FER-3 | 2026-09-04 23:26:33 | 45.82502 | 16.08285 | 133° | 24km/h | 3057m | 6.0m/s | 12.0°C | 29.4% | 0hPa | 3.0V | 00:00:00 | 00:23:57 | 00:00:00 | |
| 9A1FER-3 | 2026-09-04 23:26:18 | 45.82565 | 16.08197 | 147° | 15km/h | 2967m | 7.8m/s | 12.3°C | 33.6% | 0hPa | 3.0V | 00:00:00 | 00:23:42 | 00:00:00 | |
| 9A1FER-3 | 2026-09-04 23:26:03 | 45.82608 | 16.08170 | 226° | 7km/h | 2875m | 6.3m/s | 13.0°C | 32.1% | 0hPa | 3.0V | 00:00:00 | 00:23:27 | 00:00:00 | |
| 9A1FER-3 | 2026-09-04 23:25:48 | 45.82620 | 16.08152 | 215° | 9km/h | 2794m | 2.9m/s | 13.6°C | 30.2% | 0hPa | 3.0V | 00:00:00 | 00:23:12 | 00:00:00 | |
| 9A1FER-3 | 2026-09-04 23:25:33 | 45.82638 | 16.08151 | 85° | 9km/h | 2715m | 3.5m/s | 14.2°C | 28.7% | 0hPa | 3.0V | 00:00:00 | 00:22:57 | 00:00:00 | |
| 9A1FER-10 | 2026-09-04 23:25:18 | 45.82642 | 16.08110 | 307° | 9km/h | 2629m | 6.7m/s | 15.1°C | 27.2% | 0hPa | 3.0V | 00:00:00 | 00:22:42 | 00:00:00 | |
| 9A1FER-3 | 2026-09-04 23:25:03 | 45.82657 | 16.08089 | 155° | 7km/h | 2552m | 4.4m/s | 15.8°C | 26.0% | 0hPa | 3.0V | 00:00:00 | 00:22:27 | 00:00:00 | |
| 9A1FER-3 | 2026-09-04 23:24:48 | 45.82679 | 16.08084 | 91° | 11km/h | 2472m | 5.9m/s | 16.6°C | 24.8% | 0hPa | 3.0V | 00:00:00 | 00:22:12 | 08:30:00 | |
| 9A1FER-3 | 2026-09-04 23:24:33 | 45.82680 | 16.08046 | 68° | 11km/h | 2399m | 5.5m/s | 17.3°C | 23.4% | 0hPa | 3.0V | 00:00:00 | 00:21:57 | 00:00:00 | |
| 9A1FER-3 | 2026-09-04 23:24:18 | 45.82673 | 16.08006 | 65° | 13km/h | 2309m | 4.8m/s | 18.1°C | 22.0% | 0hPa | 3.0V | 00:00:00 | 00:21:42 | 00:00:00 | |
| 9A1FER-10 | 2026-09-04 23:24:03 | 45.82645 | 16.07957 | 64° | 9km/h | 2220m | 5.8m/s | 19.0°C | 19.6% | 0hPa | 3.0V | 00:00:00 | 00:21:27 | 00:00:00 | |
| 9A1FER-3 | 2026-09-04 23:23:48 | 45.82634 | 16.07908 | 98° | 20km/h | 2132m | 7.7m/s | 19.6°C | 18.4% | 0hPa | 3.0V | 00:00:00 | 00:21:12 | 00:00:00 | |
| 9A1FER-3 | 2026-09-04 23:23:33 | 45.82585 | 16.07833 | 81° | 16km/h | 2049m | 5.4m/s | 20.4°C | 17.8% | 0hPa | 3.0V | 00:00:00 | 00:20:57 | 00:00:00 | |
| 9A1FER-3 | 2026-09-04 23:23:18 | 45.82572 | 16.07752 | 77° | 26km/h | 1968m | 4.2m/s | 20.9°C | 16.9% | 0hPa | 3.0V | 00:00:00 | 00:20:42 | 00:00:00 | |
| 9A1FER-10 | 2026-09-04 23:23:18 | 45.82572 | 16.07752 | 77° | 26km/h | 1968m | 4.2m/s | 20.9°C | 16.9% | 0hPa | 3.0V | 00:00:00 | 00:20:42 | 00:00:00 | |
| 9A1FER-10 | 2026-09-04 23:23:03 | 45.82547 | 16.07622 | 79° | 29km/h | 1886m | 4.5m/s | 21.1°C | 16.4% | 0hPa | 3.0V | 00:00:00 | 00:20:27 | 00:00:00 | |
| 9A1FER-3 | 2026-09-04 23:23:03 | 45.82547 | 16.07622 | 79° | 29km/h | 1886m | 4.5m/s | 21.1°C | 16.4% | 0hPa | 3.0V | 00:00:00 | 00:20:27 | 00:00:00 | |
| 9A1FER-10 | 2026-09-04 23:22:48 | 45.82525 | 16.07470 | 74° | 33km/h | 1791m | 5.3m/s | 21.0°C | 18.4% | 0hPa | 3.0V | 00:00:00 | 00:20:12 | 00:00:00 | |
| 9A1FER-3 | 2026-09-04 23:22:48 | 45.82525 | 16.07470 | 74° | 33km/h | 1791m | 5.3m/s | 21.0°C | 18.4% | 0hPa | 3.0V | 00:00:00 | 00:20:12 | 00:00:00 | |
| 9A1FER-10 | 2026-09-04 23:22:33 | 45.82481 | 16.07305 | 80° | 33km/h | 1700m | 2.2m/s | 21.5°C | 19.3% | 0hPa | 3.0V | 00:00:00 | 00:19:57 | 08:30:00 | |
| 9A1FER-3 | 2026-09-04 23:22:33 | 45.82481 | 16.07305 | 80° | 33km/h | 1700m | 2.2m/s | 21.5°C | 19.3% | 0hPa | 3.0V | 00:00:00 | 00:19:57 | 08:30:00 | |
| 9A1FER-10 | 2026-09-04 23:22:18 | 45.82440 | 16.07133 | 61° | 27km/h | 1620m | 4.8m/s | 22.2°C | 19.4% | 0hPa | 3.0V | 00:00:00 | 00:19:42 | 00:00:00 | |
| 9A1FER-3 | 2026-09-04 23:22:18 | 45.82440 | 16.07133 | 61° | 27km/h | 1620m | 4.8m/s | 22.2°C | 19.4% | 0hPa | 3.0V | 00:00:00 | 00:19:42 | 00:00:00 | |
| 9A1FER-10 | 2026-09-04 23:22:03 | 45.82377 | 16.07016 | 57° | 33km/h | 1548m | 4.3m/s | 22.8°C | 19.3% | 0hPa | 3.0V | 00:00:00 | 00:19:27 | 00:00:00 | |
| 9A1FER-3 | 2026-09-04 23:22:03 | 45.82377 | 16.07016 | 57° | 33km/h | 1548m | 4.3m/s | 22.8°C | 19.3% | 0hPa | 3.0V | 00:00:00 | 00:19:27 | 00:00:00 | |
| 9A1FER-10 | 2026-09-04 23:21:48 | 45.82317 | 16.06863 | 62° | 31km/h | 1466m | 5.6m/s | 23.5°C | 19.4% | 0hPa | 3.0V | 00:00:00 | 00:19:12 | 00:00:00 | |
| 9A1FER-3 | 2026-09-04 23:21:48 | 45.82317 | 16.06863 | 62° | 31km/h | 1466m | 5.6m/s | 23.5°C | 19.4% | 0hPa | 3.0V | 00:00:00 | 00:19:12 | 00:00:00 | |
| 9A1FER-10 | 2026-09-04 23:21:33 | 45.82274 | 16.06708 | 78° | 37km/h | 1385m | 4.8m/s | 23.9°C | 19.0% | 0hPa | 3.0V | 00:00:00 | 00:18:57 | 00:00:00 | |
| 9A1FER-3 | 2026-09-04 23:21:33 | 45.82274 | 16.06708 | 78° | 37km/h | 1385m | 4.8m/s | 23.9°C | 19.0% | 0hPa | 3.0V | 00:00:00 | 00:18:57 | 00:00:00 | |
| 9A1FER-3 | 2026-09-04 23:21:18 | 45.82244 | 16.06521 | 86° | 51km/h | 1313m | 6.2m/s | 23.3°C | 24.9% | 0hPa | 3.0V | 00:00:00 | 00:18:42 | 00:00:00 | |
| 9A1FER-10 | 2026-09-04 23:21:18 | 45.82244 | 16.06521 | 86° | 51km/h | 1313m | 6.2m/s | 23.3°C | 24.9% | 0hPa | 3.0V | 00:00:00 | 00:18:42 | 00:00:00 | |
| 9A1FER-10 | 2026-09-04 23:21:03 | 45.82236 | 16.06235 | 95° | 57km/h | 1226m | 5.5m/s | 21.9°C | 37.4% | 0hPa | 3.0V | 00:00:00 | 00:18:27 | 00:00:00 | |
| 9A1FER-3 | 2026-09-04 23:21:03 | 45.82236 | 16.06235 | 95° | 57km/h | 1226m | 5.5m/s | 21.9°C | 37.4% | 0hPa | 3.0V | 00:00:00 | 00:18:27 | 00:00:00 | |
| 9A1FER-10 | 2026-09-04 23:20:48 | 45.82247 | 16.05932 | 82° | 60km/h | 1152m | 4.4m/s | 21.2°C | 48.8% | 0hPa | 3.0V | 00:00:00 | 00:18:12 | 00:00:00 | |
| 9A1FER-3 | 2026-09-04 23:20:48 | 45.82247 | 16.05932 | 82° | 60km/h | 1152m | 4.4m/s | 21.2°C | 48.8% | 0hPa | 3.0V | 00:00:00 | 00:18:12 | 00:00:00 | |
| 9A1FER-10 | 2026-09-04 23:20:33 | 45.82241 | 16.05603 | 91° | 58km/h | 1071m | 4.3m/s | 21.7°C | 44.3% | 0hPa | 3.0V | 00:00:00 | 00:17:57 | 00:00:00 | |
| 9A1FER-3 | 2026-09-04 23:20:33 | 45.82241 | 16.05603 | 91° | 58km/h | 1071m | 4.3m/s | 21.7°C | 44.3% | 0hPa | 3.0V | 00:00:00 | 00:17:57 | 00:00:00 | |
| 9A1FER-10 | 2026-09-04 23:20:18 | 45.82243 | 16.05289 | 88° | 51km/h | 974m | 2.7m/s | 22.6°C | 41.3% | 0hPa | 3.0V | 00:00:00 | 00:17:42 | 08:30:00 | |
| 9A1FER-3 | 2026-09-04 23:20:18 | 45.82243 | 16.05289 | 88° | 51km/h | 974m | 2.7m/s | 22.6°C | 41.3% | 0hPa | 3.0V | 00:00:00 | 00:17:42 | 08:30:00 | |
| 9A1FER-10 | 2026-09-04 23:20:03 | 45.82221 | 16.05016 | 84° | 47km/h | 884m | 6.0m/s | 23.5°C | 39.3% | 0hPa | 3.0V | 00:00:00 | 00:17:27 | 00:00:00 | |
| 9A1FER-3 | 2026-09-04 23:20:03 | 45.82221 | 16.05016 | 84° | 47km/h | 884m | 6.0m/s | 23.5°C | 39.3% | 0hPa | 3.0V | 00:00:00 | 00:17:27 | 00:00:00 | |
| 9A1FER-10 | 2026-09-04 23:19:48 | 45.82192 | 16.04768 | 70° | 44km/h | 796m | 5.0m/s | 24.3°C | 37.7% | 0hPa | 3.0V | 00:00:00 | 00:17:12 | 00:00:00 | |
| 9A1FER-3 | 2026-09-04 23:19:48 | 45.82192 | 16.04768 | 70° | 44km/h | 796m | 5.0m/s | 24.3°C | 37.7% | 0hPa | 3.0V | 00:00:00 | 00:17:12 | 00:00:00 | |
| 9A1FER-10 | 2026-09-04 23:19:33 | 45.82150 | 16.04540 | 76° | 42km/h | 710m | 4.4m/s | 0°C | 0% | 0hPa | 3.0V | 00:00:00 | 00:16:57 | 00:00:00 | |
| 9A1FER-3 | 2026-09-04 23:19:33 | 45.82150 | 16.04540 | 76° | 42km/h | 710m | 4.4m/s | 24.7°C | 38.5% | 0hPa | 3.0V | 00:00:00 | 00:16:57 | 00:00:00 | |
| 9A1FER-3 | 2026-09-04 23:19:18 | 45.82140 | 16.04316 | 86° | 37km/h | 628m | 6.5m/s | 25.2°C | 39.0% | 0hPa | 0V | 00:00:00 | 00:16:42 | 00:00:00 | |
| 9A1FER-10 | 2026-09-04 23:19:18 | 45.82140 | 16.04316 | 86° | 38km/h | 628m | 6.5m/s | 0°C | 0% | 0hPa | 0V | 00:00:00 | 00:16:42 | 00:00:00 | |
| 9A1FER-10 | 2026-09-04 23:19:03 | 45.82123 | 16.04116 | 83° | 33km/h | 544m | 5.1m/s | 0°C | 0% | 0hPa | 0V | 00:00:00 | 00:16:27 | 00:00:00 | |
| 9A1FER-3 | 2026-09-04 23:19:03 | 45.82123 | 16.04116 | 83° | 33km/h | 544m | 5.1m/s | 25.7°C | 38.9% | 0hPa | 0V | 00:00:00 | 00:16:27 | 00:00:00 | |
| 9A1FER-10 | 2026-09-04 23:18:48 | 45.82110 | 16.03936 | 94° | 37km/h | 470m | 5.9m/s | 0°C | 0% | 0hPa | 0V | 00:00:00 | 00:16:12 | 00:00:00 | |
| 9A1FER-3 | 2026-09-04 23:18:48 | 45.82110 | 16.03936 | 94° | 35km/h | 470m | 5.9m/s | 0°C | 0% | 0hPa | 0V | 00:00:00 | 00:16:12 | 00:00:00 | |
| 9A1FER-10 | 2026-09-04 23:18:33 | 45.82120 | 16.03743 | 101° | 26km/h | 393m | 5.4m/s | 0°C | 0% | 0hPa | 0V | 00:00:00 | 00:15:57 | 00:00:00 | |
| 9A1FER-3 | 2026-09-04 23:18:33 | 45.82120 | 16.03743 | 101° | 26km/h | 393m | 5.4m/s | 0°C | 0% | 0hPa | 0V | 00:00:00 | 00:15:57 | 00:00:00 | |
| 9A1FER-10 | 2026-09-04 23:18:18 | 45.82123 | 16.03606 | 86° | 31km/h | 308m | 4.4m/s | 0°C | 0% | 0hPa | 0V | 00:00:00 | 00:15:42 | 00:00:00 | |
| 9A1FER-3 | 2026-09-04 23:18:18 | 45.82123 | 16.03606 | 86° | 29km/h | 308m | 4.4m/s | 0°C | 0% | 0hPa | 0V | 00:00:00 | 00:15:42 | 00:00:00 | |
| 9A1FER-10 | 2026-09-04 23:18:03 | 45.82108 | 16.03448 | 51° | 27km/h | 241m | 4.7m/s | 0°C | 0% | 0hPa | 0V | 00:00:00 | 00:15:27 | 00:00:00 | |
| 9A1FER-3 | 2026-09-04 23:18:03 | 45.82108 | 16.03448 | 51° | 27km/h | 241m | 4.7m/s | 0°C | 0% | 0hPa | 0V | 00:00:00 | 00:15:27 | 00:00:00 |